[[{"header":{"parameterUnit":"m.s-1","parameterCategory":1,"la1":30.6,"la2":29.2853,"lo1":-89.7004,"lo2":-87.6739,"dy":0.0162,"dx":0.0183,"nx":112,"ny":82,"refTime":"2023-11-11T06:00:00:Z","depth":0,"parameterNumber":2,"parameterNumberName":"U-component_of_WINDS"},"data":[0.0,0.0,0.0,0.0,0.0,0.0,0.0,0.0,0.0,0.0,0.0,0.0,0.0,0.0,0.0,0.0,0.0,0.0,0.0,0.0,0.0,0.0,0.0,0.0,0.0,0.0,0.0,0.0,0.0,0.0,0.0,0.0,0.0,0.0,0.0,0.0,0.0,0.0,0.0,0.0,0.0,0.0,0.0,0.0,0.0,0.0,0.0,0.0,0.0,0.0,0.0,0.0,0.0,0.0,0.0,0.0,0.0,0.0,0.0,0.0,0.0,0.0,0.0,0.0,0.0,0.0,0.0,0.0,0.0,0.0,0.0,0.0,0.0,0.0,0.0,0.0,0.0,0.0,0.0,0.0,0.0,0.0,0.0,0.0,0.0,0.0,0.0,0.0,0.0,0.0,3.6697,3.6592,3.6995,3.7251,3.7209,3.6883,3.602,3.4464,0.0,0.0,0.0,0.0,0.0,0.0,0.0,0.0,0.0,0.0,0.0,0.0,0.0,0.0,0.0,0.0,0.0,0.0,0.0,0.0,0.0,0.0,0.0,0.0,0.0,0.0,0.0,0.0,0.0,0.0,0.0,0.0,0.0,0.0,0.0,0.0,0.0,0.0,0.0,0.0,0.0,0.0,0.0,0.0,0.0,0.0,0.0,0.0,0.0,0.0,0.0,0.0,0.0,0.0,0.0,0.0,0.0,0.0,0.0,0.0,0.0,0.0,0.0,0.0,0.0,0.0,0.0,0.0,0.0,0.0,0.0,0.0,0.0,0.0,0.0,0.0,0.0,0.0,0.0,0.0,0.0,0.0,0.0,0.0,0.0,0.0,0.0,0.0,0.0,0.0,0.0,0.0,0.0,0.0,0.0,0.0,0.0,0.0,0.0,0.0,0.0,0.0,0.0,0.0,3.8316,3.952,3.9696,3.9438,3.8655,3.7939,3.6696,3.4771,0.0,0.0,0.0,0.0,0.0,0.0,0.0,0.0,0.0,0.0,0.0,0.0,0.0,0.0,0.0,0.0,0.0,0.0,0.0,0.0,0.0,0.0,0.0,0.0,0.0,0.0,0.0,0.0,0.0,0.0,0.0,0.0,0.0,0.0,0.0,0.0,0.0,0.0,0.0,0.0,0.0,0.0,0.0,0.0,0.0,0.0,0.0,0.0,0.0,0.0,0.0,0.0,0.0,0.0,0.0,0.0,0.0,0.0,0.0,0.0,0.0,0.0,0.0,0.0,0.0,0.0,0.0,0.0,0.0,0.0,0.0,0.0,0.0,0.0,0.0,0.0,0.0,0.0,0.0,0.0,0.0,0.0,0.0,0.0,0.0,0.0,0.0,0.0,0.0,0.0,0.0,0.0,0.0,0.0,0.0,0.0,0.0,0.0,0.0,0.0,0.0,0.0,0.0,3.8188,3.9205,4.035,4.0523,4.0418,3.9967,3.9159,3.7809,3.5814,3.3073,0.0,0.0,0.0,0.0,0.0,0.0,0.0,0.0,0.0,0.0,0.0,0.0,0.0,0.0,0.0,0.0,0.0,0.0,0.0,0.0,0.0,0.0,0.0,0.0,0.0,0.0,0.0,0.0,0.0,0.0,0.0,0.0,0.0,0.0,0.0,0.0,0.0,0.0,0.0,0.0,0.0,0.0,0.0,0.0,0.0,0.0,0.0,0.0,0.0,0.0,0.0,0.0,0.0,0.0,0.0,0.0,0.0,0.0,0.0,0.0,0.0,0.0,0.0,0.0,0.0,0.0,0.0,0.0,0.0,0.0,0.0,0.0,0.0,0.0,0.0,0.0,0.0,0.0,0.0,0.0,0.0,0.0,0.0,0.0,0.0,0.0,0.0,0.0,0.0,0.0,0.0,0.0,0.0,0.0,0.0,0.0,0.0,0.0,0.0,0.0,0.0,0.0,3.9583,4.0341,4.114,4.1318,4.1221,4.0869,3.9883,3.8413,3.6293,3.3367,0.0,0.0,0.0,0.0,0.0,0.0,0.0,0.0,0.0,0.0,0.0,0.0,0.0,0.0,0.0,0.0,0.0,0.0,0.0,0.0,0.0,0.0,0.0,0.0,0.0,0.0,0.0,0.0,0.0,0.0,0.0,0.0,0.0,0.0,0.0,0.0,0.0,0.0,0.0,0.0,0.0,0.0,0.0,0.0,0.0,0.0,0.0,0.0,0.0,0.0,0.0,0.0,0.0,0.0,0.0,0.0,0.0,0.0,0.0,0.0,0.0,0.0,0.0,0.0,0.0,0.0,0.0,0.0,0.0,0.0,0.0,0.0,0.0,0.0,0.0,0.0,0.0,0.0,0.0,0.0,0.0,0.0,0.0,0.0,0.0,0.0,0.0,0.0,0.0,0.0,0.0,0.0,0.0,0.0,0.0,0.0,0.0,0.0,0.0,0.0,0.0,0.0,4.1535,4.239,4.2953,4.3037,4.2482,4.1096,3.9563,3.7677,3.5368,3.2878,0.0,0.0,0.0,0.0,0.0,0.0,0.0,0.0,0.0,0.0,0.0,0.0,0.0,0.0,0.0,0.0,0.0,0.0,0.0,0.0,0.0,0.0,0.0,0.0,0.0,0.0,0.0,0.0,0.0,0.0,0.0,0.0,0.0,0.0,0.0,0.0,0.0,0.0,0.0,0.0,0.0,0.0,0.0,0.0,0.0,0.0,0.0,0.0,0.0,0.0,0.0,0.0,0.0,0.0,0.0,0.0,0.0,0.0,0.0,0.0,0.0,0.0,0.0,0.0,0.0,0.0,0.0,0.0,0.0,0.0,0.0,0.0,0.0,0.0,0.0,0.0,0.0,0.0,0.0,0.0,0.0,0.0,0.0,0.0,0.0,0.0,0.0,0.0,0.0,0.0,0.0,0.0,0.0,0.0,0.0,0.0,0.0,0.0,0.0,0.0,0.0,0.0,4.152,4.2265,0.0,4.2964,4.2758,4.1994,4.0989,3.9092,3.5987,0.0,0.0,0.0,0.0,0.0,0.0,0.0,0.0,0.0,0.0,0.0,0.0,0.0,0.0,0.0,0.0,0.0,0.0,0.0,0.0,0.0,0.0,0.0,0.0,0.0,0.0,0.0,0.0,0.0,0.0,0.0,0.0,0.0,0.0,0.0,0.0,0.0,0.0,0.0,0.0,0.0,0.0,0.0,0.0,0.0,0.0,0.0,0.0,0.0,0.0,0.0,0.0,0.0,0.0,0.0,0.0,0.0,0.0,0.0,0.0,0.0,0.0,0.0,0.0,0.0,0.0,0.0,0.0,0.0,0.0,0.0,0.0,0.0,0.0,0.0,0.0,0.0,0.0,0.0,0.0,0.0,0.0,0.0,0.0,0.0,0.0,0.0,0.0,0.0,0.0,0.0,0.0,0.0,0.0,0.0,0.0,0.0,0.0,0.0,0.0,0.0,0.0,4.093,4.1659,4.2271,0.0,4.2966,4.2941,4.2477,4.1543,3.9671,3.6613,0.0,0.0,0.0,0.0,0.0,0.0,0.0,0.0,0.0,0.0,0.0,0.0,0.0,0.0,0.0,0.0,0.0,0.0,0.0,0.0,0.0,0.0,0.0,0.0,0.0,0.0,0.0,0.0,0.0,0.0,0.0,0.0,0.0,0.0,0.0,0.0,0.0,0.0,0.0,0.0,0.0,0.0,0.0,0.0,0.0,0.0,0.0,0.0,0.0,0.0,0.0,0.0,0.0,0.0,0.0,0.0,0.0,0.0,0.0,0.0,0.0,0.0,0.0,0.0,0.0,0.0,0.0,0.0,0.0,0.0,0.0,0.0,0.0,0.0,0.0,0.0,0.0,0.0,0.0,0.0,0.0,0.0,0.0,0.0,0.0,0.0,0.0,0.0,0.0,0.0,0.0,0.0,0.0,0.0,0.0,0.0,0.0,0.0,0.0,0.0,0.0,0.0,4.1611,4.2213,4.2712,4.324,4.3276,4.3026,4.2351,4.0824,3.9068,0.0,0.0,0.0,0.0,0.0,0.0,0.0,0.0,0.0,0.0,0.0,0.0,0.0,0.0,0.0,0.0,0.0,0.0,0.0,0.0,0.0,0.0,0.0,0.0,0.0,0.0,0.0,0.0,0.0,0.0,0.0,0.0,0.0,0.0,0.0,0.0,0.0,0.0,0.0,0.0,0.0,0.0,0.0,0.0,0.0,0.0,0.0,0.0,0.0,0.0,0.0,0.0,0.0,0.0,0.0,0.0,0.0,0.0,0.0,0.0,0.0,0.0,0.0,0.0,0.0,0.0,0.0,0.0,0.0,0.0,0.0,0.0,0.0,0.0,0.0,0.0,0.0,0.0,0.0,0.0,0.0,0.0,0.0,0.0,0.0,0.0,0.0,0.0,0.0,0.0,0.0,0.0,0.0,0.0,0.0,0.0,0.0,0.0,0.0,0.0,0.0,0.0,0.0,4.2635,4.2808,4.2912,4.3186,4.2894,4.252,4.2185,4.136,3.9965,3.7797,0.0,0.0,0.0,0.0,0.0,0.0,0.0,0.0,0.0,0.0,0.0,0.0,0.0,0.0,0.0,0.0,0.0,0.0,0.0,0.0,0.0,0.0,0.0,0.0,0.0,0.0,0.0,0.0,0.0,0.0,0.0,0.0,0.0,0.0,0.0,0.0,0.0,0.0,0.0,0.0,0.0,0.0,0.0,0.0,0.0,0.0,0.0,0.0,0.0,0.0,0.0,0.0,0.0,0.0,0.0,0.0,0.0,0.0,0.0,0.0,0.0,0.0,0.0,0.0,0.0,0.0,0.0,0.0,0.0,0.0,0.0,0.0,0.0,0.0,0.0,0.0,0.0,0.0,0.0,0.0,0.0,0.0,0.0,0.0,0.0,0.0,0.0,0.0,0.0,0.0,0.0,0.0,0.0,0.0,0.0,0.0,0.0,0.0,0.0,0.0,0.0,0.0,4.2688,4.3059,4.3056,4.2601,4.2284,4.2045,4.1916,4.1199,4.0099,3.8456,0.0,0.0,0.0,0.0,0.0,0.0,0.0,0.0,0.0,0.0,0.0,0.0,0.0,0.0,0.0,0.0,0.0,0.0,0.0,0.0,0.0,0.0,0.0,0.0,0.0,0.0,0.0,0.0,0.0,0.0,0.0,0.0,0.0,0.0,0.0,0.0,0.0,0.0,0.0,0.0,0.0,0.0,0.0,0.0,0.0,0.0,0.0,0.0,0.0,0.0,0.0,0.0,0.0,0.0,0.0,0.0,0.0,0.0,0.0,0.0,0.0,0.0,0.0,0.0,0.0,0.0,0.0,0.0,0.0,0.0,0.0,0.0,0.0,0.0,0.0,0.0,0.0,0.0,0.0,0.0,0.0,0.0,0.0,0.0,0.0,0.0,0.0,0.0,0.0,0.0,0.0,0.0,0.0,0.0,0.0,0.0,0.0,0.0,0.0,0.0,0.0,0.0,4.2161,4.3059,4.3121,4.1828,4.157,4.1489,4.1489,4.0577,3.9719,3.8973,0.0,0.0,0.0,0.0,0.0,0.0,0.0,0.0,0.0,0.0,0.0,0.0,0.0,0.0,0.0,0.0,0.0,0.0,0.0,0.0,0.0,0.0,0.0,0.0,0.0,0.0,0.0,0.0,0.0,0.0,0.0,0.0,0.0,0.0,0.0,0.0,0.0,0.0,0.0,0.0,0.0,0.0,0.0,0.0,0.0,0.0,0.0,0.0,0.0,0.0,0.0,0.0,0.0,0.0,0.0,0.0,0.0,0.0,0.0,0.0,3.2357,0.0,0.0,0.0,0.0,0.0,0.0,0.0,0.0,0.0,0.0,0.0,0.0,0.0,0.0,0.0,0.0,0.0,0.0,0.0,0.0,0.0,0.0,0.0,0.0,0.0,0.0,0.0,0.0,0.0,0.0,0.0,0.0,0.0,0.0,0.0,0.0,0.0,0.0,0.0,0.0,0.0,4.2528,4.2929,4.2852,4.2289,4.133,4.073,4.073,4.037,3.9871,3.919,3.745,0.0,0.0,0.0,0.0,0.0,0.0,0.0,0.0,0.0,0.0,0.0,0.0,0.0,0.0,0.0,0.0,0.0,0.0,0.0,0.0,0.0,0.0,0.0,0.0,0.0,0.0,0.0,0.0,0.0,0.0,0.0,0.0,0.0,0.0,0.0,0.0,0.0,0.0,0.0,0.0,0.0,0.0,0.0,0.0,0.0,0.0,0.0,0.0,0.0,0.0,0.0,0.0,0.0,0.0,0.0,0.0,0.0,0.0,0.0,0.0,3.3316,0.0,0.0,0.0,0.0,0.0,0.0,0.0,0.0,0.0,0.0,0.0,0.0,0.0,0.0,0.0,0.0,0.0,0.0,0.0,0.0,0.0,0.0,0.0,0.0,0.0,0.0,0.0,0.0,0.0,0.0,0.0,0.0,0.0,0.0,0.0,0.0,0.0,0.0,0.0,0.0,4.21,4.255,4.2487,4.1595,4.0878,4.0385,4.0141,3.9915,3.935,3.8265,3.7343,0.0,0.0,0.0,0.0,0.0,0.0,0.0,0.0,0.0,0.0,0.0,0.0,0.0,0.0,0.0,0.0,0.0,0.0,0.0,0.0,0.0,0.0,0.0,0.0,0.0,0.0,0.0,0.0,0.0,0.0,0.0,0.0,0.0,0.0,0.0,0.0,0.0,0.0,0.0,0.0,0.0,0.0,0.0,0.0,0.0,0.0,0.0,0.0,0.0,0.0,0.0,0.0,0.0,3.7263,3.7423,3.7498,3.7308,3.7023,3.6679,3.5768,3.5276,3.4955,3.3704,0.0,0.0,0.0,0.0,0.0,0.0,0.0,0.0,0.0,0.0,0.0,0.0,0.0,0.0,0.0,0.0,0.0,0.0,0.0,0.0,0.0,0.0,0.0,0.0,3.4481,3.4057,0.0,0.0,0.0,0.0,0.0,0.0,0.0,0.0,0.0,0.0,0.0,0.0,4.1438,4.2058,4.2024,4.0636,4.0385,4.0141,3.9696,3.9373,3.8585,3.7212,3.7,3.6022,0.0,0.0,0.0,0.0,0.0,0.0,0.0,0.0,0.0,0.0,0.0,0.0,0.0,0.0,0.0,0.0,0.0,0.0,0.0,0.0,0.0,0.0,0.0,0.0,0.0,0.0,0.0,0.0,0.0,0.0,0.0,0.0,3.4465,3.461,0.0,0.0,0.0,0.0,0.0,0.0,0.0,0.0,0.0,0.0,0.0,0.0,0.0,3.6783,3.7285,3.7538,3.7778,3.7915,3.8084,3.7919,3.753,3.8122,3.7942,3.7221,3.7575,0.0,3.5977,3.5379,0.0,0.0,0.0,0.0,0.0,0.0,0.0,0.0,0.0,0.0,0.0,0.0,0.0,0.0,0.0,0.0,0.0,0.0,0.0,0.0,0.0,0.0,3.598,3.6544,3.626,3.5996,0.0,3.5261,3.4377,3.494,3.6211,0.0,0.0,0.0,0.0,0.0,0.0,0.0,4.1094,4.1565,4.1562,4.0601,3.9945,3.9517,3.946,3.876,3.8046,3.7317,3.6555,3.588,3.5355,3.4401,0.0,0.0,0.0,0.0,0.0,0.0,0.0,0.0,0.0,0.0,0.0,0.0,0.0,0.0,0.0,0.0,0.0,0.0,0.0,0.0,0.0,0.0,0.0,0.0,0.0,0.0,0.0,0.0,0.0,3.5289,3.6027,3.6395,3.6294,3.6039,0.0,0.0,0.0,0.0,0.0,0.0,0.0,0.0,0.0,3.8396,3.8404,3.8588,3.8943,3.8926,3.9012,3.9161,3.8907,3.864,3.8366,3.8759,3.8727,3.8395,3.9079,3.8776,3.7641,3.6238,3.553,3.5214,0.0,0.0,0.0,0.0,3.3031,3.3184,3.3926,3.4246,0.0,3.4024,0.0,0.0,0.0,0.0,0.0,0.0,0.0,0.0,0.0,0.0,0.0,3.8028,3.7664,3.7238,3.7376,3.6678,3.6187,0.0,3.7466,3.8223,3.848,0.0,0.0,0.0,0.0,4.2099,4.1709,4.1633,4.1331,4.0521,3.9815,3.9228,3.8775,3.8315,3.7469,3.6196,3.5831,3.5268,3.4337,3.3772,3.264,0.0,0.0,0.0,0.0,0.0,0.0,0.0,0.0,0.0,0.0,0.0,0.0,0.0,0.0,0.0,0.0,0.0,0.0,0.0,0.0,0.0,0.0,0.0,0.0,0.0,0.0,0.0,0.0,3.6452,3.7125,3.7684,3.7831,3.7671,0.0,0.0,0.0,0.0,0.0,0.0,3.9177,3.9435,3.9696,4.006,3.9806,3.996,4.0594,4.023,4.0262,4.0673,4.0095,3.9724,3.9578,3.9698,3.9615,3.9441,4.018,3.9962,3.8998,3.7329,3.633,3.588,3.5518,3.5197,3.4922,3.4952,3.5069,3.537,3.6067,3.6275,3.6166,3.583,0.0,3.586,3.5205,0.0,0.0,0.0,0.0,3.7389,3.7669,3.8209,3.8764,3.9008,3.8673,3.8265,3.814,3.7997,3.7927,0.0,3.8381,3.8953,3.955,0.0,0.0,0.0,0.0,4.2356,4.1981,4.1601,4.1113,4.039,3.9779,3.9114,3.8254,3.7924,3.6978,3.5222,3.5198,3.4598,3.322,3.3212,3.2644,3.1368,0.0,0.0,0.0,0.0,0.0,0.0,0.0,0.0,0.0,0.0,0.0,0.0,0.0,0.0,0.0,0.0,0.0,0.0,0.0,0.0,0.0,0.0,0.0,0.0,0.0,0.0,0.0,0.0,0.0,3.7821,3.8057,0.0,0.0,0.0,0.0,3.8211,3.8781,3.9313,3.9844,4.0219,4.0649,4.1096,4.007,4.0369,4.2184,4.1422,4.1507,4.2457,4.1794,4.1374,4.1159,4.1206,4.0744,4.0012,4.0733,4.045,3.9454,3.9014,3.7782,3.6187,3.614,3.5904,3.5654,3.647,3.6956,3.7401,3.8464,3.807,3.7162,3.7464,3.7464,3.7461,3.8286,3.8763,0.0,0.0,3.9187,3.9527,3.9046,3.9077,3.9264,3.921,3.9161,3.9173,3.9292,3.932,3.9017,0.0,3.8523,3.9225,3.9933,0.0,4.1023,4.1384,4.1549,4.155,4.128,4.1121,4.0806,4.0189,3.9732,3.9136,3.8283,3.7672,3.665,3.4999,3.4854,3.4224,3.2781,3.3269,3.334,3.2792,3.2313,0.0,0.0,0.0,0.0,0.0,0.0,0.0,0.0,0.0,0.0,0.0,0.0,0.0,0.0,0.0,0.0,0.0,0.0,0.0,0.0,0.0,0.0,0.0,0.0,0.0,0.0,0.0,0.0,3.991,3.9522,0.0,3.9502,3.9151,3.902,3.932,3.9731,4.0203,4.0772,4.0619,4.0944,4.1939,4.12,4.1398,4.2598,4.2204,4.231,4.2899,4.1906,4.1511,4.1662,4.1103,4.0863,4.0921,4.1406,4.1278,4.0702,4.0306,3.9375,3.8199,3.8199,3.7919,3.751,3.79,3.7923,3.7839,3.8317,3.8043,3.7546,3.7763,3.773,3.7709,3.835,3.8575,3.8625,3.8786,3.8948,3.917,3.946,3.9371,3.9308,3.9592,3.9585,3.9511,3.9595,3.9732,3.978,3.9542,3.9798,4.0075,4.0259,4.114,4.1802,4.1787,4.21,4.2231,4.2004,4.1198,4.0431,3.9984,3.9159,3.8373,3.7701,3.7303,3.642,3.4812,3.463,3.3928,3.2427,3.2789,3.2264,3.0612,3.043,2.8941,0.0,0.0,0.0,0.0,0.0,0.0,0.0,0.0,0.0,0.0,0.0,0.0,0.0,0.0,0.0,0.0,0.0,0.0,0.0,0.0,0.0,0.0,0.0,0.0,0.0,0.0,4.0248,4.1381,4.0883,4.0544,4.0707,4.0233,4.0028,4.0359,4.0684,4.113,4.1694,4.1511,4.1771,4.263,4.218,4.2309,4.3054,4.3017,4.3076,4.3334,4.266,4.2453,4.2648,4.2088,4.2044,4.2446,4.2316,4.2252,4.2222,4.166,4.0971,4.0142,3.9297,3.8916,3.8818,3.8615,3.8642,3.8683,3.8305,3.808,3.7921,3.7955,3.7901,3.7931,3.8538,3.8781,3.891,3.9271,3.961,3.9955,4.0313,4.0316,4.0177,4.0079,3.9995,3.9965,4.0026,3.9969,4.0,4.0558,4.083,4.092,4.086,4.1658,4.2222,4.2035,4.2166,4.2213,4.2063,4.1279,4.0463,3.9659,3.8935,3.8106,3.7046,3.6859,3.6059,3.4343,3.4274,3.3565,3.191,3.2091,3.1349,2.9488,2.8665,2.6879,2.4058,0.0,0.0,0.0,0.0,0.0,0.0,0.0,0.0,0.0,0.0,0.0,0.0,0.0,0.0,0.0,0.0,0.0,0.0,0.0,0.0,0.0,0.0,0.0,3.9099,3.9781,4.079,4.1998,4.2045,4.1782,4.1309,4.0945,4.0913,4.1319,4.1645,4.2069,4.2582,4.2911,4.3097,4.3205,4.2946,4.307,4.3645,4.3859,4.3923,4.3892,4.4263,4.4385,4.4251,4.4203,4.4338,4.444,4.3401,4.3363,4.3952,4.3081,4.2491,4.19,3.9391,3.8885,3.9419,3.8559,3.9062,3.998,3.8609,3.8266,3.8387,3.8189,3.8148,3.8302,3.9143,3.9727,4.0211,4.0633,4.1438,4.2145,4.1753,4.1917,4.1879,4.0704,4.0393,4.0407,4.0626,4.0029,3.9819,4.1124,4.1513,4.164,4.1691,4.203,4.2199,4.2029,4.1633,0.0,4.1367,4.1353,4.0784,3.93,3.9145,3.8339,3.6445,3.6245,3.5466,3.3638,3.3725,3.3014,3.1168,3.1205,3.0759,2.9673,2.7268,2.4868,2.2518,0.0,0.0,0.0,0.0,0.0,0.0,0.0,0.0,0.0,0.0,0.0,0.0,0.0,0.0,0.0,0.0,0.0,0.0,0.0,0.0,0.0,3.8765,3.9696,3.9546,4.0725,4.1826,4.2456,4.1916,4.1687,4.215,4.1863,4.1805,4.2231,4.2422,4.258,4.2747,4.2432,4.2628,4.3466,4.2962,4.3434,4.5008,4.4972,4.5295,4.6052,4.5699,4.5564,4.5463,4.4737,4.4456,4.4473,4.4096,4.3978,4.4104,4.3622,4.3078,4.2497,4.146,4.0662,4.001,3.9474,3.9238,3.9122,3.8728,3.8644,3.8662,3.8473,3.8671,3.9082,3.9385,4.0075,4.0881,4.1576,4.2241,4.2741,4.2854,4.2349,4.1648,4.1181,4.0448,3.9934,3.9961,4.0068,4.0167,4.0337,4.1439,4.2154,4.1576,4.1711,4.1898,4.2049,4.1704,0.0,4.0823,4.0201,3.9359,3.8176,3.7646,3.7042,3.6178,3.5403,3.4578,3.3625,3.3103,3.2344,3.1298,3.11,2.9587,2.6502,2.358,2.162,0.0,0.0,0.0,0.0,0.0,0.0,0.0,0.0,0.0,0.0,0.0,0.0,0.0,0.0,0.0,0.0,0.0,0.0,0.0,0.0,0.0,0.0,4.0153,4.1305,4.1266,4.215,4.2862,4.2974,4.2815,4.2733,4.2735,4.2649,4.2597,4.2683,4.2844,4.2882,4.2735,4.2546,4.2803,4.345,4.3304,4.3881,4.5353,4.5393,4.5926,4.6904,4.6805,4.687,4.7,4.6115,4.5757,0.0,4.4873,4.4604,4.4824,4.4243,4.3642,0.0,0.0,0.0,0.0,0.0,3.9585,3.8987,3.903,3.9055,3.909,3.9142,3.9454,3.9799,3.976,4.0393,4.1257,4.1728,4.2395,4.2924,4.2841,4.2401,4.1798,4.1178,4.0592,4.014,4.0252,4.0192,4.0211,4.0488,4.1127,0.0,4.1295,4.1758,4.2129,4.198,4.148,4.0958,4.0645,3.98,3.8919,3.7963,3.7311,3.6489,3.5331,3.4721,0.0,0.0,0.0,3.1521,3.0472,2.9447,0.0,0.0,0.0,2.0429,1.9626,0.0,0.0,0.0,1.7243,1.6931,0.0,0.0,0.0,0.0,0.0,0.0,0.0,0.0,0.0,0.0,0.0,0.0,0.0,0.0,0.0,0.0,4.1953,4.3528,4.3544,4.3776,4.3803,4.3443,4.4106,4.4118,4.2897,4.3151,4.3254,4.2844,4.3079,4.3077,4.2823,0.0,0.0,0.0,0.0,4.4413,4.512,4.5631,4.6314,4.7176,4.772,4.8199,4.852,4.7853,4.7642,4.7634,4.581,4.5353,4.5798,4.4912,4.418,4.3503,4.1996,4.1683,4.1955,4.0918,4.0036,3.9362,3.9442,0.0,0.0,3.9876,4.0162,4.0377,4.0166,4.0833,4.1628,4.1594,4.2341,4.303,4.2363,4.2325,4.2177,4.1071,4.0744,4.0729,4.0816,4.027,4.0023,4.0944,4.0717,4.0517,4.0916,4.192,4.2452,4.1729,4.1114,4.0688,4.0462,3.9802,3.8992,3.8076,0.0,0.0,3.4473,3.4091,3.3241,3.1633,3.1373,3.0624,2.9076,2.7078,2.5453,2.4173,2.2149,2.0414,1.9054,1.8739,1.8251,1.7561,1.7661,1.767,0.0,0.0,0.0,0.0,0.0,0.0,0.0,0.0,0.0,0.0,0.0,0.0,0.0,0.0,0.0,4.0895,4.2268,4.3493,4.4334,4.4737,4.4556,4.3525,4.3793,4.3527,4.2147,4.2901,4.3334,4.2977,4.315,4.3478,4.3938,4.3379,4.3394,4.4092,4.4379,4.5031,4.6045,4.7037,4.796,4.8829,0.0,0.0,4.8821,4.8573,4.829,4.7967,4.7212,4.6654,4.6328,4.5761,4.4859,4.3685,4.2228,4.1475,4.1196,4.0867,4.0512,4.0197,3.9858,3.9852,3.989,3.9249,3.9648,4.0347,4.0183,4.1425,0.0,4.2666,4.3379,4.4073,4.3596,4.309,4.2544,4.1841,4.1154,4.0498,4.0046,3.9936,3.9966,4.0023,4.0459,4.083,4.0773,4.1085,4.1324,4.117,4.1043,4.0464,3.9103,3.8976,3.8377,3.6699,3.6062,3.5521,3.4967,3.3434,3.2423,3.2215,3.0881,2.9498,2.8136,2.65,2.4711,2.2752,2.124,1.9928,1.8777,1.8333,1.8054,1.788,1.7315,1.7067,0.0,0.0,0.0,0.0,0.0,0.0,0.0,0.0,0.0,0.0,0.0,3.6654,3.8156,0.0,4.06,4.2121,4.3121,4.4026,4.4842,4.5097,4.4772,4.3635,4.4018,4.3934,4.2747,4.3622,4.4166,4.4026,4.4078,4.4344,4.4781,4.4154,4.415,4.4903,4.5111,4.5794,4.7096,4.7475,4.8283,4.9437,4.9529,4.9566,4.9589,4.9158,4.8839,4.857,4.7559,4.6877,4.6404,4.5432,4.4685,4.3997,4.2937,4.224,4.1789,4.1283,4.0969,4.0746,4.0426,4.0493,4.0641,4.0218,4.0942,4.1851,4.0998,4.1806,4.2889,4.2318,4.2456,4.2685,4.2348,4.2119,4.1866,4.1381,4.1012,4.0628,4.0251,4.0054,3.9966,3.9892,4.0213,4.0459,4.0343,4.0416,4.0674,4.1114,4.0675,3.9957,3.9131,3.8269,3.7332,3.6321,3.5346,3.4459,3.3655,3.1842,3.0795,3.0887,2.9899,2.8791,2.7678,2.6277,2.4497,2.236,2.118,1.9934,1.8571,1.8161,1.7951,1.7853,1.729,1.7044,0.0,0.0,0.0,0.0,0.0,0.0,0.0,3.3833,3.441,3.5655,3.6101,3.7019,3.9413,4.0311,4.1215,4.2935,4.3767,4.4409,4.4992,4.5034,4.4678,4.372,4.4303,4.4432,4.354,4.43,4.486,4.4916,4.4923,4.5072,4.5359,4.4946,4.4959,4.5676,4.5886,4.6498,4.771,4.7661,4.8285,4.9557,4.9637,4.9852,5.0191,4.9674,4.9365,4.9208,4.7571,4.6626,4.6103,4.4803,4.4281,4.4166,4.3488,4.305,4.267,4.1938,4.158,4.1468,4.1196,4.1306,4.1567,4.1625,4.2367,4.307,4.1881,4.2095,4.2539,4.1553,4.1242,4.1169,4.0812,4.1054,4.1242,4.0676,4.0748,4.0852,4.0408,4.0134,3.9996,3.9996,4.0053,4.0053,3.9996,3.9899,4.009,4.0774,4.0055,3.927,3.8949,3.7495,3.6385,3.5987,3.4872,3.3619,3.2219,3.0628,2.9582,2.9353,2.887,2.8171,2.7139,2.5856,2.4158,2.1991,2.1138,1.9921,1.8273,1.7991,1.7749,1.7497,1.7131,1.7057,3.2896,3.2919,3.3128,3.2919,3.2983,3.3308,0.0,3.4773,3.5526,3.6405,3.7773,3.892,3.9313,4.0387,4.1566,4.2685,4.3189,4.3698,4.4542,4.4526,4.4205,4.3652,4.4059,4.4082,4.3382,4.3963,4.4434,4.4625,4.4659,4.4927,4.5517,4.5171,4.5238,4.5945,4.6523,4.6928,4.7087,4.8235,4.8984,4.9356,4.9677,4.9876,4.9955,5.0104,4.9939,4.9488,4.7856,4.6367,4.5058,4.4504,4.4205,4.3988,4.329,4.2996,4.2941,4.264,4.2749,4.2971,4.2338,4.2295,4.2539,4.2501,4.2344,4.2136,4.1994,4.2391,4.2589,4.1154,4.1387,4.1879,4.1068,4.1503,4.1863,4.0536,4.0653,4.0762,3.9675,3.9744,3.9996,3.9996,4.0198,4.0298,4.0053,3.9554,3.9166,3.9109,3.9139,3.8528,3.6861,3.6479,3.5905,3.4763,3.4301,3.3558,3.2215,3.1258,3.0281,2.9194,2.8383,2.7261,2.5777,2.4587,2.2965,2.0838,2.0319,1.9344,1.7781,1.7587,1.7229,1.6812,1.6558,1.6476,3.3207,3.2972,3.2978,3.3345,3.3612,3.408,3.5253,3.5796,3.635,3.7556,3.8606,3.9499,4.0117,4.0794,4.1651,4.2886,4.2844,4.3008,4.4052,4.3825,4.3472,4.326,4.3793,4.3953,4.3534,4.4225,4.4837,4.5178,4.5548,4.6017,4.6574,4.6263,4.6334,4.6746,4.7301,4.7665,4.7915,4.8496,4.9128,4.9892,4.9637,4.9773,5.0129,5.0089,4.941,4.8208,4.7403,4.6075,4.4465,4.3927,4.3747,4.3684,4.293,4.2662,4.2692,4.2966,4.2969,4.2823,4.231,4.235,4.256,4.2034,4.2137,4.2458,4.2207,4.239,4.2474,4.1569,4.1522,4.1645,4.1306,4.13,4.128,4.0838,4.0648,4.049,4.0123,4.0052,3.9996,3.9996,3.998,3.9906,3.9659,3.8877,3.8144,3.772,3.754,3.7175,3.6424,3.5562,3.4356,3.2651,3.2201,3.1348,2.9735,2.908,2.8409,2.7649,2.704,2.608,2.4723,2.4053,2.2695,2.0656,2.0108,1.9128,1.77,1.7221,1.6779,1.6335,1.6105,1.5775,3.3671,3.3322,3.3139,3.3745,3.4121,3.4678,3.5945,3.6443,3.6993,3.8237,3.9109,3.9852,4.0489,4.0979,4.1579,4.2669,4.2502,4.2531,4.3449,4.318,4.2949,4.3086,4.3586,4.3906,4.3868,4.4676,4.5308,4.5639,4.6226,4.6727,4.7077,4.7106,4.7193,4.7396,4.7837,4.8202,4.8537,4.8578,4.9031,4.9947,4.9533,4.9503,4.9804,4.9284,4.8271,4.6905,4.6523,4.5493,4.402,4.3771,4.3688,4.3653,4.3256,4.3001,4.2909,4.3509,4.3197,4.2482,4.2293,4.2442,4.2646,4.2368,4.2584,4.2899,4.2642,4.2538,4.2345,4.175,4.1589,4.1472,4.1156,4.1065,4.0978,4.0701,4.0375,4.0101,4.0236,3.996,3.9733,3.9777,3.9615,3.9353,3.8853,3.7975,3.7113,3.6313,3.5677,3.5378,3.5656,3.4351,3.2739,3.094,3.0314,2.9439,2.8052,2.7406,2.6876,2.6348,2.5777,2.4925,2.3695,2.3123,2.2068,2.0374,1.9697,1.8737,1.7538,1.6982,1.6508,1.6023,1.575,1.533,3.4457,3.4365,3.4061,3.4077,3.4391,3.488,3.5638,3.6564,3.7453,3.8091,3.9322,4.0196,3.9959,4.0721,4.1445,4.16,4.2008,4.2395,4.2666,4.2729,4.2842,4.324,4.3566,4.3939,0.0,4.5186,4.5654,4.5898,4.6314,4.6594,4.6639,4.7236,4.7581,4.7581,4.8049,4.8286,4.8286,4.8495,4.8759,4.9037,4.921,4.9068,4.8624,4.7488,4.6633,4.5928,4.5321,4.4546,4.3775,4.4338,4.4312,4.405,4.4674,4.449,4.3964,4.4589,4.3777,4.2367,4.2732,4.2885,4.3097,4.4316,4.3979,4.3134,4.3378,4.2963,4.2219,4.1379,4.153,4.1748,4.0635,4.1153,4.1538,3.9914,3.9666,3.972,3.941,3.9114,3.8997,3.9247,3.91,3.86,3.7639,3.6937,3.6127,3.4834,3.3611,3.3129,3.4059,3.2729,3.1245,3.0053,2.9248,2.8641,2.8296,2.7373,2.6513,2.5859,2.4978,2.3868,2.2585,2.1545,2.0555,1.9647,1.8855,1.8,1.7139,1.6889,1.6468,1.5899,1.5627,1.5282,3.3942,3.4015,3.4214,3.47,3.4966,3.5437,3.6751,3.7252,3.7603,3.8144,3.8946,3.9534,3.9454,3.9729,4.0297,4.1428,4.1267,4.1371,4.2353,4.224,4.2065,4.2199,4.3235,4.3919,4.395,0.0,0.0,4.6091,4.6535,4.6931,4.7236,4.7467,4.7666,4.7837,4.8175,4.8469,4.8774,4.8676,4.8757,4.9135,4.8623,4.8083,4.7497,4.6799,4.6006,4.5102,4.472,4.4237,4.3719,4.3942,4.4161,4.4408,4.4334,4.4079,4.3675,4.3614,4.2986,4.2331,4.3071,4.3192,4.3094,4.3546,4.3142,4.2624,4.3356,4.2987,4.2289,4.2092,4.1902,4.1652,4.1246,4.0622,3.9994,3.9746,3.9207,3.877,3.8822,3.8769,3.8501,3.7864,3.7695,3.7243,3.5897,3.5079,3.3991,3.2228,3.1974,3.1984,3.1952,3.0937,2.9878,2.8999,2.8214,2.714,2.5615,2.5094,2.4318,2.3144,2.2926,2.2397,2.1546,2.0817,2.0102,1.9328,1.7978,1.7009,1.6427,1.5928,1.5497,1.5231,1.4957,1.4776,3.432,3.4356,3.4488,3.5275,3.561,3.5968,3.6986,3.7356,3.7508,3.7478,3.8194,3.8753,3.8496,3.8913,3.9697,4.0942,4.0934,4.1069,4.2027,4.1966,4.1886,4.2019,4.3226,4.4037,4.4211,4.5172,4.5903,4.6181,4.6785,4.7236,4.7467,4.7709,4.788,4.8007,4.8244,4.8388,4.8379,4.8307,4.836,4.8639,4.7832,4.7177,4.6707,4.6009,4.5162,4.4213,4.437,4.4157,4.3829,4.4246,4.459,4.496,4.4937,4.4588,4.4117,4.379,4.3339,4.2892,4.323,4.31,4.2865,4.3282,4.2972,4.2542,4.3277,4.2972,4.2317,4.2073,4.17,4.125,4.068,3.9826,3.9111,3.9188,3.8673,3.8167,3.8512,3.8022,3.7384,3.6845,3.6328,3.557,3.434,3.3065,3.1624,2.984,2.9602,2.9737,2.9861,2.9236,2.8396,2.7337,2.6682,2.5561,2.3777,2.327,2.2526,2.1293,2.1463,2.123,2.0293,1.9904,1.9374,1.865,1.7232,1.6299,1.5863,1.5382,1.5112,1.5014,1.459,1.4449,3.5561,3.5379,3.4883,3.583,3.6233,3.6409,3.6442,3.701,3.7253,3.6281,3.7216,3.8013,3.7313,3.8359,3.9586,4.029,4.0944,4.1426,4.1728,4.1997,4.2285,4.271,4.3516,4.4356,4.5201,4.5874,0.0,4.6254,0.0,4.751,4.7381,4.7964,4.8218,4.8049,4.8412,4.8188,4.738,4.7497,4.7573,4.7496,4.688,4.6469,4.6167,4.5102,4.4163,4.3424,4.4241,4.4421,4.4157,4.5175,4.5592,4.5696,4.6314,4.5927,4.5078,4.5078,4.4616,4.3904,4.332,4.2749,4.2443,4.3612,4.3396,4.2816,4.319,4.2908,4.2288,4.1421,4.098,4.0434,3.9032,3.8824,3.884,3.8286,3.7985,3.7939,3.8336,3.6922,3.5642,3.5965,3.4861,3.3554,3.2771,3.0969,2.9182,2.7766,2.6695,2.6532,2.78,2.7511,2.669,2.5277,2.4666,2.3954,2.2794,2.205,2.1204,2.0294,2.0628,2.0292,1.8953,1.8837,1.8394,1.754,1.6513,1.5829,1.5425,1.5208,1.5194,1.5239,1.4546,1.4327,3.5629,3.5684,3.5807,3.6485,3.6606,3.6633,3.7058,3.761,3.7845,3.7186,3.7747,3.8387,3.8473,3.8457,3.892,4.0386,4.0524,4.0916,4.2248,4.2479,4.2752,4.3315,4.4139,4.4763,4.4967,4.6356,4.7106,0.0,4.7121,4.7639,4.8244,4.8286,4.8328,4.8453,4.8537,4.8486,4.8275,4.7809,4.7015,4.5874,4.6156,4.5768,4.4815,4.4859,4.4656,4.43,4.4499,4.4838,4.5176,4.5156,4.5502,4.6035,4.5727,4.5311,4.4876,4.463,4.4195,4.3648,4.3367,4.3263,4.3355,4.3829,4.3592,4.3115,4.3039,4.2465,4.1689,4.1059,4.0014,3.8947,3.8493,3.7762,3.7147,3.732,3.6909,3.6407,3.6117,3.5208,3.4129,3.2889,3.1263,2.9792,2.8865,2.8004,2.6988,2.5788,2.4952,2.4736,2.5594,2.5143,2.4516,2.3994,2.3324,2.2508,2.1535,2.0799,2.0121,1.95,1.9271,1.9047,1.883,1.8008,1.7288,1.6731,1.5475,1.4718,1.4459,1.4327,1.4429,1.475,1.4389,1.4153,3.6305,3.6454,3.6612,3.7194,3.713,3.6945,3.7157,3.7496,3.7574,3.6817,3.7424,3.8193,3.8512,3.8103,3.8407,4.0402,4.0307,4.0458,4.1949,4.2636,4.3137,4.3485,4.4501,4.5317,4.5678,4.666,4.7322,4.7366,4.7624,4.788,4.816,4.816,4.816,4.816,4.816,4.8023,4.7733,4.7491,4.6732,4.5614,4.5875,4.5561,4.4751,4.4932,4.486,4.4678,0.0,4.5414,4.5335,4.5176,4.5446,4.5903,4.5347,4.4948,4.4647,4.4266,4.3882,4.3454,4.283,4.2677,4.2828,4.3497,4.3224,4.2664,4.2709,4.1874,4.0808,4.0254,3.8862,3.7495,3.7492,3.6761,3.6061,3.6178,3.566,3.4974,3.4337,3.3161,3.1691,2.9698,2.8468,2.7405,2.6279,2.5691,2.4951,2.3784,2.3125,2.2674,2.2565,2.2941,2.3076,2.2754,2.2056,2.1293,2.0393,1.9583,1.895,1.8589,1.8303,1.8164,1.8125,1.7296,1.6551,1.5976,1.4836,1.4143,1.3818,1.3756,1.3943,1.4264,1.3907,1.3616,3.7216,3.731,3.7247,3.7604,3.7439,3.7069,3.6694,3.6956,3.7041,3.6028,3.6936,3.7972,3.8118,3.7879,3.8318,4.0426,4.0302,4.0392,4.1492,4.2773,4.3644,4.3759,4.503,4.6113,4.6765,4.6978,4.7307,4.788,4.8133,4.8076,4.7666,4.7837,4.7837,4.7596,4.7405,4.7089,4.656,4.6743,4.6494,4.5895,4.583,4.5668,4.5397,4.5236,4.5084,4.503,4.6108,0.0,4.5149,4.5242,4.5389,4.5489,4.4938,4.4586,4.4305,4.3783,4.3375,4.297,4.1984,4.1548,4.1604,4.2596,4.2378,4.176,4.1976,4.1018,3.9747,3.9055,3.756,3.6149,3.5991,3.5556,3.5041,3.4607,3.3995,3.3267,3.2539,3.0746,2.8672,2.6589,2.6197,2.575,2.4263,2.3717,2.3047,2.1777,2.1309,2.0689,1.9633,2.1015,2.1845,2.131,2.0683,2.0014,1.9327,1.8365,1.7807,1.7675,1.7466,1.7318,1.7138,1.6551,1.5934,1.519,1.4356,1.3735,1.3385,1.3385,1.349,1.3757,1.3212,1.2776,3.7462,3.7605,3.7443,3.6809,3.6603,3.6292,3.5308,3.6289,3.7198,3.6656,3.7895,3.9074,3.8948,3.9166,3.9595,4.0329,4.0695,4.1366,4.2755,4.3849,4.4805,4.5704,4.6678,4.7357,4.7667,4.7916,4.7949,0.0,4.7922,4.8007,4.7922,4.7752,4.7596,4.7337,4.644,4.604,4.6277,4.5979,4.5709,4.5432,4.6142,4.6251,4.589,4.5961,4.6109,4.627,4.6491,0.0,4.5943,4.5505,4.5282,4.5161,4.421,4.3572,4.3144,4.2638,4.2048,4.1437,4.1017,4.0777,4.0683,4.1046,4.0975,4.0578,3.9761,3.9115,3.8507,3.7511,3.6185,3.4823,3.379,3.3141,3.2586,3.1644,3.0893,3.0133,2.9633,2.7614,2.556,2.4217,2.4032,2.3558,2.1833,2.1684,2.1272,1.9619,1.9674,1.9666,1.9012,1.9766,1.9949,1.8991,1.8811,1.8547,1.8,1.7072,1.6756,1.7333,1.6379,1.6001,1.6379,1.5431,1.4705,1.4158,1.334,1.2928,1.2819,1.2678,1.2733,1.2996,1.2506,1.1791,3.8021,3.8016,3.7613,3.6855,3.6324,3.5761,3.4856,3.5536,3.6379,3.6529,3.7783,3.9023,3.9542,3.9447,3.9635,4.0739,4.0716,4.1139,4.2749,4.4167,4.5311,4.6206,4.7369,4.8202,4.8453,4.837,4.816,4.7837,4.7709,4.7581,4.7452,4.6975,4.6668,4.655,4.605,4.5786,4.583,4.5874,4.552,4.479,4.5535,4.5476,4.4818,4.5182,4.5609,4.6049,4.5594,0.0,4.5302,4.4567,4.4202,4.3978,4.3485,4.2926,4.2373,4.1917,4.1335,4.0658,3.9903,3.9336,3.8908,3.8689,3.9103,3.9514,3.8743,3.7801,3.6863,3.621,3.4924,3.3514,3.2449,3.1865,3.1208,2.9832,2.8375,2.7062,2.6247,2.4986,2.3563,2.2191,2.19,2.1369,1.9732,1.9587,1.9373,1.8381,1.8581,1.8681,1.8272,1.8295,1.8386,1.829,1.7911,1.7411,1.6872,1.5966,1.5615,1.6143,1.5194,1.4867,1.5391,1.464,1.3985,1.3479,1.2854,1.2332,1.1988,1.178,1.1568,1.1414,1.1006,1.0281,3.8455,3.8225,3.761,3.6805,3.6071,3.5335,3.4734,3.4982,3.5614,3.6508,3.7603,3.868,3.9684,3.9417,3.9563,4.1077,4.0846,4.1032,4.2687,4.4396,4.5671,4.6278,4.7773,4.8785,4.8898,4.8635,4.8343,4.8091,4.7417,4.6913,4.6697,4.6194,4.5835,4.5745,4.557,4.5465,4.5398,4.5721,4.5376,4.4384,4.488,4.4688,4.384,4.4257,4.4771,4.5255,4.4599,0.0,0.0,4.3694,4.3246,4.304,4.2807,4.2267,4.1578,4.1054,4.0477,3.9794,3.8794,3.7872,3.7093,3.6622,3.7263,3.8059,3.7492,3.6431,3.5308,3.4634,3.3373,3.1956,3.0813,3.0199,2.9511,2.7721,2.5933,2.4331,2.3277,2.2661,2.1844,2.0337,1.987,1.9299,1.7989,1.7789,1.7688,1.7426,1.766,1.7761,1.7488,1.7052,1.6961,1.7598,1.6975,1.6248,1.5681,1.4886,1.4573,1.4813,1.4142,1.3913,1.4352,1.3913,1.3431,1.2847,1.233,1.1795,1.1194,1.0798,1.0334,0.9819,0.9386,0.8619,3.8367,3.797,3.7236,3.6031,3.547,3.5112,3.4707,3.4924,3.5674,3.7258,3.8002,3.8581,3.9096,3.9617,4.024,4.0988,4.1381,4.2036,4.3412,4.4951,4.6092,4.6508,4.8153,4.9072,4.8661,4.8816,4.8733,4.8301,4.6951,4.6061,4.5986,4.5925,4.57,4.517,4.4431,4.4357,4.5124,4.4883,4.4686,4.457,4.482,4.469,4.4262,4.4108,4.418,4.4439,4.4323,0.0,0.0,4.3787,4.3474,4.3154,4.2224,4.1278,4.0385,3.9714,3.8926,3.8109,3.8011,3.6998,3.5755,3.5722,3.5783,3.5754,3.4965,3.4662,3.4202,3.2284,3.1135,2.9923,2.7781,2.6844,2.601,2.4204,2.3226,2.2508,2.1544,2.0725,1.9789,1.8583,1.8016,1.7534,1.6864,1.6779,1.6711,1.6401,1.6784,1.7019,1.673,1.6251,1.5799,1.5621,1.539,1.4937,1.4058,1.3767,1.3727,1.3998,1.348,1.3195,1.3244,1.3001,1.2651,1.2091,1.1398,1.1005,1.091,0.9899,0.9247,0.8996,0.7939,0.6902,3.8686,3.7895,3.6669,3.5908,3.5075,3.4475,3.468,3.4562,3.506,3.7361,3.7809,3.8088,3.9107,3.9488,3.9839,4.0419,4.0541,4.1128,4.2689,4.4252,4.554,4.6502,4.8088,4.8965,4.862,4.8469,4.7882,4.661,4.5313,4.4313,4.3712,4.3951,4.4122,4.4128,4.3779,4.3963,4.4676,4.4528,4.426,4.3771,4.4233,4.395,4.3,4.3252,4.3426,4.3482,4.3118,0.0,0.0,4.3224,4.2802,4.2603,4.1822,4.0869,3.9779,3.9114,3.8227,3.7293,3.6687,3.5584,3.4364,3.4071,3.3469,3.2845,3.3047,3.2646,3.1775,3.0031,2.9176,2.8279,2.5833,2.4295,2.3066,2.2088,2.1174,2.0263,1.9357,1.8594,1.7775,1.6961,1.6535,1.6094,1.5538,1.5695,1.5761,1.5376,1.5886,1.6258,1.6116,1.5248,1.4483,1.4028,1.3921,1.3742,1.335,1.2901,1.271,1.2996,1.2657,1.2419,1.2419,1.2224,1.1878,1.1541,1.0654,0.9975,0.9492,0.8262,0.7266,0.6532,0.5369,0.4388,3.9041,3.8185,3.6911,3.6508,3.5498,3.4732,3.5291,3.4909,3.513,3.7545,3.7858,3.8048,3.9215,3.946,3.9582,3.9943,3.9972,4.056,4.2162,4.356,4.4923,4.6243,4.7447,4.8234,4.8379,4.798,4.7036,4.5442,4.4123,4.3069,4.2203,4.2211,4.2493,4.2964,4.3157,4.3512,4.4144,4.4007,4.3641,4.3046,4.3421,4.3027,4.1899,4.2388,4.2702,4.2896,4.2322,0.0,0.0,4.247,4.1989,4.2012,4.1165,4.0081,3.8924,3.8434,3.7458,3.6334,3.5519,3.432,3.31,3.2816,3.1454,3.0057,3.0519,3.0335,2.9552,2.7862,2.6633,2.5365,2.3497,2.1794,2.0506,2.0146,1.9188,1.8182,1.7612,1.6773,1.6052,1.5528,1.5127,1.4709,1.4386,1.4509,1.458,1.4586,1.4968,1.5201,1.5003,1.4046,1.3022,1.2285,1.2091,1.2131,1.231,1.1976,1.1785,1.1834,1.158,1.1336,1.1189,1.0993,1.0748,1.04,0.9582,0.8816,0.8138,0.6744,0.5603,0.474,0.347,0.2274,3.9426,3.9069,3.8294,3.7949,3.7017,3.6285,3.6778,3.6267,3.621,3.8023,3.8377,3.8601,3.929,3.9553,3.9727,3.9809,4.0137,4.0846,4.2209,4.3169,4.4239,4.5742,4.6172,4.673,4.7784,4.7344,4.652,4.5387,4.3902,0.0,4.2022,4.1211,4.106,4.1763,4.2345,4.2879,4.3497,4.309,4.2794,4.2615,4.2392,4.1981,4.1396,4.1633,4.2075,0.0,0.0,0.0,0.0,4.165,4.1186,4.1567,4.0011,3.864,3.7526,3.7439,3.6441,3.506,3.4577,3.339,3.214,3.2207,3.0106,2.7468,2.724,2.7698,2.7883,2.5846,2.3144,2.0748,2.0251,1.9287,1.8372,1.8072,1.7197,1.643,1.64,1.5588,1.4752,1.4491,1.375,1.3281,1.3465,1.3087,1.3093,1.4154,1.41,1.3709,1.3216,1.249,1.1507,1.0173,0.9792,0.9953,1.0748,1.1047,1.0998,1.0462,1.0154,0.9805,0.9266,0.9213,0.8966,0.8464,0.8028,0.7566,0.703,0.5553,0.4602,0.4157,0.2547,0.0891,3.8919,3.8227,3.7235,3.6674,3.5749,3.5141,3.5844,3.5868,3.6225,3.8023,3.8392,3.8672,3.9626,3.9732,3.9871,4.0351,4.0397,4.0861,4.2201,4.3043,4.4043,4.5511,4.629,4.6545,4.6152,4.5406,4.4552,4.3606,4.2209,4.1184,4.0665,4.0354,4.0544,4.1156,4.1538,4.2069,4.2865,4.2579,4.2345,4.2188,4.228,4.1981,4.1396,4.1619,4.1827,0.0,0.0,0.0,0.0,4.1605,4.1423,4.1833,3.9788,3.8531,3.7768,3.6683,3.5359,3.4002,3.333,3.1779,3.0086,2.9761,2.7764,2.5325,2.4506,2.4812,2.4932,2.2588,2.0171,1.8253,1.7945,1.7029,1.6212,1.61,1.5407,1.4562,1.3796,1.3275,1.2701,1.2071,1.157,1.1353,1.1624,1.1517,1.1468,1.1609,1.1853,1.195,1.156,1.0373,0.9284,0.8696,0.7552,0.7555,0.9304,0.9854,0.9957,0.9612,0.9513,0.9213,0.8665,0.8322,0.7925,0.7571,0.6539,0.5827,0.5475,0.3917,0.2366,0.0833,-0.0193,-0.1359,3.8642,3.8239,3.7525,3.6878,3.5968,3.5399,3.5834,3.616,3.6592,3.7514,3.8063,3.8632,3.935,3.9038,3.8981,4.004,4.0066,4.0472,4.1941,4.2629,4.3407,4.4488,4.5537,4.57,4.4448,4.3997,4.3294,4.2166,4.1199,4.0487,4.0039,4.017,4.035,4.0548,4.0884,4.1455,4.2219,4.1847,4.1695,4.1833,4.1737,4.154,4.1241,4.1395,4.1646,0.0,0.0,0.0,0.0,4.0895,4.0704,4.1302,3.8842,3.7689,3.7225,3.5657,3.4193,3.2906,3.2136,3.0456,2.8488,2.7778,2.5185,2.2129,2.0855,2.1094,2.1419,1.969,1.7782,1.6205,1.5953,1.502,1.4102,1.4155,1.3385,1.247,1.191,1.1368,1.0792,1.0137,0.9891,0.9797,0.9891,0.9895,0.9788,0.9383,0.9784,0.9735,0.8682,0.7944,0.7105,0.6161,0.5413,0.5513,0.6716,0.771,0.8262,0.8269,0.8021,0.7624,0.7226,0.6781,0.641,0.6114,0.5225,0.4516,0.399,0.2318,0.0638,-0.1117,-0.1918,-0.2828,0.0,3.876,3.8705,3.8038,3.7252,3.6586,3.6469,3.6959,0.0,3.6705,3.7638,3.8572,3.8797,3.7824,3.7564,3.9301,3.9424,3.9837,4.1475,4.2159,4.268,4.3081,4.4282,4.4433,4.2868,4.3096,4.2686,4.1086,4.0802,4.0487,3.9996,4.0386,4.0443,3.9996,4.043,4.0925,4.1501,4.0939,4.0939,4.1545,4.0969,4.0816,4.1043,4.0944,4.1407,0.0,0.0,0.0,0.0,3.9736,3.9304,3.9989,3.7377,3.632,3.6071,3.4377,3.2982,3.1751,3.0951,2.9299,2.7283,2.5828,2.2224,1.8191,1.6553,1.6848,1.7584,1.7002,1.5705,1.4418,1.4145,1.3055,1.2001,1.2124,1.1168,1.0288,1.0485,0.9752,0.8966,0.8658,0.8559,0.846,0.8216,0.8166,0.7958,0.744,0.7803,0.731,0.5055,0.5361,0.5018,0.302,0.3419,0.372,0.3527,0.4972,0.6121,0.6628,0.5977,0.5425,0.5129,0.487,0.4529,0.4208,0.3955,0.334,0.2476,0.0808,-0.0665,-0.1951,-0.2754,-0.3651,3.7452,0.0,3.746,3.6789,3.6275,3.5929,0.0,3.6782,3.7628,3.7631,3.8709,3.9753,4.0209,3.8972,3.8677,4.1082,4.073,4.0507,4.1505,4.2925,4.396,4.4197,4.508,4.4946,4.3095,4.2754,4.2125,4.0873,4.0545,4.0286,3.9996,3.998,3.9936,3.9996,4.0126,4.0239,4.0392,4.0253,4.0485,4.1142,4.0844,4.0915,4.1283,4.0631,4.0418,0.0,0.0,0.0,3.9929,3.9813,3.9394,3.8674,3.6865,3.6047,3.5575,3.3313,3.1719,3.0604,2.9939,2.7906,2.4919,2.1114,1.7927,1.5287,1.3588,1.3825,1.4485,1.3734,1.2524,1.1334,1.0839,0.9892,0.9099,0.9545,0.9076,0.8453,0.811,0.7865,0.7422,0.6528,0.6029,0.5779,0.5927,0.5627,0.5275,0.5172,0.5422,0.5372,0.4574,0.4123,0.3673,0.3172,0.2368,0.2068,0.2622,0.4175,0.5125,0.5284,0.5064,0.473,0.4292,0.399,0.3566,0.307,0.2315,0.132,0.0095,-0.0831,-0.1923,-0.3208,-0.3934,-0.4849,3.6984,3.7204,3.7244,3.6505,3.6179,3.6053,3.5943,3.668,3.7404,3.7506,3.8409,3.9387,4.0087,3.8971,3.8646,4.0731,4.0328,4.0181,4.1473,4.2511,4.3331,4.3912,4.3971,4.3633,0.0,4.2034,4.1283,4.043,4.0243,4.0069,3.9892,3.9747,3.9703,3.9848,3.9747,3.9777,3.9996,3.9996,4.017,4.0545,4.0573,4.0476,4.0308,3.9971,3.9703,0.0,0.0,0.0,3.8734,3.8806,3.8239,3.7186,3.5617,3.4727,3.4041,3.1779,3.0143,2.9013,2.8154,2.5284,2.1248,1.7167,1.4324,1.2224,1.0852,1.0317,1.0285,1.0826,1.0145,0.9118,0.8436,0.7855,0.7515,0.7664,0.7369,0.6924,0.6376,0.6077,0.5577,0.4531,0.418,0.3977,0.3775,0.3572,0.3271,0.2668,0.3019,0.3019,0.2115,0.1964,0.1813,0.1562,0.1211,0.1207,0.1645,0.2734,0.359,0.4029,0.391,0.3674,0.3283,0.2986,0.2421,0.1645,0.0949,-0.009,-0.1529,-0.2152,-0.3163,-0.4453,-0.5074,-0.5841,3.6686,3.7157,3.7266,3.6507,3.6276,3.6229,3.6058,3.6525,3.7021,3.7195,3.7918,3.8754,3.9591,3.8576,3.8174,3.9832,3.9433,3.9572,4.162,4.1735,4.2041,4.32,4.2518,0.0,4.2143,4.1269,4.0487,4.0009,3.9966,3.9834,3.9642,3.9505,3.9451,3.9519,3.9271,3.9305,3.9603,3.9729,3.9814,3.9901,4.0059,3.9783,3.9087,3.9214,3.9061,3.8611,0.0,0.0,3.7805,3.7282,3.6517,3.5585,3.4055,3.3014,3.2102,3.008,2.8493,2.707,2.5433,2.1752,1.7242,1.3927,1.1324,0.9284,0.821,0.6948,0.6153,0.7686,0.7655,0.706,0.6503,0.6197,0.6077,0.6077,0.5784,0.5336,0.4931,0.4377,0.3676,0.2724,0.2671,0.2571,0.1866,0.1915,0.1611,0.0454,0.0908,0.0858,-0.0555,-0.0101,0.0151,-0.0353,0.0303,0.0751,0.059,0.1128,0.1824,0.2499,0.2505,0.2375,0.2072,0.1708,0.1071,0.0137,-0.0347,-0.1331,-0.2806,-0.3453,-0.4417,-0.5714,-0.616,-0.6691,3.6086,3.6293,3.6101,3.5538,3.5309,3.5231,3.5185,3.6127,3.7225,3.8102,3.9171,4.0159,4.0761,3.8928,3.8175,4.0696,4.003,4.0044,4.2448,4.1907,4.1842,4.3352,0.0,4.2684,4.1563,4.1001,4.0443,3.9774,3.9744,3.9642,3.9394,3.8874,3.8589,3.8602,3.8559,3.8315,3.7898,3.8388,3.8922,3.9493,3.9193,3.9003,3.8918,3.8575,3.8007,3.7277,0.0,3.6341,3.5845,3.5937,3.5157,3.3884,3.2854,3.1746,3.0535,2.8549,2.6816,2.481,2.0609,1.7267,1.4372,1.1636,0.9099,0.6863,0.5586,0.4697,0.3991,0.3132,0.3369,0.4074,0.4595,0.3768,0.3073,0.4383,0.383,0.2975,0.3126,0.2571,0.1915,0.1513,0.111,0.0808,0.0656,0.0505,0.0202,-0.0202,0.0,0.005,-0.0404,-0.0151,-0.005,-0.0354,0.0303,0.0451,-0.0393,0.0245,0.039,-0.0288,0.0566,0.0919,0.0488,-0.0177,-0.0742,-0.1195,-0.1975,-0.2981,-0.4175,-0.4985,-0.599,-0.7177,-0.7404,-0.7713,3.5205,3.535,3.5233,3.4892,3.5093,3.5324,3.5064,3.5253,3.5802,3.686,3.7534,3.823,3.9152,3.8802,3.8697,3.9733,3.887,3.858,4.01,3.9805,3.998,0.0,0.0,4.0687,4.0958,4.0066,3.955,3.9821,3.9341,3.8931,3.883,3.826,3.7892,3.7892,3.782,3.7684,3.7485,3.7219,3.7511,3.8376,3.8164,3.785,3.7332,3.7483,3.6921,3.5762,0.0,3.5274,3.4593,3.4498,3.333,3.1562,3.1018,2.9534,2.7385,2.4864,2.2768,2.0581,1.6423,1.3749,1.1654,0.8649,0.6623,0.5096,0.3677,0.2716,0.1898,0.0851,0.1206,0.1963,0.2478,0.2,0.1612,0.2623,0.2422,0.1865,0.1563,0.1109,0.0554,0.0,-0.0303,-0.0555,-0.0858,-0.1009,-0.1211,-0.1615,-0.1615,-0.1564,-0.1666,-0.1716,-0.1509,-0.0896,-0.0695,-0.0736,-0.1047,-0.0949,-0.0898,-0.0983,-0.0689,-0.0672,-0.0999,-0.1526,-0.2106,-0.2733,-0.3407,-0.4418,-0.576,-0.6091,-0.682,-0.7889,-0.7848,-0.7981,3.4346,3.4475,3.4434,3.4488,3.5071,3.5596,3.5354,3.4949,3.4959,3.6089,3.651,3.6911,3.7665,3.8762,3.9249,3.831,3.7835,3.7657,3.7955,3.7826,3.8234,3.9758,3.8936,3.8836,4.0318,3.9367,3.8926,3.9587,3.8929,3.8399,3.8206,3.7679,3.7353,3.7268,3.7155,3.7045,3.7023,3.6322,3.6431,3.7268,3.7241,3.672,3.5822,3.6333,3.5708,3.4273,3.4353,3.398,3.318,3.2555,3.1203,2.9471,2.8748,2.6706,2.3795,2.0926,1.8625,1.638,1.294,1.0705,0.8924,0.5816,0.4196,0.3267,0.2128,0.1182,0.0321,-0.0143,-0.0146,0.0197,0.0691,0.0698,0.0655,0.1211,0.1161,0.0857,0.0101,-0.0353,-0.0756,-0.1462,-0.1613,-0.1815,-0.2219,-0.2269,-0.2421,-0.2925,-0.2976,-0.3021,-0.3058,-0.3257,-0.2987,-0.2002,-0.2043,-0.2107,-0.2081,-0.2793,-0.3012,-0.2377,-0.2246,-0.2336,-0.2601,-0.3019,-0.3548,-0.4252,-0.4826,-0.572,-0.6906,-0.6967,-0.7422,-0.8288,-0.8248,-0.8292,3.3743,3.3777,3.3748,3.4351,3.5013,3.563,3.6028,3.5992,3.6181,3.7349,3.8353,3.8808,3.7979,3.9118,3.9409,3.6959,3.8078,3.8953,3.813,0.0,3.7648,3.9243,3.8844,3.8733,3.9593,3.9563,3.9243,3.8564,3.8683,3.8423,3.7624,3.7152,3.6866,3.6673,3.6673,3.6278,3.5574,3.5865,3.6216,3.6659,3.6465,3.5948,3.518,3.5194,3.4411,3.2988,3.2354,3.1762,3.1185,2.9619,2.8757,2.8219,2.6005,2.3208,2.0102,1.7791,1.5636,1.35,1.0469,0.8174,0.6204,0.3835,0.21,0.0946,0.0891,0.0332,-0.0287,-0.0099,-0.0905,-0.1509,-0.0252,-0.0101,-0.0202,0.0353,-0.0101,-0.0757,-0.1311,-0.1865,-0.232,-0.2623,-0.2876,-0.3079,-0.313,-0.313,-0.3229,-0.3478,-0.3528,-0.3606,-0.3788,-0.3829,-0.3851,-0.3871,-0.3431,-0.335,-0.3961,-0.5852,-0.681,-0.6387,-0.4874,-0.4124,-0.4415,-0.5046,-0.5469,-0.5669,-0.6319,-0.6826,-0.7282,-0.7636,-0.8057,-0.8592,-0.8995,-0.9087,3.2915,3.3442,3.4063,3.4616,3.5276,3.5843,3.604,3.5561,3.5477,3.6749,3.6946,3.701,3.751,3.7777,3.7621,3.685,3.7233,3.7337,3.6495,3.6659,3.6907,3.7003,3.6818,3.7193,3.8553,3.7728,3.7456,3.8328,3.7576,3.6893,3.658,3.6169,3.5804,3.542,3.542,3.5112,3.4472,3.452,3.4708,3.4913,3.5178,3.5065,3.4634,3.4196,3.3374,3.2219,3.126,3.0537,2.9829,2.8176,2.7006,2.6,2.2955,2.0184,1.7598,1.5425,1.319,1.0857,0.8037,0.5915,0.418,0.2862,0.1568,0.0539,0.0548,-0.0092,-0.0833,-0.0722,-0.1266,-0.1715,-0.0752,-0.1373,-0.2046,-0.1061,-0.1627,-0.2301,-0.1921,-0.2771,-0.3476,-0.2925,-0.3681,-0.4336,-0.3986,-0.4236,-0.4468,-0.4512,-0.4553,-0.4814,-0.5532,-0.5661,-0.5571,-0.5413,-0.5643,-0.62,-0.7218,-0.869,-0.9655,-0.9789,-0.8444,-0.755,-0.7349,-0.8042,-0.8462,-0.8484,-0.9132,-0.9244,-0.871,-0.8904,-0.8851,-0.8592,-0.8767,-0.8863,3.2441,3.2933,3.36,3.4454,3.5125,3.579,3.6557,3.5929,3.5461,3.6481,3.6054,3.587,3.709,3.6901,3.6505,3.635,3.6688,3.6577,3.5466,3.6009,3.6276,3.5666,3.5584,3.6138,3.7568,3.6697,3.6458,3.7558,3.6688,3.5984,0.0,3.545,3.51,3.4634,3.4509,3.4151,3.3493,3.3611,3.3604,3.3327,3.4012,3.4164,3.3807,3.2851,3.1893,3.0945,2.9919,2.9016,2.8115,2.6662,2.4903,2.2877,1.9991,1.7468,1.5223,1.2802,1.047,0.8064,0.5494,0.3364,0.1605,0.0849,-0.0313,-0.1431,-0.1305,-0.2083,-0.2932,-0.2698,-0.3263,-0.3786,-0.3288,-0.3197,-0.3072,-0.2577,-0.3255,-0.3835,-0.3383,-0.4474,-0.5375,-0.482,-0.5577,-0.6232,-0.5977,-0.6032,-0.6048,-0.593,-0.6155,-0.648,-0.683,-0.7131,-0.73,-0.7143,-0.8036,-0.8961,-0.9803,-1.0957,-1.1685,-1.1824,-1.1486,-1.0763,-0.9639,-1.017,-1.0377,-1.0261,-1.0726,-1.0634,-1.0028,-1.0101,-0.9879,-0.9453,-0.9666,-0.9845,3.2441,3.2163,3.2128,3.3785,3.4455,3.5329,3.7722,3.7298,3.6492,3.6837,3.627,3.5962,3.6743,3.6952,3.6566,3.5289,3.6604,3.7151,3.5356,3.555,3.5838,3.5614,3.5571,3.595,3.6791,3.69,3.6647,3.6033,3.6189,3.5935,0.0,3.5086,3.4867,3.4397,3.4121,3.3556,3.2603,3.3305,3.3123,3.2103,3.3032,3.3168,3.2552,3.1196,3.0013,2.8957,2.8127,2.7088,2.5806,2.4878,2.2237,1.8735,1.7173,1.5118,1.2719,0.9831,0.7311,0.5067,0.2846,0.0526,-0.1606,-0.2586,-0.4055,-0.5364,-0.5008,-0.5937,-0.6945,-0.6196,-0.7091,-0.8287,-0.8287,-0.5596,-0.3126,-0.4178,-0.483,-0.5379,-0.5879,-0.7068,-0.8199,-0.8689,-0.8795,-0.8898,-0.9178,-0.8552,-0.7967,-0.7762,-0.8505,-0.867,-0.7478,-0.8159,-0.8857,-0.9187,-1.0499,-1.1321,-1.1343,-1.2565,-1.3044,-1.24,-1.3844,-1.3565,-1.1053,-1.0988,-1.0923,-1.0636,-1.0636,-1.0755,-1.0999,-1.1214,-1.1338,-1.1343,-1.198,-1.2322,3.2206,3.2387,3.2805,3.3638,3.4742,3.5894,3.6937,3.6926,3.6713,3.6859,3.6642,3.6429,3.6464,3.6261,0.0,3.503,3.6016,3.6348,3.4818,3.5785,3.6205,3.4887,3.5123,3.5565,3.5966,3.5325,3.511,3.5489,3.4868,0.0,0.0,3.4105,3.3937,3.3484,3.3186,3.2536,3.1539,3.1772,3.143,3.0558,3.0677,3.1044,3.1505,3.0537,2.961,2.871,2.7433,2.6318,2.5187,2.2614,1.9562,1.6437,1.494,1.2788,1.0208,0.7745,0.5344,0.2982,0.0969,-0.1253,-0.3163,-0.3341,-0.4623,-0.5998,-0.5354,-0.6094,-0.6956,-0.6396,-0.7456,-0.8781,-0.86,-0.859,-0.8456,-0.7694,-0.7925,-0.8019,-0.6825,-0.8909,-1.0564,-0.9037,-1.0227,-1.1507,-1.1332,-1.0938,-1.0507,-1.0021,-0.9887,-0.9809,-0.9909,-1.0406,-1.0958,-1.1359,-1.22,-1.2997,-1.3528,-1.4438,-1.5155,-1.5567,-1.5481,-1.4713,-1.3226,-1.3444,-1.3493,-1.3281,-1.3584,-1.3324,-1.2413,-1.296,-1.2863,-1.2219,-1.2886,-1.3393,3.2142,3.2595,3.309,3.3487,3.4543,3.552,3.5657,3.6362,3.6896,3.6717,3.6465,3.6177,3.5763,3.5413,0.0,3.4701,3.5407,3.5641,3.4528,3.5594,3.5935,3.4554,3.4808,3.5073,3.4992,3.4438,3.426,3.4627,3.4075,0.0,0.0,3.3352,3.2984,3.2614,3.2064,3.1253,3.0269,3.056,3.0114,2.8931,2.9391,2.9399,2.9047,2.8763,2.8205,2.7329,2.5384,2.4106,2.3123,2.0217,1.7406,1.4853,1.3166,1.0925,0.8365,0.5655,0.326,0.1,-0.1348,-0.3504,-0.525,-0.5601,-0.6779,-0.8099,-0.8007,-0.8736,-0.9584,-0.9242,-1.046,-1.1723,-1.1194,-1.1978,-1.2459,-1.0485,-1.0529,-1.0775,-0.9657,-1.1342,-1.2758,-1.1613,-1.2325,-1.3149,-1.3026,-1.2614,-1.2138,-1.154,-1.1127,-1.1182,-1.2135,-1.2616,-1.2973,-1.3317,-1.4215,-1.4929,-1.5197,-1.5736,-1.6287,-1.6881,-1.632,-1.5641,-1.5,-1.4888,-1.4741,-1.4524,-1.4992,-1.4852,-1.4077,-1.4657,-1.4685,-1.4239,-1.474,-1.5155,3.2275,3.2808,3.3061,3.3395,3.4098,3.4661,3.4448,3.5723,3.6805,3.6219,3.5869,3.5481,3.4839,3.4577,3.4465,3.4476,3.4933,3.5103,3.4554,3.5115,3.5276,3.4504,3.4618,3.459,3.416,3.4076,3.3949,3.367,0.0,0.0,0.0,3.2676,3.2039,3.1744,3.0866,2.9944,2.8974,2.9558,2.9047,2.7441,2.8597,2.7973,2.5811,2.6507,2.6223,2.5121,2.2471,2.0915,2.0065,1.7651,1.5503,1.3541,1.1542,0.9349,0.6846,0.3612,0.1142,-0.1001,-0.385,-0.5898,-0.7501,-0.8663,-0.9888,-1.1032,-1.189,-1.2829,-1.3603,-1.3716,-1.489,-1.5913,-1.5101,-1.5351,-1.5254,-1.2918,-1.2833,-1.3324,-1.3425,-1.4017,-1.4709,-1.5272,-1.4762,-1.426,-1.4418,-1.388,-1.3193,-1.2688,-1.2458,-1.2807,-1.4163,-1.4592,-1.4852,-1.504,-1.6124,-1.6715,-1.6413,-1.6502,-1.6682,-1.6852,-1.6571,-1.6382,-1.6413,-1.5634,-1.5082,-1.4859,-1.5311,-1.5643,-1.5858,-1.6312,-1.6632,-1.6862,-1.7074,-1.7318,3.2665,3.2933,3.3079,3.3713,3.4313,3.4949,3.5611,3.5405,3.4958,3.4513,3.4969,3.5223,3.441,3.4618,3.4971,3.5067,3.5221,3.5247,3.5116,3.5263,3.5106,3.4463,3.4439,3.4356,3.4118,3.3781,3.3526,3.3471,0.0,0.0,3.2276,3.168,3.1091,3.0507,3.0397,2.9816,2.8787,2.8223,2.766,0.0,2.6216,2.5558,2.5164,2.6223,2.552,2.3306,2.0649,1.8754,1.7334,1.4899,1.2726,1.0779,0.9053,0.677,0.4275,0.2004,-0.0526,-0.3188,-0.5104,-0.7119,-0.8977,-0.9923,-1.1138,-1.242,-1.3262,-1.3849,-1.4428,-1.5548,-1.6002,-1.6337,-1.7071,-1.6599,-1.5972,-1.6113,-1.5332,-1.4512,-1.4201,-1.5277,-1.6157,-1.5444,-1.5966,-1.6485,-1.6476,-1.5942,-1.5423,-1.5159,-1.4947,-1.5019,-1.5476,-1.5777,-1.598,-1.6061,-1.6337,-1.6661,-1.6985,-1.6792,-1.6909,-1.7486,-1.7099,-1.6953,-1.7231,-1.6365,-1.5933,-1.6023,-1.6419,-1.6788,-1.7033,-1.7456,-1.774,-1.7974,-1.8385,-1.8794,3.1779,3.2579,3.3336,3.3856,3.4108,3.4279,3.4524,3.4302,3.3952,3.3616,3.4211,3.4605,3.4021,3.4356,3.471,3.4562,3.4741,3.4826,3.4741,3.4826,3.475,3.4437,3.4079,3.3786,3.3537,3.2877,3.2391,3.2307,0.0,3.1225,3.1225,3.0584,2.999,2.9451,2.9131,2.8482,2.7521,2.7155,2.6605,2.5864,2.5069,2.4261,2.3507,2.4212,2.3431,2.139,1.8991,1.7189,1.5739,1.3061,1.0954,0.9262,0.7272,0.4993,0.2572,0.024,-0.2258,-0.4791,-0.679,-0.8636,-1.0275,-1.1284,-1.2476,-1.3687,-1.4486,-1.5088,-1.5662,-1.6433,-1.6728,-1.6912,-1.7199,-1.7026,-1.6773,-1.6743,-1.6107,-1.5595,-1.5843,-1.6327,-1.675,-1.6753,-1.6846,-1.6877,-1.6837,-1.646,-1.6198,-1.6274,-1.6183,-1.6278,-1.6784,-1.7062,-1.7285,-1.7441,-1.7466,-1.7589,-1.787,-1.7705,-1.7837,-1.8354,-1.8188,-1.8086,-1.8163,-1.7803,-1.744,-1.7049,-1.7456,-1.7772,-1.8006,-1.8345,-1.8634,-1.8913,-1.9161,-1.9439,3.0794,3.2225,3.3515,3.3643,3.3487,3.3211,3.2934,3.3093,3.3279,3.3297,3.3656,3.3937,3.3725,3.3966,3.4173,3.3896,3.4085,3.4269,3.4247,3.4212,3.4233,3.4225,3.356,3.2978,3.2657,3.1827,3.1194,3.1001,0.0,3.044,3.0245,2.953,2.8903,2.848,2.7854,2.7111,2.6166,2.615,2.5658,2.4649,2.4213,2.3123,2.1431,2.152,2.0838,1.9459,1.7244,1.5583,1.4221,1.1417,0.9528,0.8108,0.5759,0.3439,0.113,-0.1516,-0.3937,-0.6171,-0.8463,-1.0021,-1.1153,-1.2342,-1.336,-1.4293,-1.5247,-1.6024,-1.6617,-1.6914,-1.7296,-1.746,-1.6876,-1.6952,-1.6996,-1.633,-1.6228,-1.6492,-1.7273,-1.7166,-1.7169,-1.7976,-1.7433,-1.6812,-1.6923,-1.67,-1.6694,-1.7154,-1.7244,-1.7458,-1.8079,-1.8371,-1.8562,-1.87,-1.8733,-1.8733,-1.8733,-1.8733,-1.883,-1.9108,-1.9206,-1.9194,-1.9038,-1.9285,-1.9024,-1.8184,-1.8434,-1.8714,-1.8904,-1.9073,-1.9359,-1.9715,-1.9715,-1.9833,3.1202,3.2448,3.3245,3.2515,3.2203,3.2273,3.3056,3.2566,3.2281,3.3405,3.3704,3.3683,3.3471,3.3641,3.3922,3.4392,3.4088,3.4019,3.4706,3.4088,3.3504,3.3431,3.2832,3.2218,3.1672,3.1137,3.0782,3.0599,2.9735,2.9224,2.9183,2.8652,2.8073,2.74,2.7644,2.7182,2.5954,2.5178,2.4524,2.4007,2.2427,2.0944,1.9643,1.9173,1.8586,1.7751,1.5065,1.3085,1.1619,0.9183,0.7563,0.63,0.3822,0.1595,-0.0584,-0.3228,-0.548,-0.753,-0.9654,-1.0538,-1.098,-1.25,-1.2808,-1.301,-1.4747,-1.5634,-1.6303,-1.7383,-1.7671,-1.7691,-1.7727,-1.6592,-1.5622,-1.6362,-1.6691,-1.6854,-1.6822,-1.7553,-1.8048,-1.7677,-1.7597,-1.7804,-1.8528,-1.8454,-1.853,-1.9268,-1.9405,-1.9342,-1.93,-1.9497,-1.9543,-1.9221,-1.9225,-1.9225,-1.9225,-1.9225,-1.9243,-1.9257,-1.9461,-1.9522,-1.9522,-1.9694,-1.9863,-1.9942,-1.9597,-1.9557,-1.9745,-1.9784,-1.9942,-2.0225,-2.0225,-2.0294,3.1042,3.174,3.2222,3.1847,3.2032,3.238,3.2791,3.2579,3.258,3.3286,3.3394,3.3356,3.324,3.3471,3.3717,3.3741,3.3722,3.376,3.4029,3.3411,3.2924,3.2931,3.1893,3.1019,3.0664,2.9935,2.9387,2.8997,2.8468,2.7988,2.7626,2.7392,2.6885,2.6041,2.6177,2.5667,2.4327,2.4064,2.3443,2.2439,2.0898,1.9634,1.8593,1.7263,1.6691,1.6621,1.4296,1.229,1.0519,0.8221,0.6468,0.4952,0.241,0.0078,-0.2136,-0.4553,-0.6694,-0.8607,-1.0562,-1.1225,-1.1462,-1.2908,-1.3215,-1.321,-1.4611,-1.5812,-1.6726,-1.7001,-1.7565,-1.801,-1.7557,-1.6756,-1.6296,-1.7258,-1.8192,-1.882,-1.8751,-1.9093,-1.938,-1.9138,-1.9131,-1.9363,-1.9951,-1.9775,-1.9706,-2.0186,-2.0255,-2.0099,-1.9774,-2.0057,-2.022,-2.0039,-2.001,-2.001,-2.001,-2.001,-1.9971,-1.9863,-2.0059,-2.0177,-2.0177,-2.0342,-2.0586,-2.0809,-2.0264,-2.0137,-2.0479,-2.0479,-2.0566,-2.0809,-2.0809,-2.0848,3.033,3.0729,3.1113,3.1178,3.1694,3.2262,3.2433,3.266,3.2836,3.3127,3.3157,3.3031,3.285,3.3212,3.3441,3.3154,3.3313,3.3377,3.3208,3.2617,3.2127,3.2016,3.076,2.9759,2.948,2.8727,2.8028,2.7514,2.7313,2.7013,2.6433,2.6296,2.5916,2.5234,2.4982,2.4292,2.3115,2.2945,2.2109,2.0731,1.9627,1.8515,1.745,1.5742,1.4961,1.4881,1.3206,1.1395,0.9422,0.7345,0.5437,0.3554,0.0932,-0.1471,-0.3653,-0.5995,-0.7905,-0.9585,-1.1094,-1.1609,-1.1773,-1.2916,-1.311,-1.3192,-1.4365,-1.5945,-1.7249,-1.6822,-1.791,-1.8981,-1.78,-1.7707,-1.8046,-1.8617,-1.9913,-2.0977,-2.0843,-2.0717,-2.0712,-2.0612,-2.0673,-2.0868,-2.1307,-2.1074,-2.0922,-2.1053,-2.1063,-2.083,-2.0292,-2.0537,-2.076,-2.076,-2.076,-2.076,-2.076,-2.076,-2.0693,-2.0537,-2.0654,-2.077,-2.0838,-2.0964,-2.1167,-2.1436,-2.1002,-2.0838,-2.0992,-2.0992,-2.1041,-2.1205,-2.1205,-2.1244,2.8898,2.9474,3.0289,3.0358,3.0599,3.1112,3.2246,3.2476,3.2587,3.3077,3.3157,3.2875,3.2082,3.2589,3.3124,3.3124,3.2896,3.2752,3.2634,3.1704,3.0846,3.0475,2.9463,2.8568,2.7985,2.7684,2.7284,2.661,2.6547,2.6433,2.6149,2.5678,2.5436,2.5484,2.4683,2.3899,2.3126,2.1718,2.041,1.9201,1.8481,1.7364,1.5857,1.4819,1.3417,1.1794,1.0994,0.9599,0.7778,0.6079,0.4148,0.1919,-0.0924,-0.3253,-0.5256,-0.7694,-0.9344,-1.0515,-1.113,-1.1382,-1.1554,-1.1952,-1.1953,-1.21,-1.3646,-1.5856,-1.768,-1.7343,-1.9308,-2.1075,-1.9065,-1.9743,-2.0836,-2.031,-2.1638,-2.2879,-2.2226,-2.1938,-2.1755,-2.1474,-2.1635,-2.2009,-2.2605,-2.2523,-2.2401,-2.2411,-2.2247,-2.1858,-2.1199,-2.1167,-2.1167,-2.1167,-2.1167,-2.1167,-2.1167,-2.1167,-2.1167,-2.1167,-2.1167,-2.1244,-2.1464,-2.1464,-2.1655,-2.2035,-2.2025,-2.1731,-2.1167,-2.1167,-2.1205,-2.1205,-2.1205,-2.132,2.8587,2.9153,2.9855,2.9807,3.025,3.0846,3.1395,3.1698,3.1979,3.2508,3.2304,3.1955,3.1727,3.1937,3.2005,3.1675,3.1529,3.1455,3.1435,3.0521,2.9766,2.9492,2.8585,2.7731,2.726,2.6788,2.6348,2.6058,2.5408,2.501,2.4955,2.4435,2.3996,2.371,2.3257,2.2625,2.1688,2.0255,1.9286,1.8705,1.7424,1.6205,1.4962,1.3346,1.1865,1.042,0.8898,0.7733,0.6768,0.5176,0.3074,0.0589,-0.1838,-0.4132,-0.6341,-0.8487,-0.9717,-1.044,-1.1496,-1.1651,-1.1485,-1.2193,-1.2685,-1.3178,-1.4203,-1.6386,-1.8267,-1.722,-1.9213,-2.1265,-1.9474,-2.0398,-2.1986,-2.262,-2.4051,-2.506,-2.4193,-2.3847,-2.3676,-2.3402,-2.3578,-2.3784,-2.3807,-2.3717,-2.3598,-2.3598,-2.3392,-2.2992,-2.2327,-2.233,-2.2283,-2.1991,-2.222,-2.236,-2.217,-2.2461,-2.2464,-2.2197,-2.2138,-2.2187,-2.2252,-2.2252,-2.2402,-2.2665,-2.2815,-2.259,-2.1959,-2.1959,-2.1959,-2.1959,-2.1959,-2.1959,2.7873,2.8357,2.9056,2.9162,2.9612,3.0127,3.0578,3.1119,3.155,3.1694,3.1485,3.1203,3.0962,3.076,3.0597,3.0587,3.0575,3.0501,3.0318,2.9467,2.871,2.8302,2.7424,2.6632,2.615,2.5634,2.5193,2.4914,0.0,0.0,2.3677,2.3134,2.2558,2.1863,2.1749,2.1242,2.0352,1.911,1.8344,1.7961,1.6246,1.4803,1.3681,1.1906,1.0364,0.9015,0.7327,0.6286,0.5701,0.3918,0.1701,-0.0836,-0.313,-0.5368,-0.7492,-0.9543,-1.0714,-1.1434,-1.2674,-1.2899,-1.2737,-1.3453,-1.3987,-1.4476,-1.5081,-1.7227,-1.9252,-1.8026,-2.0188,-2.2547,-2.0921,-2.1832,-2.3513,-2.4753,-2.5808,-2.6337,-2.5702,-2.5445,-2.5182,-2.453,-2.4814,-2.5018,-2.4577,-2.4613,-2.4693,-2.4457,-2.4344,-2.4028,-2.3366,-2.3299,-2.3289,-2.3199,-2.324,-2.3296,-2.3263,-2.3574,-2.3591,-2.3301,-2.3432,-2.3481,-2.3365,-2.3354,-2.3389,-2.3409,-2.3519,-2.3409,-2.3001,-2.2852,-2.2901,-2.308,-2.2891,-2.2628,0.0,0.0,0.0,2.8451,2.8587,2.8839,2.9861,3.0771,3.1267,3.0722,3.082,3.0725,2.9748,2.9051,2.8917,2.9827,3.0001,2.9845,2.928,2.8492,2.7635,2.6848,2.5995,2.5216,2.4526,2.4274,2.3831,2.3126,2.3034,2.2821,2.2381,2.1962,2.1229,2.0207,2.0129,1.9855,1.9265,1.8326,1.756,1.6913,1.4923,1.325,1.1933,1.0516,0.9011,0.7487,0.6165,0.5205,0.4392,0.2233,0.0,-0.2283,-0.4906,-0.6998,-0.8801,-1.0949,-1.2441,-1.3557,-1.4516,-1.5014,-1.5242,-1.5489,-1.565,-1.5854,-1.6337,-1.8448,-2.0555,-1.9885,-2.2382,-2.4957,-2.3505,-2.4209,-2.5559,-2.6666,-2.6822,-2.6657,-2.6645,-2.6604,-2.6183,-2.4772,-2.5228,-2.5603,-2.4875,-2.5356,-2.565,-2.5063,-2.5115,-2.5011,-2.4371,-2.4046,-2.4144,-2.4753,-2.4222,-2.3985,-2.443,-2.4479,-2.4479,-2.4468,-2.4957,-2.509,-2.4755,-2.477,-2.4617,-2.4259,-2.4259,-2.4259,-2.4259,-2.3835,-2.3876,-2.4412,-2.3854,-2.3298,2.6589,0.0,0.0,0.0,0.0,0.0,2.9422,2.9848,3.0094,3.0512,2.9872,2.9137,2.8842,2.7872,2.7047,2.6923,2.781,2.8238,2.7392,2.6944,2.6313,2.5261,2.4799,2.4335,2.3836,2.3002,2.2527,0.0,2.1566,2.0998,2.1005,2.0299,1.9629,1.9192,1.8619,1.8156,1.7843,1.6853,1.6092,1.5463,1.38,1.2345,1.1075,0.9406,0.7751,0.606,0.4405,0.2683,0.1031,0.0431,-0.1014,-0.3122,-0.5791,-0.7882,-0.9613,-1.1591,-1.2906,-1.3658,-1.3929,-1.4465,-1.5059,-1.5211,-1.6117,-1.7344,-1.8505,-1.9895,-2.1125,-2.1326,-2.2962,-2.4956,-2.6311,-2.6895,-2.725,-2.7938,-2.8266,-2.8307,-2.7918,-2.8122,-2.8076,-2.7005,-2.682,-2.6726,-2.6459,-2.6634,-2.6775,-2.6572,-2.6513,-2.6292,-2.5916,-2.5808,-2.5729,-2.5731,-2.5865,-2.5904,-2.5841,-2.6155,-2.629,-2.6068,-2.6212,-2.6235,-2.617,-2.6283,-2.6009,-2.5244,-2.5488,-2.555,-2.5367,-2.4482,-2.4185,-2.4482,-2.4187,-2.4009,0.0,0.0,0.0,2.7597,0.0,0.0,2.895,2.9226,2.9294,2.9139,2.848,2.7817,2.7354,2.6572,2.5823,2.5408,2.6025,2.643,2.5988,2.5616,2.5041,2.4203,2.3495,2.2987,2.2702,2.1869,2.1367,2.1476,2.0642,1.9893,1.9456,1.8711,1.8137,1.7794,1.7112,1.6693,1.6543,1.5433,1.4733,1.4388,1.2597,1.1206,1.014,0.8157,0.6368,0.4756,0.2854,0.08,-0.1254,-0.2057,-0.3256,-0.4852,-0.7328,-0.9315,-1.1039,-1.2964,-1.4135,-1.4879,-1.565,-1.6127,-1.6502,-1.6944,-1.7802,-1.8845,-2.0198,-2.0907,-2.1453,-2.2334,-2.3562,-2.523,-2.7699,-2.803,-2.7934,-2.87,-2.9024,-2.9098,-2.8774,-2.8969,-2.8971,-2.8057,-2.7822,-2.7641,-2.7282,-2.7505,-2.7672,-2.7499,-2.7522,-2.747,-2.7247,-2.7121,-2.7072,-2.7225,-2.7206,-2.7174,-2.7184,-2.7435,-2.7522,-2.7374,-2.7567,-2.7591,-2.7362,-2.7475,-2.7049,-2.608,-2.6202,-2.6094,-2.5721,-2.5087,-2.4897,-2.5064,-2.4957,-2.4874,0.0,0.0,0.0,0.0,2.7223,0.0,2.8315,2.8627,2.8459,2.7196,2.6958,2.6706,2.5734,2.5275,2.4945,2.4708,2.4496,2.4486,2.4846,2.4431,2.3844,2.3268,2.2227,2.1453,2.1283,2.075,2.0369,2.0237,1.9814,1.9042,1.7824,1.7216,1.6698,1.6237,1.57,1.5386,1.5295,1.4133,1.3528,1.3499,1.1496,1.0061,0.913,0.6878,0.4976,0.3403,0.1421,-0.0715,-0.2922,-0.4871,-0.6109,-0.7005,-0.9122,-1.097,-1.2691,-1.4605,-1.5823,-1.6769,-1.8288,-1.8705,-1.8692,-1.9623,-2.0003,-2.0353,-2.1645,-2.1855,-2.1912,-2.3135,-2.4289,-2.5718,-2.8168,-2.8305,-2.8096,-2.9245,-2.9526,-2.9489,-2.9452,-2.9517,-2.9321,-2.8516,-2.8421,-2.8275,-2.7678,-2.8119,-2.8379,-2.8011,-2.8287,-2.851,-2.8339,-2.8103,-2.8171,-2.8791,-2.8288,-2.8035,-2.8367,-2.8418,-2.8418,-2.8418,-2.886,-2.8909,-2.8481,-2.8456,-2.7951,-2.682,-2.6492,-2.608,-2.5688,-2.5688,-2.5758,-2.5945,-2.591,-2.5723,0.0,0.0,0.0,0.0,0.0,0.0,2.7144,2.6925,2.6396,2.6421,2.6059,2.566,2.5429,2.4583,2.378,2.329,2.2641,2.2547,2.3498,2.3475,2.282,2.1563,2.1188,2.0705,1.9826,1.9343,1.8935,1.8611,1.7622,1.6971,1.6865,1.5749,1.5132,1.5186,1.4506,1.4135,1.4138,1.3543,1.2947,1.2254,1.1178,0.9774,0.8059,0.625,0.4099,0.1667,-0.0271,-0.2669,-0.5298,-0.7251,-0.7969,-0.8084,-1.013,-1.1952,-1.3628,-1.5434,-1.6925,-1.8037,-1.7812,-1.8458,-1.9515,-1.9981,-2.0783,-2.1927,-2.3609,-2.3738,-2.3587,-2.4732,-2.558,-2.6666,-2.8983,-2.9368,-2.9424,-3.064,-3.0779,-3.0629,-3.0454,-3.0431,-3.0343,-3.0037,-2.8993,-2.8279,-2.8709,-2.8636,-2.859,-2.8803,-2.8922,-2.8973,-2.8934,-2.8882,-2.8961,-2.9263,-2.9164,-2.9102,-2.9192,-2.9192,-2.9192,-2.9192,-2.9291,-2.9394,-2.9513,-2.9513,-2.8823,-2.7385,-2.6309,-2.5856,-2.6097,-2.6097,-2.6097,-2.6131,-2.598,-2.5945,0.0,0.0,0.0,2.6293,0.0,0.0,0.0,2.625,2.5703,2.5009,2.4652,2.4287,2.3529,2.3059,2.2596,2.214,2.1582,2.1368,2.1845,2.1751,2.1401,2.0726,2.0091,1.9575,1.9175,1.8682,1.8197,1.7834,1.6775,1.6075,1.5912,1.4768,1.4123,1.4194,1.3219,1.2739,1.2834,1.2255,1.1615,1.0908,0.9824,0.8377,0.6599,0.4711,0.2532,0.0134,-0.1897,-0.424,-0.674,-0.8758,-1.0136,-1.1051,-1.2058,-1.3499,-1.5165,-1.6629,-1.7895,-1.8965,-1.9261,-1.9792,-2.0526,-2.1482,-2.2174,-2.29,-2.4387,-2.4779,-2.4862,-2.549,-2.633,-2.7484,-2.9571,-3.0024,-3.0213,-3.1332,-3.1434,-3.1261,-3.1149,-3.1149,-3.1112,-3.0898,-2.9947,-2.9277,-2.956,-2.9339,-2.9234,-2.9429,-2.9456,-2.9456,-2.9456,-2.9456,-2.9495,-2.9611,-2.9599,-2.9599,-2.9599,-2.9677,-2.9715,-2.9599,-2.949,-2.9618,-2.9921,-2.9745,-2.9076,-2.784,-2.6558,-2.5945,-2.6062,-2.6131,-2.6213,-2.6213,-2.6357,-2.6379,0.0,0.0,0.0,0.0,0.0,2.5862,0.0,0.0,0.0,2.3607,2.3238,2.284,2.1685,2.1577,2.1526,2.1036,2.0664,0.0,0.0,1.9758,0.0,2.0014,1.9072,1.8405,1.8437,1.7765,1.7249,1.6965,1.6026,1.5299,1.4813,1.3867,1.3266,1.3194,1.2197,1.171,1.1748,1.1004,1.0356,0.9794,0.8623,0.7077,0.5235,0.338,0.1178,-0.129,-0.342,-0.5682,-0.8011,-1.0025,-1.2117,-1.4016,-1.4066,-1.5161,-1.687,-1.8093,-1.9094,-2.0018,-2.1263,-2.1642,-2.1853,-2.3271,-2.3838,-2.412,-2.511,-2.5545,-2.5797,-2.6286,-2.7109,-2.8287,-3.02,-3.0683,-3.0872,-3.1765,-3.1877,-3.1743,-3.1683,-3.1683,-3.1596,-3.1397,-3.0923,-3.0495,-3.0267,-2.996,-2.9818,-2.9895,-2.9934,-2.9934,-2.9934,-2.9934,-2.9934,-2.9934,-2.9934,-2.9934,-2.9934,-3.0049,-3.0075,-2.9934,-2.9757,-2.9832,-3.0216,-2.968,-2.9008,-2.8122,-2.6847,-2.6126,-2.591,-2.6015,-2.6146,-2.6258,-2.6678,-2.6618,0.0,0.0,0.0,0.0,2.4976,0.0,0.0,0.0,2.3126,2.2911,0.0,2.1659,2.1369,0.0,0.0,0.0,1.931,1.8795,1.8119,1.7741,1.786,1.8711,1.8369,1.7585,1.6467,1.5571,1.5071,1.5025,1.413,1.3518,1.3364,1.2736,1.2263,1.1999,1.19,1.1677,1.1276,1.0717,1.0136,0.954,0.8922,0.7194,0.4583,0.3573,0.1062,-0.2614,-0.4692,-0.7062,-0.9592,-1.1481,-1.342,-1.5223,-1.5331,-1.6548,-1.8426,-1.9928,-2.1083,-2.1924,-2.2463,-2.3175,-2.3952,-2.4667,-2.5549,-2.6393,-2.6688,-2.6483,-2.6446,-2.7965,-2.8609,-2.9253,-3.1165,-3.1647,-3.1748,-3.2244,-3.2322,-3.2214,-3.1927,-3.1853,-3.1817,-3.1596,-3.1485,-3.1299,-3.0736,-3.0126,-2.9832,-3.0292,-3.033,-3.033,-3.033,-3.033,-3.033,-3.033,-3.033,-3.033,-3.033,-3.0368,-3.0368,-3.033,-3.0304,-3.038,-3.0622,-2.9605,-2.8749,-2.8109,-2.6954,-2.6235,-2.591,-2.5758,-2.592,-2.6395,-2.6444,-2.6348,0.0,0.0,0.0,0.0,0.0,0.0,2.3734,0.0,2.2306,0.0,0.0,0.0,0.0,0.0,0.0,0.0,1.8022,1.7723,1.741,0.0,1.6975,1.7648,0.0,0.0,1.5457,1.4796,1.4381,1.431,1.338,1.2846,1.2932,1.1952,1.1511,1.173,1.1122,1.0694,1.0497,0.9901,0.9174,0.8317,0.7371,0.5665,0.3281,0.1947,-0.0609,-0.4076,-0.6006,-0.8225,-1.0615,-1.293,-1.4869,-1.6499,-1.7698,-1.8643,-1.9555,-2.1085,-2.2261,-2.3259,-2.4505,-2.5083,-2.5352,-2.5595,-2.6052,-2.6598,-2.7015,-2.7131,-2.7507,-2.9247,-2.9944,-3.0518,-3.2046,-3.2298,-3.228,-3.2804,-3.2739,-3.2525,-3.2395,-3.2359,-3.2286,-3.2119,-3.1986,-3.1817,-3.1447,-3.0861,-3.0508,-3.071,-3.0558,-3.0406,-3.0406,-3.0406,-3.0406,-3.0406,-3.0406,-3.0444,-3.0571,-3.0685,-3.0723,-3.0571,-3.0672,-3.0717,-3.0711,-2.9836,-2.9259,-2.9091,-2.7563,-2.6842,-2.7012,-2.617,-2.6079,-2.671,-2.6796,-2.6639,2.4968,0.0,0.0,0.0,0.0,0.0,0.0,0.0,0.0,0.0,0.0,0.0,0.0,0.0,0.0,0.0,0.0,1.6653,0.0,1.6071,1.6,1.6531,0.0,0.0,0.0,1.37,1.3409,1.3127,1.2319,1.1899,1.1981,1.1136,1.0819,1.1188,1.0523,1.0024,0.9808,0.9135,0.8333,0.7396,0.6199,0.4431,0.2203,0.0546,-0.2116,-0.5571,-0.7486,-0.9672,-1.2033,-1.4191,-1.618,-1.7957,-1.9479,-2.0461,-2.1241,-2.2471,-2.356,-2.4621,-2.6233,-2.6667,-2.6475,-2.6379,-2.6449,-2.6654,-2.7136,-2.7605,-2.8325,-3.0149,-3.0923,-3.1533,-3.2718,-3.2842,-3.2717,-3.3051,-3.2895,-3.2704,-3.2704,-3.2704,-3.2668,-3.2525,-3.2359,-3.2205,-3.2059,-3.1545,-3.1174,-3.1174,-3.0911,-3.071,-3.071,-3.071,-3.071,-3.071,-3.0634,-3.0634,-3.0773,-3.0911,-3.0986,-3.0962,-3.1061,-3.1101,-3.0956,-3.0236,-2.9788,-2.9744,-2.8158,-2.7433,-2.7644,-2.6721,-2.6493,-2.6899,-2.6904,-2.6663,0.0,0.0,0.0,2.4442,0.0,0.0,0.0,0.0,2.0617,0.0,0.0,0.0,0.0,0.0,0.0,0.0,0.0,0.0,0.0,1.444,1.453,1.5266,1.4153,0.0,0.0,1.1738,1.151,1.0862,1.049,1.0151,0.9911,1.0113,1.0147,0.9953,1.0316,1.0097,0.9318,0.8598,0.7879,0.7204,0.6112,0.4202,0.1563,-0.0033,-0.3005,-0.695,-0.9152,-1.1645,-1.4179,-1.5183,-1.7168,-1.9672,-2.0029,-2.171,-2.3935,-2.4372,-2.5201,-2.6251,-2.7155,-2.7464,-2.741,-2.7079,-2.6998,-2.704,-2.739,-2.7928,-2.8731,-3.0499,-3.1405,-3.209,-3.3038,-3.3276,-3.3171,-3.281,-3.2704,-3.2704,-3.2704,-3.2704,-3.2704,-3.2704,-3.2525,-3.2381,-3.2381,-3.195,-3.1572,-3.1572,-3.1572,-3.1572,-3.1572,-3.1572,-3.1572,-3.1572,-3.1211,-3.0986,-3.0986,-3.0986,-3.1174,-3.1535,-3.1572,-3.1596,-3.1582,-3.0797,-3.0124,-2.9609,-2.8737,-2.7911,-2.7236,-2.7174,-2.7074,-2.6885,-2.637,-2.602,0.0,0.0,2.4446,2.3968,0.0,0.0,0.0,0.0,0.0,0.0,0.0,0.0,0.0,0.0,0.0,0.0,0.0,0.0,0.0,1.2753,1.2151,1.2364,1.245,1.2136,0.0,0.0,1.0579,1.0259,0.9761,0.9508,0.96,0.9309,0.9234,0.944,0.9353,0.898,0.8321,0.8053,0.7303,0.6055,0.5152,0.3479,0.1053,-0.117,-0.4217,-0.7806,-1.003,-1.2591,-1.5277,-1.6297,-1.804,-2.0086,-2.0849,-2.2682,-2.4962,-2.5186,-2.5928,-2.6952,-2.7774,-2.7756,-2.7335,-2.7175,-2.731,-2.7676,-2.8392,-2.9295,-3.0398,-3.1998,-3.2715,-3.3128,-3.352,-3.3486,-3.329,-3.3312,-3.3108,-3.2917,-3.2917,-3.3002,-3.298,-3.2561,-3.2668,-3.2739,-3.2632,-3.2467,-3.2228,-3.1853,-3.1683,-3.1646,-3.178,-3.1683,-3.1596,-3.1619,-3.1347,-3.1198,-3.1198,-3.1323,-3.1447,-3.1609,-3.1609,-3.1609,-3.1609,-3.0962,-3.0443,-3.0124,-2.9063,-2.8546,-2.863,-2.769,-2.731,-2.7496,-2.6688,-2.6251,2.5261,2.4731,0.0,2.3485,2.3109,0.0,2.0924,0.0,0.0,0.0,0.0,0.0,0.0,0.0,0.0,0.0,0.0,0.0,0.0,1.1389,1.0584,1.0104,1.0742,1.0942,1.0288,0.9895,0.9664,0.9577,0.9129,0.8996,0.0,0.0,0.8769,0.9092,0.8748,0.8375,0.8023,0.7553,0.666,0.5348,0.4304,0.253,0.0089,-0.2515,-0.5517,-0.8793,-1.1138,-1.3656,-1.6197,-1.7269,-1.8877,-2.0743,-2.1907,-2.3659,-2.5534,-2.5628,-2.6409,-2.7468,-2.7873,-2.7676,-2.7289,-2.7377,-2.7741,-2.8292,-2.9167,-3.0228,-3.1411,-3.2663,-3.3314,-3.3591,-3.3597,-3.3542,-3.3417,-3.3227,-3.3072,-3.2988,-3.2917,-3.2931,-3.2909,-3.2668,-3.2704,-3.281,-3.281,-3.2739,-3.2561,-3.2228,-3.2082,-3.2059,-3.2169,-3.2082,-3.1973,-3.1982,-3.1629,-3.1347,-3.1198,-3.1323,-3.1447,-3.1609,-3.1609,-3.1609,-3.1609,-3.0999,-3.0609,-3.0406,-2.9517,-2.9122,-2.9275,-2.8405,-2.7865,-2.7681,-2.7078,-2.6638]},{"header":{"parameterUnit":"m.s-1","parameterCategory":1,"la1":30.6,"la2":29.2853,"lo1":-89.7004,"lo2":-87.6739,"dy":0.0162,"dx":0.0183,"nx":112,"ny":82,"refTime":"2023-11-11T06:00:00:Z","depth":0,"parameterNumber":3,"parameterNumberName":"V-component_of_WINDS"},"data":[0.0,0.0,0.0,0.0,0.0,0.0,0.0,0.0,0.0,0.0,0.0,0.0,0.0,0.0,0.0,0.0,0.0,0.0,0.0,0.0,0.0,0.0,0.0,0.0,0.0,0.0,0.0,0.0,0.0,0.0,0.0,0.0,0.0,0.0,0.0,0.0,0.0,0.0,0.0,0.0,0.0,0.0,0.0,0.0,0.0,0.0,0.0,0.0,0.0,0.0,0.0,0.0,0.0,0.0,0.0,0.0,0.0,0.0,0.0,0.0,0.0,0.0,0.0,0.0,0.0,0.0,0.0,0.0,0.0,0.0,0.0,0.0,0.0,0.0,0.0,0.0,0.0,0.0,0.0,0.0,0.0,0.0,0.0,0.0,0.0,0.0,0.0,0.0,0.0,0.0,1.9512,2.044,2.2615,2.3789,2.3307,2.2271,2.1164,2.0149,0.0,0.0,0.0,0.0,0.0,0.0,0.0,0.0,0.0,0.0,0.0,0.0,0.0,0.0,0.0,0.0,0.0,0.0,0.0,0.0,0.0,0.0,0.0,0.0,0.0,0.0,0.0,0.0,0.0,0.0,0.0,0.0,0.0,0.0,0.0,0.0,0.0,0.0,0.0,0.0,0.0,0.0,0.0,0.0,0.0,0.0,0.0,0.0,0.0,0.0,0.0,0.0,0.0,0.0,0.0,0.0,0.0,0.0,0.0,0.0,0.0,0.0,0.0,0.0,0.0,0.0,0.0,0.0,0.0,0.0,0.0,0.0,0.0,0.0,0.0,0.0,0.0,0.0,0.0,0.0,0.0,0.0,0.0,0.0,0.0,0.0,0.0,0.0,0.0,0.0,0.0,0.0,0.0,0.0,0.0,0.0,0.0,0.0,0.0,0.0,0.0,0.0,0.0,0.0,2.1678,2.41,2.4745,2.4346,2.277,2.2292,2.1401,1.9773,0.0,0.0,0.0,0.0,0.0,0.0,0.0,0.0,0.0,0.0,0.0,0.0,0.0,0.0,0.0,0.0,0.0,0.0,0.0,0.0,0.0,0.0,0.0,0.0,0.0,0.0,0.0,0.0,0.0,0.0,0.0,0.0,0.0,0.0,0.0,0.0,0.0,0.0,0.0,0.0,0.0,0.0,0.0,0.0,0.0,0.0,0.0,0.0,0.0,0.0,0.0,0.0,0.0,0.0,0.0,0.0,0.0,0.0,0.0,0.0,0.0,0.0,0.0,0.0,0.0,0.0,0.0,0.0,0.0,0.0,0.0,0.0,0.0,0.0,0.0,0.0,0.0,0.0,0.0,0.0,0.0,0.0,0.0,0.0,0.0,0.0,0.0,0.0,0.0,0.0,0.0,0.0,0.0,0.0,0.0,0.0,0.0,0.0,0.0,0.0,0.0,0.0,0.0,2.0412,2.2407,2.4727,2.4893,2.4466,2.366,2.3413,2.255,2.0781,1.9433,0.0,0.0,0.0,0.0,0.0,0.0,0.0,0.0,0.0,0.0,0.0,0.0,0.0,0.0,0.0,0.0,0.0,0.0,0.0,0.0,0.0,0.0,0.0,0.0,0.0,0.0,0.0,0.0,0.0,0.0,0.0,0.0,0.0,0.0,0.0,0.0,0.0,0.0,0.0,0.0,0.0,0.0,0.0,0.0,0.0,0.0,0.0,0.0,0.0,0.0,0.0,0.0,0.0,0.0,0.0,0.0,0.0,0.0,0.0,0.0,0.0,0.0,0.0,0.0,0.0,0.0,0.0,0.0,0.0,0.0,0.0,0.0,0.0,0.0,0.0,0.0,0.0,0.0,0.0,0.0,0.0,0.0,0.0,0.0,0.0,0.0,0.0,0.0,0.0,0.0,0.0,0.0,0.0,0.0,0.0,0.0,0.0,0.0,0.0,0.0,0.0,0.0,2.1772,2.3057,2.4781,2.4826,2.4646,2.4436,2.4142,2.3252,2.1699,2.0348,0.0,0.0,0.0,0.0,0.0,0.0,0.0,0.0,0.0,0.0,0.0,0.0,0.0,0.0,0.0,0.0,0.0,0.0,0.0,0.0,0.0,0.0,0.0,0.0,0.0,0.0,0.0,0.0,0.0,0.0,0.0,0.0,0.0,0.0,0.0,0.0,0.0,0.0,0.0,0.0,0.0,0.0,0.0,0.0,0.0,0.0,0.0,0.0,0.0,0.0,0.0,0.0,0.0,0.0,0.0,0.0,0.0,0.0,0.0,0.0,0.0,0.0,0.0,0.0,0.0,0.0,0.0,0.0,0.0,0.0,0.0,0.0,0.0,0.0,0.0,0.0,0.0,0.0,0.0,0.0,0.0,0.0,0.0,0.0,0.0,0.0,0.0,0.0,0.0,0.0,0.0,0.0,0.0,0.0,0.0,0.0,0.0,0.0,0.0,0.0,0.0,0.0,2.2964,2.4351,2.5364,2.5414,2.5086,2.4207,2.3537,2.2695,2.1568,2.0545,0.0,0.0,0.0,0.0,0.0,0.0,0.0,0.0,0.0,0.0,0.0,0.0,0.0,0.0,0.0,0.0,0.0,0.0,0.0,0.0,0.0,0.0,0.0,0.0,0.0,0.0,0.0,0.0,0.0,0.0,0.0,0.0,0.0,0.0,0.0,0.0,0.0,0.0,0.0,0.0,0.0,0.0,0.0,0.0,0.0,0.0,0.0,0.0,0.0,0.0,0.0,0.0,0.0,0.0,0.0,0.0,0.0,0.0,0.0,0.0,0.0,0.0,0.0,0.0,0.0,0.0,0.0,0.0,0.0,0.0,0.0,0.0,0.0,0.0,0.0,0.0,0.0,0.0,0.0,0.0,0.0,0.0,0.0,0.0,0.0,0.0,0.0,0.0,0.0,0.0,0.0,0.0,0.0,0.0,0.0,0.0,0.0,0.0,0.0,0.0,0.0,0.0,2.3551,2.5145,0.0,2.5879,2.5691,2.5671,2.518,2.4014,2.2053,0.0,0.0,0.0,0.0,0.0,0.0,0.0,0.0,0.0,0.0,0.0,0.0,0.0,0.0,0.0,0.0,0.0,0.0,0.0,0.0,0.0,0.0,0.0,0.0,0.0,0.0,0.0,0.0,0.0,0.0,0.0,0.0,0.0,0.0,0.0,0.0,0.0,0.0,0.0,0.0,0.0,0.0,0.0,0.0,0.0,0.0,0.0,0.0,0.0,0.0,0.0,0.0,0.0,0.0,0.0,0.0,0.0,0.0,0.0,0.0,0.0,0.0,0.0,0.0,0.0,0.0,0.0,0.0,0.0,0.0,0.0,0.0,0.0,0.0,0.0,0.0,0.0,0.0,0.0,0.0,0.0,0.0,0.0,0.0,0.0,0.0,0.0,0.0,0.0,0.0,0.0,0.0,0.0,0.0,0.0,0.0,0.0,0.0,0.0,0.0,0.0,0.0,2.1993,2.4173,2.5967,0.0,2.6588,2.6443,2.6671,2.6212,2.497,2.2712,0.0,0.0,0.0,0.0,0.0,0.0,0.0,0.0,0.0,0.0,0.0,0.0,0.0,0.0,0.0,0.0,0.0,0.0,0.0,0.0,0.0,0.0,0.0,0.0,0.0,0.0,0.0,0.0,0.0,0.0,0.0,0.0,0.0,0.0,0.0,0.0,0.0,0.0,0.0,0.0,0.0,0.0,0.0,0.0,0.0,0.0,0.0,0.0,0.0,0.0,0.0,0.0,0.0,0.0,0.0,0.0,0.0,0.0,0.0,0.0,0.0,0.0,0.0,0.0,0.0,0.0,0.0,0.0,0.0,0.0,0.0,0.0,0.0,0.0,0.0,0.0,0.0,0.0,0.0,0.0,0.0,0.0,0.0,0.0,0.0,0.0,0.0,0.0,0.0,0.0,0.0,0.0,0.0,0.0,0.0,0.0,0.0,0.0,0.0,0.0,0.0,0.0,2.2417,2.4927,2.6884,2.7547,2.7636,2.7411,2.698,2.6322,2.5189,0.0,0.0,0.0,0.0,0.0,0.0,0.0,0.0,0.0,0.0,0.0,0.0,0.0,0.0,0.0,0.0,0.0,0.0,0.0,0.0,0.0,0.0,0.0,0.0,0.0,0.0,0.0,0.0,0.0,0.0,0.0,0.0,0.0,0.0,0.0,0.0,0.0,0.0,0.0,0.0,0.0,0.0,0.0,0.0,0.0,0.0,0.0,0.0,0.0,0.0,0.0,0.0,0.0,0.0,0.0,0.0,0.0,0.0,0.0,0.0,0.0,0.0,0.0,0.0,0.0,0.0,0.0,0.0,0.0,0.0,0.0,0.0,0.0,0.0,0.0,0.0,0.0,0.0,0.0,0.0,0.0,0.0,0.0,0.0,0.0,0.0,0.0,0.0,0.0,0.0,0.0,0.0,0.0,0.0,0.0,0.0,0.0,0.0,0.0,0.0,0.0,0.0,0.0,2.3999,2.6361,2.8269,2.9404,2.9,2.868,2.8723,2.8095,2.702,2.5554,0.0,0.0,0.0,0.0,0.0,0.0,0.0,0.0,0.0,0.0,0.0,0.0,0.0,0.0,0.0,0.0,0.0,0.0,0.0,0.0,0.0,0.0,0.0,0.0,0.0,0.0,0.0,0.0,0.0,0.0,0.0,0.0,0.0,0.0,0.0,0.0,0.0,0.0,0.0,0.0,0.0,0.0,0.0,0.0,0.0,0.0,0.0,0.0,0.0,0.0,0.0,0.0,0.0,0.0,0.0,0.0,0.0,0.0,0.0,0.0,0.0,0.0,0.0,0.0,0.0,0.0,0.0,0.0,0.0,0.0,0.0,0.0,0.0,0.0,0.0,0.0,0.0,0.0,0.0,0.0,0.0,0.0,0.0,0.0,0.0,0.0,0.0,0.0,0.0,0.0,0.0,0.0,0.0,0.0,0.0,0.0,0.0,0.0,0.0,0.0,0.0,0.0,2.446,2.7103,2.9179,3.0177,2.9814,2.9577,2.976,2.9387,2.8405,2.6802,0.0,0.0,0.0,0.0,0.0,0.0,0.0,0.0,0.0,0.0,0.0,0.0,0.0,0.0,0.0,0.0,0.0,0.0,0.0,0.0,0.0,0.0,0.0,0.0,0.0,0.0,0.0,0.0,0.0,0.0,0.0,0.0,0.0,0.0,0.0,0.0,0.0,0.0,0.0,0.0,0.0,0.0,0.0,0.0,0.0,0.0,0.0,0.0,0.0,0.0,0.0,0.0,0.0,0.0,0.0,0.0,0.0,0.0,0.0,0.0,0.0,0.0,0.0,0.0,0.0,0.0,0.0,0.0,0.0,0.0,0.0,0.0,0.0,0.0,0.0,0.0,0.0,0.0,0.0,0.0,0.0,0.0,0.0,0.0,0.0,0.0,0.0,0.0,0.0,0.0,0.0,0.0,0.0,0.0,0.0,0.0,0.0,0.0,0.0,0.0,0.0,0.0,2.428,2.7432,2.9775,3.0251,3.0341,3.0352,3.0352,3.0369,2.9592,2.7799,0.0,0.0,0.0,0.0,0.0,0.0,0.0,0.0,0.0,0.0,0.0,0.0,0.0,0.0,0.0,0.0,0.0,0.0,0.0,0.0,0.0,0.0,0.0,0.0,0.0,0.0,0.0,0.0,0.0,0.0,0.0,0.0,0.0,0.0,0.0,0.0,0.0,0.0,0.0,0.0,0.0,0.0,0.0,0.0,0.0,0.0,0.0,0.0,0.0,0.0,0.0,0.0,0.0,0.0,0.0,0.0,0.0,0.0,0.0,0.0,1.8447,0.0,0.0,0.0,0.0,0.0,0.0,0.0,0.0,0.0,0.0,0.0,0.0,0.0,0.0,0.0,0.0,0.0,0.0,0.0,0.0,0.0,0.0,0.0,0.0,0.0,0.0,0.0,0.0,0.0,0.0,0.0,0.0,0.0,0.0,0.0,0.0,0.0,0.0,0.0,0.0,0.0,2.5239,2.8279,3.0566,3.1078,3.1286,3.1395,3.1395,3.1541,3.1291,3.0481,2.8932,0.0,0.0,0.0,0.0,0.0,0.0,0.0,0.0,0.0,0.0,0.0,0.0,0.0,0.0,0.0,0.0,0.0,0.0,0.0,0.0,0.0,0.0,0.0,0.0,0.0,0.0,0.0,0.0,0.0,0.0,0.0,0.0,0.0,0.0,0.0,0.0,0.0,0.0,0.0,0.0,0.0,0.0,0.0,0.0,0.0,0.0,0.0,0.0,0.0,0.0,0.0,0.0,0.0,0.0,0.0,0.0,0.0,0.0,0.0,0.0,2.0018,0.0,0.0,0.0,0.0,0.0,0.0,0.0,0.0,0.0,0.0,0.0,0.0,0.0,0.0,0.0,0.0,0.0,0.0,0.0,0.0,0.0,0.0,0.0,0.0,0.0,0.0,0.0,0.0,0.0,0.0,0.0,0.0,0.0,0.0,0.0,0.0,0.0,0.0,0.0,0.0,2.5421,2.8566,3.0939,3.1486,3.1651,3.1837,3.2145,3.2394,3.2222,3.1543,3.0511,0.0,0.0,0.0,0.0,0.0,0.0,0.0,0.0,0.0,0.0,0.0,0.0,0.0,0.0,0.0,0.0,0.0,0.0,0.0,0.0,0.0,0.0,0.0,0.0,0.0,0.0,0.0,0.0,0.0,0.0,0.0,0.0,0.0,0.0,0.0,0.0,0.0,0.0,0.0,0.0,0.0,0.0,0.0,0.0,0.0,0.0,0.0,0.0,0.0,0.0,0.0,0.0,0.0,2.3625,2.3956,2.4878,2.417,2.3928,2.3991,2.3062,2.2527,2.2268,2.1214,0.0,0.0,0.0,0.0,0.0,0.0,0.0,0.0,0.0,0.0,0.0,0.0,0.0,0.0,0.0,0.0,0.0,0.0,0.0,0.0,0.0,0.0,0.0,0.0,2.6578,2.7151,0.0,0.0,0.0,0.0,0.0,0.0,0.0,0.0,0.0,0.0,0.0,0.0,2.5456,2.8771,3.1239,3.1677,3.1837,3.2145,3.2723,3.3111,3.2954,3.2064,3.1952,3.0902,0.0,0.0,0.0,0.0,0.0,0.0,0.0,0.0,0.0,0.0,0.0,0.0,0.0,0.0,0.0,0.0,0.0,0.0,0.0,0.0,0.0,0.0,0.0,0.0,0.0,0.0,0.0,0.0,0.0,0.0,0.0,0.0,1.9599,1.9383,0.0,0.0,0.0,0.0,0.0,0.0,0.0,0.0,0.0,0.0,0.0,0.0,0.0,2.3433,2.4098,2.5379,2.5964,2.5937,2.5688,2.5337,2.49,2.5173,2.5233,2.5047,2.5464,0.0,2.4096,2.3195,0.0,0.0,0.0,0.0,0.0,0.0,0.0,0.0,0.0,0.0,0.0,0.0,0.0,0.0,0.0,0.0,0.0,0.0,0.0,0.0,0.0,0.0,2.4786,2.6857,2.8012,2.8697,0.0,2.7611,2.62,2.5444,2.4829,0.0,0.0,0.0,0.0,0.0,0.0,0.0,2.6117,2.9512,3.1819,3.1721,3.2419,3.2939,3.3038,3.3768,3.3957,3.3307,3.2987,3.2306,3.1074,2.997,0.0,0.0,0.0,0.0,0.0,0.0,0.0,0.0,0.0,0.0,0.0,0.0,0.0,0.0,0.0,0.0,0.0,0.0,0.0,0.0,0.0,0.0,0.0,0.0,0.0,0.0,0.0,0.0,0.0,2.0323,2.0487,2.0907,1.9604,1.8961,0.0,0.0,0.0,0.0,0.0,0.0,0.0,0.0,0.0,2.3876,2.5419,2.6336,2.6578,2.7256,2.7507,2.7294,2.6803,2.6433,2.6245,2.6328,2.6306,2.6203,2.6795,2.665,2.5991,2.479,2.4476,2.4657,0.0,0.0,0.0,0.0,2.1966,2.2647,2.3154,2.3757,0.0,2.4777,0.0,0.0,0.0,0.0,0.0,0.0,0.0,0.0,0.0,0.0,0.0,2.8332,2.9294,3.002,3.047,2.9967,2.9239,0.0,2.8041,2.7201,2.6078,0.0,0.0,0.0,0.0,2.8396,2.9002,3.0947,3.2436,3.2887,3.304,3.3283,3.3781,3.4272,3.4334,3.3754,3.3486,3.2888,3.188,3.0677,2.9454,0.0,0.0,0.0,0.0,0.0,0.0,0.0,0.0,0.0,0.0,0.0,0.0,0.0,0.0,0.0,0.0,0.0,0.0,0.0,0.0,0.0,0.0,0.0,0.0,0.0,0.0,0.0,0.0,2.0887,2.1165,2.2032,2.0701,2.0136,0.0,0.0,0.0,0.0,0.0,0.0,2.3192,2.4463,2.5656,2.6704,2.7872,2.8635,2.8956,2.9028,2.8984,2.8811,2.814,2.775,2.7584,2.7411,2.729,2.7234,2.7744,2.7852,2.7561,2.6199,2.5616,2.5475,2.487,2.4817,2.4967,2.4247,2.4727,2.5816,2.6385,2.7088,2.7814,2.8309,0.0,2.7954,2.7014,0.0,0.0,0.0,0.0,2.5041,2.595,2.7254,2.8553,2.9596,3.035,3.0987,3.151,3.1743,3.1614,0.0,3.053,2.9957,2.8933,0.0,0.0,0.0,0.0,3.0986,3.1492,3.2503,3.3367,3.3966,3.375,3.3777,3.4369,3.4675,3.4633,3.4014,3.3842,3.3338,3.2291,3.1311,3.0375,2.9508,0.0,0.0,0.0,0.0,0.0,0.0,0.0,0.0,0.0,0.0,0.0,0.0,0.0,0.0,0.0,0.0,0.0,0.0,0.0,0.0,0.0,0.0,0.0,0.0,0.0,0.0,0.0,0.0,0.0,2.1836,2.1422,0.0,0.0,0.0,0.0,2.3358,2.3998,2.4805,2.5752,2.6747,2.7612,2.8377,2.8648,2.96,3.1286,3.1001,3.0854,3.0847,3.0365,2.9511,2.8354,2.832,2.8199,2.7952,2.8455,2.8653,2.8534,2.7572,2.7012,2.6716,2.6681,2.6933,2.7359,2.7545,2.8293,2.9155,2.9182,2.9344,2.9428,2.9073,2.9073,2.9268,2.9511,2.9078,0.0,0.0,2.8471,2.8064,2.8959,2.9114,2.9386,3.0772,3.115,3.151,3.2752,3.2993,3.2594,0.0,3.1196,3.1132,3.0024,0.0,3.0425,2.9998,3.1026,3.2027,3.2469,3.3973,3.4774,3.4324,3.4615,3.4701,3.4395,3.4977,3.5008,3.4244,3.4251,3.3779,3.2709,3.2128,3.1432,3.0646,2.987,0.0,0.0,0.0,0.0,0.0,0.0,0.0,0.0,0.0,0.0,0.0,0.0,0.0,0.0,0.0,0.0,0.0,0.0,0.0,0.0,0.0,0.0,0.0,0.0,0.0,0.0,0.0,0.0,2.2984,2.1964,0.0,2.3677,2.3466,2.3795,2.5049,2.5925,2.6736,2.7501,2.831,2.9273,3.0331,3.0906,3.1551,3.2393,3.2458,3.2319,3.1961,3.0938,3.009,2.9375,2.9184,2.8813,2.8322,2.9128,2.9105,2.85,2.8485,2.8411,2.8266,2.8266,2.8639,2.9174,2.9148,2.9629,3.0301,3.0139,3.0328,3.054,3.024,3.0281,3.04,3.0097,2.9935,2.9839,2.9694,2.9416,2.9316,2.9938,3.0279,3.0711,3.1705,3.2704,3.3523,3.3967,3.4615,3.4886,3.4147,3.3395,3.2816,3.2528,3.324,3.385,3.3838,3.4628,3.5357,3.5717,3.5577,3.5535,3.5687,3.5027,3.4703,3.5003,3.5399,3.5247,3.4434,3.4479,3.4076,3.3142,3.2646,3.1844,3.0679,3.0364,2.8815,0.0,0.0,0.0,0.0,0.0,0.0,0.0,0.0,0.0,0.0,0.0,0.0,0.0,0.0,0.0,0.0,0.0,0.0,0.0,0.0,0.0,0.0,0.0,0.0,0.0,0.0,2.2425,2.3951,2.313,2.3173,2.519,2.514,2.5501,2.6713,2.77,2.8533,2.9262,3.009,3.1121,3.2416,3.2586,3.3056,3.3941,3.3609,3.3278,3.2877,3.1856,3.0986,3.028,3.009,2.9714,2.9172,2.9837,2.986,2.9427,2.9647,2.9836,2.9907,2.9145,2.9459,3.026,2.9564,2.9785,3.0495,3.0469,3.0905,3.1468,3.1427,3.1522,3.1547,3.1208,3.1404,3.1649,3.1168,3.1086,3.1216,3.1709,3.1925,3.2318,3.3333,3.431,3.4971,3.4871,3.5674,3.6254,3.5569,3.4565,3.4033,3.459,3.5188,3.5823,3.646,3.7142,3.7677,3.7874,3.7168,3.6673,3.6741,3.5913,3.5457,3.5696,3.5439,3.4974,3.4268,3.4199,3.3638,3.2472,3.2514,3.1901,3.0469,3.0338,2.9014,2.6486,0.0,0.0,0.0,0.0,0.0,0.0,0.0,0.0,0.0,0.0,0.0,0.0,0.0,0.0,0.0,0.0,0.0,0.0,0.0,0.0,0.0,0.0,0.0,2.2631,2.2737,2.3372,2.4677,2.4828,2.5229,2.6253,2.6781,2.7466,2.8398,2.9432,3.0285,3.1008,3.2043,3.3219,3.4443,3.3478,3.3953,3.5978,3.4498,3.3779,3.3756,3.3203,3.2248,3.1057,3.1024,3.083,3.0614,3.0602,3.0859,3.1278,3.1085,3.1298,3.1503,2.9281,2.9435,3.0728,2.9056,2.9102,3.0059,3.0368,3.1264,3.2282,3.2545,3.2653,3.2713,3.2991,3.3631,3.4117,3.3644,3.3555,3.3674,3.4189,3.4019,3.4065,3.5461,3.5815,3.5828,3.555,3.628,3.6567,3.5123,3.4602,3.4785,3.6082,3.5897,3.6121,3.7678,3.8317,0.0,3.8575,3.8562,3.8198,3.7295,3.7147,3.6943,3.6365,3.5232,3.4324,3.3785,3.3505,3.2585,3.0897,3.1824,3.1713,3.0262,2.9823,2.9052,2.7807,0.0,0.0,0.0,0.0,0.0,0.0,0.0,0.0,0.0,0.0,0.0,0.0,0.0,0.0,0.0,0.0,0.0,0.0,0.0,0.0,0.0,2.2891,2.3734,2.3527,2.3989,2.4699,2.57,2.5686,2.6239,2.7899,2.8571,2.9272,3.0193,3.1391,3.2159,3.2359,3.3152,3.3756,3.4113,3.4403,3.4938,3.5721,3.5453,3.5388,3.5337,3.3661,3.2651,3.2354,3.118,3.0626,3.0637,3.0734,3.0937,3.1097,3.1403,3.1949,3.2462,3.1243,3.1131,3.1683,3.154,3.1988,3.2682,3.2786,3.3005,3.3314,3.3592,3.3988,3.4349,3.4388,3.4607,3.4685,3.3818,3.33,3.2945,3.2734,3.3385,3.4256,3.4785,3.634,3.7648,3.7591,3.8273,3.8874,3.8614,3.7312,3.6322,3.6541,3.7066,3.756,3.7861,3.8298,0.0,3.7985,3.7735,3.7432,3.7028,3.6593,3.6401,3.6575,3.6105,3.5573,3.4973,3.458,3.4009,3.3198,3.357,3.3516,3.2874,3.1363,3.0521,0.0,0.0,0.0,0.0,0.0,0.0,0.0,0.0,0.0,0.0,0.0,0.0,0.0,0.0,0.0,0.0,0.0,0.0,0.0,0.0,0.0,0.0,2.4186,2.5374,2.5474,2.564,2.601,2.6723,2.7342,2.815,2.9371,3.0211,3.102,3.1728,3.2875,3.3654,3.3841,3.4607,3.4972,3.495,3.5223,3.5534,3.5915,3.5865,3.5881,3.5991,3.4398,3.351,3.3293,3.2141,3.1595,0.0,3.1566,3.1743,3.1973,3.2144,3.2663,0.0,0.0,0.0,0.0,0.0,3.2704,3.3445,3.3335,3.3726,3.4281,3.4782,3.5137,3.5366,3.541,3.5579,3.5628,3.5014,3.4638,3.445,3.446,3.503,3.5778,3.6431,3.7688,3.8762,3.8617,3.9325,3.9862,3.9441,3.8689,0.0,3.7674,3.7599,3.7684,3.7965,3.8512,3.8783,3.8403,3.8101,3.7748,3.7469,3.6906,3.6569,3.6666,3.6033,0.0,0.0,0.0,3.4324,3.4141,3.395,0.0,0.0,0.0,3.2536,3.2183,0.0,0.0,0.0,2.9715,2.9624,0.0,0.0,0.0,0.0,0.0,0.0,0.0,0.0,0.0,0.0,0.0,0.0,0.0,0.0,0.0,0.0,2.5961,2.7531,2.7942,2.7687,2.7571,2.781,2.9332,3.0463,3.0739,3.1785,3.2594,3.3099,3.4037,3.4883,3.5379,0.0,0.0,0.0,0.0,3.5965,3.6456,3.5973,3.586,3.6117,3.5231,3.4539,3.4053,3.3507,3.3127,3.2968,3.2676,3.2876,3.3427,3.3082,3.3443,3.4065,3.3107,3.3156,3.3598,3.2329,3.2493,3.3397,3.3242,0.0,0.0,3.5983,3.6162,3.6038,3.6245,3.6525,3.6748,3.6638,3.6644,3.6832,3.7479,3.7611,3.7893,3.889,3.9346,3.9417,3.9158,3.9747,4.0023,3.8939,3.9149,3.9384,3.8997,3.7828,3.723,3.8154,3.8845,3.9206,3.9159,3.8858,3.8484,3.8076,0.0,0.0,3.6726,3.569,3.48,3.422,3.4088,3.4161,3.4498,3.389,3.3472,3.3425,3.4683,3.4829,3.3764,3.4874,3.5154,3.4652,3.3479,3.3408,0.0,0.0,0.0,0.0,0.0,0.0,0.0,0.0,0.0,0.0,0.0,0.0,0.0,0.0,0.0,2.5369,2.6928,2.838,2.9623,3.0389,3.048,2.9496,3.0451,3.1335,3.176,3.2994,3.3933,3.4416,3.5412,3.6241,3.6787,3.6723,3.6736,3.6998,3.6746,3.6628,3.6708,3.6585,3.6635,3.6879,0.0,0.0,3.5146,3.4011,3.3735,3.4057,3.3366,3.3509,3.4124,3.3477,3.4034,3.5218,3.4348,3.4342,3.4798,3.4673,3.4907,3.5329,3.5652,3.5805,3.5996,3.6922,3.7297,3.7378,3.7554,3.7793,0.0,3.6926,3.6723,3.6655,3.6098,3.7211,3.8391,3.8089,3.9483,4.0764,4.0221,4.011,4.0053,4.0023,3.9499,3.9087,3.9203,3.8819,3.8535,3.8729,3.8863,3.8735,3.8176,3.7886,3.7549,3.7021,3.7181,3.7349,3.7415,3.6808,3.6326,3.6093,3.5524,3.5546,3.6338,3.6224,3.6292,3.6589,3.6789,3.6607,3.6069,3.6472,3.6611,3.6457,3.5015,3.4419,0.0,0.0,0.0,0.0,0.0,0.0,0.0,0.0,0.0,0.0,0.0,2.1162,2.1919,0.0,2.488,2.6576,2.8271,2.9766,3.0891,3.2094,3.238,3.0981,3.2055,3.2957,3.3098,3.4389,3.5368,3.5572,3.6741,3.7457,3.7575,3.7711,3.7625,3.7429,3.727,3.7083,3.6795,3.7008,3.7049,3.6916,3.6067,3.5683,3.5617,3.4741,3.4516,3.4725,3.3923,3.3902,3.4416,3.4313,3.4677,3.5391,3.5394,3.568,3.6088,3.6045,3.6166,3.6447,3.6801,3.7105,3.7404,3.7916,3.843,3.8772,3.8399,3.8476,3.8533,3.7853,3.7727,3.7764,3.7466,3.851,3.9642,3.9528,4.0302,4.1074,4.087,4.0406,4.0053,4.0154,3.9777,3.9499,3.9645,3.9543,3.9278,3.8845,3.8768,3.867,3.8287,3.7937,3.7659,3.7447,3.7165,3.7034,3.7214,3.663,3.6216,3.6164,3.5949,3.6196,3.6981,3.7441,3.7631,3.7491,3.7723,3.7491,3.6745,3.6928,3.7009,3.7013,3.6351,3.6036,0.0,0.0,0.0,0.0,0.0,0.0,0.0,1.9288,1.9419,2.043,2.0791,2.1427,2.31,2.4341,2.5816,2.7949,2.973,3.124,3.2241,3.3476,3.382,3.2722,3.3765,3.4558,3.4556,3.5793,3.6652,3.6862,3.7862,3.841,3.8314,3.8558,3.8483,3.7904,3.7742,3.7486,3.7024,3.7404,3.7302,3.6754,3.6646,3.6386,3.5884,3.5432,3.5293,3.5344,3.4642,3.4345,3.4427,3.5004,3.5223,3.5368,3.6168,3.6687,3.701,3.6779,3.6949,3.7338,3.7667,3.8182,3.8762,3.8986,3.9508,3.9813,3.9055,3.9083,3.9323,3.8834,3.9051,3.9411,3.9584,4.0343,4.1152,4.1302,4.1285,4.121,4.1209,4.0574,3.9996,3.9996,3.9966,3.9966,3.9996,3.9899,3.9568,3.8863,3.8765,3.8759,3.8611,3.8239,3.8009,3.8172,3.7477,3.6931,3.6819,3.6179,3.5806,3.5767,3.6133,3.6631,3.7354,3.8064,3.8197,3.7708,3.8036,3.7763,3.6851,3.6989,3.7106,3.7204,3.7374,3.7429,2.0257,1.9731,1.9416,1.9731,1.9623,1.9571,0.0,2.0432,2.077,2.1124,2.1644,2.2471,2.3915,2.5114,2.6865,2.9889,3.1235,3.2556,3.4256,3.4787,3.5162,3.5507,3.5282,3.5379,3.6081,3.6726,3.7533,3.8452,3.8651,3.8968,3.948,3.8836,3.8637,3.8982,3.8351,3.7917,3.7876,3.7685,3.7418,3.7024,3.6592,3.632,3.6211,3.5904,3.6034,3.6453,3.5736,3.5019,3.4418,3.5005,3.532,3.562,3.6405,3.6722,3.6756,3.6985,3.7573,3.8353,3.9051,3.9183,3.9236,4.042,4.0358,3.9811,3.9677,4.0053,4.0327,3.9483,4.0142,4.1064,4.0801,4.1775,4.26,4.1793,4.2006,4.2118,4.0996,4.0356,3.9996,3.9996,3.9848,3.9774,3.9966,3.9554,3.9251,3.928,3.9139,3.8866,3.8337,3.819,3.8168,3.8187,3.8263,3.793,3.6978,3.6437,3.6088,3.5972,3.6492,3.7265,3.8306,3.8224,3.8221,3.838,3.7816,3.7359,3.7069,3.7184,3.7372,3.754,3.7631,3.7667,2.1411,2.0653,2.016,2.0534,2.0396,2.0376,2.1078,2.135,2.168,2.2288,2.2968,2.391,2.5434,2.6619,2.8293,3.1087,3.2359,3.3526,3.5041,3.5727,3.6156,3.638,3.6503,3.6799,3.7264,3.7688,3.8295,3.9186,3.9594,3.9738,3.969,3.9512,3.9399,3.9486,3.8819,3.8341,3.8028,3.789,3.7358,3.6332,3.6646,3.6495,3.6004,3.6059,3.6064,3.6081,3.5883,3.5434,3.4896,3.5571,3.5823,3.593,3.6828,3.7168,3.7193,3.768,3.8267,3.8897,3.9455,3.9926,4.03,4.0681,4.0602,4.038,4.067,4.0846,4.0928,4.085,4.1341,4.1827,4.1668,4.2303,4.284,4.2289,4.2093,4.1838,4.1187,4.0491,3.9996,3.9996,4.0067,4.0168,4.0357,4.0083,3.9759,3.9489,3.8958,3.8496,3.8215,3.8302,3.824,3.7893,3.8122,3.7944,3.6966,3.6888,3.694,3.7027,3.7474,3.8124,3.8995,3.8493,3.8337,3.8544,3.7818,3.7339,3.7108,3.7354,3.7576,3.7793,3.7827,3.7966,2.2765,2.1951,2.1265,2.155,2.1321,2.1199,2.1973,2.2169,2.2392,2.3203,2.4024,2.5084,2.6799,2.8099,2.9795,3.23,3.3506,3.4595,3.5817,3.6474,3.6926,3.7126,3.7473,3.7999,3.8726,3.8751,3.9126,4.0024,4.0361,4.0351,3.9942,3.9878,3.9775,3.9594,3.8998,3.8514,3.8092,3.8039,3.7453,3.6289,3.682,3.663,3.5854,3.6137,3.5964,3.5506,3.5941,3.5864,3.5488,3.6163,3.6416,3.6549,3.7437,3.7877,3.813,3.8748,3.9066,3.927,3.9872,4.0453,4.1003,4.1094,4.1123,4.1247,4.154,4.162,4.1704,4.2025,4.2321,4.2572,4.2525,4.2803,4.2994,4.261,4.2084,4.1616,4.1213,4.0664,4.0257,4.0213,4.04,4.0574,4.0675,4.0457,4.006,3.9629,3.902,3.8524,3.8321,3.8741,3.8844,3.8378,3.8453,3.8193,3.7311,3.7377,3.7592,3.7892,3.8306,3.875,3.9241,3.8673,3.8319,3.8318,3.7638,3.7274,3.7185,3.7699,3.808,3.8328,3.8378,3.8548,2.4239,2.3619,2.292,2.2931,2.2494,2.2167,2.2649,2.2792,2.2951,2.3629,2.4571,2.5855,2.772,2.9315,3.1231,3.3913,3.5015,3.589,3.6926,3.7062,3.7407,3.8256,3.8122,3.8704,0.0,4.0065,4.0126,4.1145,4.0795,4.0504,4.0453,3.9724,3.931,3.931,3.8736,3.8409,3.8409,3.8145,3.7838,3.7542,3.7251,3.6724,3.598,3.6029,3.5702,3.5241,3.605,3.6234,3.6005,3.655,3.71,3.7622,3.8155,3.8846,3.9586,4.0148,3.9938,3.9508,4.0374,4.0696,4.0898,4.2054,4.2378,4.2295,4.2073,4.2496,4.2962,4.2663,4.3006,4.342,4.3291,4.3367,4.3296,4.2522,4.2166,4.1765,4.0899,4.0859,4.0916,4.073,4.0845,4.0943,4.0718,4.0222,3.9772,3.9721,3.9616,3.9307,3.8582,3.9615,4.0353,4.0155,3.9707,3.9062,3.8152,3.7763,3.7777,3.8157,3.8739,3.9044,3.8922,3.857,3.8155,3.7642,3.7105,3.7007,3.7392,3.8382,3.9032,3.9351,3.9418,3.9553,2.4155,2.3542,2.3078,2.3405,2.3253,2.3178,2.3809,2.4076,2.4361,2.5068,2.5839,2.6855,2.8468,2.9938,3.1697,3.3999,3.5167,3.6122,3.7224,3.7618,3.7959,3.8247,3.8673,3.9285,4.0096,0.0,0.0,4.0958,4.0542,4.0083,3.9724,3.9478,3.9206,3.8998,3.8579,3.821,3.785,3.7945,3.7329,3.5945,3.5652,3.566,3.5954,3.6318,3.6349,3.6198,3.6701,3.7038,3.7257,3.7447,3.7884,3.8434,3.8965,3.9429,3.9934,4.0404,4.0703,4.0879,4.1322,4.1619,4.1888,4.2236,4.2119,4.1978,4.2793,4.3081,4.3222,4.3874,4.3867,4.3701,4.3655,4.3277,4.2795,4.2251,4.1953,4.1667,4.127,4.1213,4.1197,4.0961,4.0958,4.1001,4.1023,4.0622,4.042,4.0699,4.0377,4.012,4.017,4.0318,4.0286,3.9914,3.9372,3.9031,3.8977,3.892,3.9203,3.9885,4.001,4.0197,4.0416,3.9255,3.8616,3.866,3.7798,3.743,3.7667,3.8812,3.9469,3.9677,3.9739,3.9786,2.4935,2.4281,2.3647,2.4018,2.3906,2.3863,2.4307,2.4667,2.5003,2.5398,2.6496,2.777,2.9075,3.0677,3.2506,3.4583,3.5583,3.6495,3.7593,3.7952,3.8214,3.8503,3.9092,3.9651,3.9895,4.0052,4.0345,4.0857,4.0224,3.9724,3.9478,3.9154,3.8945,3.8788,3.8461,3.806,3.7628,3.7657,3.7108,3.5827,3.5474,3.5631,3.6246,3.6597,3.6653,3.6609,3.7396,3.7797,3.7849,3.8293,3.8761,3.9169,3.9669,4.0236,4.0781,4.1103,4.1579,4.215,4.2113,4.2078,4.2123,4.2534,4.232,4.2172,4.3371,4.3728,4.3821,4.4432,4.4328,4.3946,4.3624,4.3084,4.2495,4.2024,4.1836,4.1744,4.148,4.1585,4.161,4.1281,4.1243,4.1281,4.1198,4.1106,4.1121,4.1354,4.1309,4.1212,4.1194,4.0706,4.0273,3.9962,3.9651,3.9549,3.967,3.9902,4.0326,4.1013,4.0902,4.0891,4.1038,3.9704,3.8965,3.8992,3.8143,3.7936,3.8416,3.9556,4.0286,4.0698,4.0499,4.0383,2.6314,2.5704,2.4653,2.4798,2.4555,2.4328,2.435,2.4729,2.5068,2.4935,2.673,2.858,2.9614,3.1551,3.3586,3.5489,3.6224,3.6975,3.8069,3.8064,3.8241,3.905,3.9441,3.9764,3.999,4.0497,0.0,4.0833,0.0,3.9426,3.9581,3.8841,3.8526,3.8736,3.825,3.7903,3.7603,3.736,3.7168,3.7108,3.6627,3.6551,3.6805,3.685,3.673,3.6518,3.812,3.836,3.7797,3.9011,3.9633,3.9811,4.026,4.1172,4.2128,4.2128,4.2617,4.3239,4.2663,4.2101,4.18,4.2951,4.3113,4.3003,4.376,4.4336,4.4659,4.4322,4.4332,4.4223,4.3254,4.2836,4.2479,4.1874,4.191,4.1951,4.1563,4.1917,4.2195,4.174,4.173,4.1715,4.1291,4.1567,4.1773,4.1652,4.2208,4.2357,4.1606,4.0883,4.042,4.0354,4.0548,4.0565,4.0288,4.0611,4.1059,4.1494,4.1373,4.1147,4.0878,3.9941,3.9221,3.8712,3.8205,3.8451,3.9539,4.0542,4.1464,4.2299,4.1654,4.1317,2.559,2.5278,2.4898,2.5429,2.5632,2.583,2.6312,2.6951,2.7559,2.8022,2.8899,2.9923,3.0947,3.1984,3.3314,3.5262,3.5932,3.6841,3.8629,3.884,3.9004,3.9604,4.0005,4.0217,4.0311,3.9943,3.9878,0.0,3.989,3.927,3.8461,3.8409,3.8356,3.8198,3.8092,3.7967,3.7887,3.7437,3.6898,3.6327,3.6632,3.6897,3.7107,3.7725,3.8056,3.8171,3.8597,3.8892,3.9098,3.8823,3.9468,4.055,4.0279,4.1067,4.24,4.2631,4.3053,4.3553,4.3557,4.3357,4.3072,4.3259,4.3497,4.3779,4.4181,4.4166,4.4123,4.4418,4.4052,4.3541,4.3317,4.3154,4.3016,4.2555,4.2835,4.3006,4.2381,4.2711,4.2906,4.2191,4.2249,4.2252,4.1803,4.201,4.216,4.1876,4.163,4.1577,4.1766,4.1332,4.1003,4.104,4.0705,4.0605,4.0931,4.1265,4.16,4.1938,4.2044,4.2038,4.1922,4.0685,3.9998,4.0022,3.8911,3.8848,3.9861,4.0883,4.1757,4.2535,4.239,4.1995,2.5956,2.5644,2.5281,2.5983,2.5938,2.593,2.6443,2.7242,2.7994,2.8378,2.9569,3.0859,3.1888,3.2615,3.3756,3.5981,3.6292,3.6911,3.8608,3.8813,3.8841,3.9155,3.9719,3.9917,3.9533,3.9588,3.962,3.9569,3.9258,3.8945,3.8566,3.8566,3.8566,3.8566,3.8566,3.8457,3.8225,3.7776,3.7256,3.6528,3.6983,3.7308,3.755,3.8122,3.8568,3.8838,0.0,3.9391,3.9064,3.9098,3.9592,4.0345,4.0208,4.0828,4.1817,4.2191,4.2562,4.2889,4.3017,4.3333,4.3678,4.3592,4.3699,4.3892,4.442,4.4513,4.4437,4.4414,4.4216,4.3901,4.3415,4.3424,4.3551,4.3403,4.3452,4.348,4.3264,4.3314,4.3123,4.2413,4.2405,4.2403,4.2054,4.2233,4.2358,4.2039,4.1826,4.1761,4.1886,4.128,4.0891,4.1049,4.0941,4.1013,4.1468,4.1878,4.219,4.2371,4.2474,4.2534,4.2571,4.1501,4.0836,4.0687,3.968,3.9663,4.0707,4.1263,4.2128,4.3256,4.2961,4.2378,2.673,2.6429,2.5839,2.6453,2.5973,2.5477,2.5813,2.6789,2.7597,2.777,2.971,3.1651,3.2628,3.3292,3.4502,3.6801,3.685,3.7012,3.8355,3.8428,3.8359,3.8376,3.9058,3.9297,3.855,3.9332,3.9608,3.8945,3.8631,3.8671,3.9206,3.8998,3.8998,3.9322,3.9339,3.9077,3.8552,3.8361,3.7987,3.7331,3.7779,3.8066,3.8177,3.855,3.8847,3.9058,4.0081,0.0,3.8561,3.9589,3.9805,3.9543,4.0109,4.05,4.0865,4.1367,4.1795,4.2043,4.1984,4.2744,4.3746,4.3822,4.3788,4.3814,4.4524,4.496,4.5025,4.4436,4.4564,4.464,4.366,4.3713,4.4052,4.4195,4.3905,4.3749,4.4075,4.3706,4.3114,4.2551,4.2542,4.254,4.2238,4.2458,4.2558,4.217,4.2277,4.2301,4.1984,4.1134,4.0655,4.0828,4.1258,4.1609,4.1803,4.2362,4.2727,4.2803,4.2825,4.2864,4.2957,4.2287,4.1646,4.1174,4.0541,4.0755,4.1816,4.1816,4.2623,4.4136,4.3384,4.2618,2.6721,2.6823,2.6646,2.656,2.6411,2.6307,2.6426,2.7783,2.9193,2.9684,3.1377,3.286,3.3191,3.3896,3.48,3.5916,3.6562,3.7246,3.8244,3.854,3.8692,3.8692,3.9081,3.9212,3.8773,3.8715,3.8828,0.0,3.8893,3.8788,3.8893,3.9102,3.9322,3.9633,3.9576,3.9322,3.8831,3.9183,3.8867,3.7953,3.9322,3.9677,3.9107,4.0041,4.0347,4.0222,4.0414,0.0,3.8894,3.9644,3.9363,3.8486,3.9546,4.0277,4.0763,4.1265,4.1865,4.2443,4.266,4.297,4.3247,4.3065,4.3749,4.4673,4.4646,4.4799,4.4887,4.4605,4.4586,4.4572,4.4136,4.4382,4.4646,4.4363,4.4533,4.4674,4.414,4.366,4.3177,4.2804,4.3355,4.3615,4.2734,4.3138,4.3255,4.2314,4.2072,4.2055,4.2205,4.1792,4.1358,4.1076,4.1759,4.2027,4.152,4.2521,4.3087,4.29,4.3232,4.3373,4.3232,4.2687,4.2405,4.2468,4.1831,4.196,4.2932,4.2973,4.3507,4.4407,4.3613,4.2881,2.7182,2.7054,2.6644,2.6227,2.6029,2.6042,2.6505,2.7639,2.8937,3.0179,3.1634,3.289,3.3698,3.3989,3.4606,3.6043,3.6421,3.6798,3.7573,3.8056,3.8189,3.7752,3.8273,3.8514,3.8198,3.8303,3.8566,3.8998,3.9154,3.931,3.9465,4.0032,4.0389,4.0555,4.0474,4.0419,4.0369,4.0319,3.9745,3.8679,3.9758,3.9706,3.8617,3.9449,3.991,4.003,3.9897,0.0,3.8863,3.9084,3.8849,3.8482,3.9068,3.9681,4.0299,4.0745,4.1335,4.192,4.2049,4.274,4.3497,4.3063,4.3715,4.4761,4.4864,4.505,4.5218,4.5218,4.5309,4.5395,4.5492,4.5403,4.5407,4.5718,4.5742,4.5375,4.4337,4.4388,4.4432,4.367,4.3925,4.4056,4.3422,4.323,4.3006,4.2526,4.2353,4.2331,4.253,4.2456,4.2034,4.1201,4.2068,4.2426,4.1759,4.2844,4.3493,4.332,4.3662,4.3795,4.3614,4.3439,4.3203,4.2913,4.2207,4.2139,4.2684,4.2296,4.28,4.4134,4.3734,4.3449,2.7683,2.7266,2.658,2.5891,2.5611,2.5731,2.6472,2.727,2.8392,3.0296,3.1483,3.26,3.3893,3.3964,3.4392,3.6103,3.6217,3.6302,3.6781,3.7335,3.7481,3.6729,3.7324,3.7773,3.7691,3.7998,3.8368,3.8684,3.9262,3.9803,4.0326,4.0959,4.1361,4.1461,4.1392,4.1479,4.1782,4.1167,4.0411,3.9527,3.9969,3.945,3.8194,3.8727,3.9177,3.9514,3.9285,0.0,0.0,3.8657,3.8514,3.8246,3.8798,3.9329,3.9802,4.0343,4.0921,4.1478,4.151,4.2432,4.3526,4.326,4.392,4.4858,4.5079,4.5392,4.5704,4.5752,4.5934,4.6172,4.6334,4.6061,4.5879,4.671,4.6544,4.5881,4.4714,4.5204,4.554,4.437,4.4367,4.4384,4.3835,4.3347,4.2967,4.2862,4.2767,4.2746,4.2879,4.3013,4.2649,4.1459,4.2413,4.2885,4.2221,4.3232,4.3873,4.3793,4.4014,4.4128,4.4008,4.4128,4.393,4.3372,4.2648,4.2353,4.2516,4.1751,4.2231,4.3836,4.369,4.3828,2.8004,2.7587,2.6868,2.5701,2.5711,2.61,2.6572,2.7408,2.8631,3.0645,3.1676,3.2445,3.3318,3.3911,3.4444,3.5162,3.5814,3.622,3.6106,3.6726,3.6993,3.65,3.6865,3.74,3.7933,3.7797,3.7904,3.8421,3.8876,3.9777,4.1134,4.1261,4.1511,4.2029,4.1705,4.1726,4.2079,4.1218,4.0768,4.0662,4.0445,3.9888,3.8988,3.9368,3.9433,3.923,3.9214,0.0,0.0,3.9081,3.8463,3.6776,3.9117,3.9861,3.9686,4.0413,4.1199,4.1955,4.1939,4.2188,4.2611,4.3527,4.4584,4.5455,4.5056,4.5583,4.6222,4.5681,4.5835,4.6078,4.5557,4.5572,4.5739,4.5882,4.6079,4.6021,4.5423,4.5609,4.5513,4.418,4.4731,4.4943,4.3506,4.3853,4.4108,4.3432,4.316,4.3068,4.316,4.3322,4.3114,4.2201,4.3013,4.3379,4.2789,4.3662,4.4207,4.406,4.4262,4.4368,4.4354,4.4426,4.4486,4.454,4.3876,4.3533,4.3557,4.2876,4.3041,4.3972,4.3361,4.3578,2.8691,2.7722,2.652,2.5436,2.5425,2.6038,2.7401,2.7739,2.8582,3.1559,3.1937,3.203,3.3033,3.3429,3.3801,3.4445,3.4933,3.536,3.5662,3.6316,3.6713,3.6413,3.6982,3.7572,3.7986,3.821,3.8601,3.9284,3.9477,4.0075,4.13,4.1074,4.1234,4.1968,4.1909,4.2085,4.2582,4.2256,4.1544,4.055,4.0799,4.0009,3.8379,3.8859,3.9016,3.8895,3.8569,0.0,0.0,3.8157,3.7868,3.7116,3.866,3.9553,4.0128,4.0859,4.1264,4.1509,4.2019,4.2219,4.2341,4.3026,4.3915,4.4795,4.4865,4.5037,4.5275,4.5587,4.5908,4.626,4.6845,4.7046,4.7031,4.657,4.6328,4.6052,4.5465,4.5592,4.5562,4.462,4.4821,4.4981,4.4494,4.4169,4.3897,4.3723,4.3498,4.334,4.3393,4.3664,4.3759,4.3497,4.3818,4.3752,4.2994,4.3905,4.451,4.4407,4.4505,4.4592,4.4592,4.4646,4.4719,4.4827,4.4163,4.386,4.3948,4.3261,4.342,4.4365,4.4128,4.455,2.9553,2.8579,2.7313,2.6342,2.6267,2.6892,2.8514,2.8458,2.8959,3.2066,3.212,3.1926,3.2905,3.3038,3.3287,3.419,3.4366,3.4641,3.5378,3.5988,3.6297,3.6047,3.6821,3.7431,3.7628,3.8165,3.8773,3.9328,3.9468,3.99,4.0844,4.0497,4.0767,4.1854,4.1767,4.2019,4.2629,4.2405,4.1686,4.0582,4.0668,3.9773,3.8142,3.8418,3.8449,3.8202,3.8024,0.0,0.0,3.7328,3.7312,3.7169,3.8219,3.9131,3.9956,4.0857,4.1148,4.1159,4.1864,4.21,4.2176,4.2767,4.3392,4.4041,4.4719,4.4868,4.4967,4.569,4.5899,4.6234,4.7516,4.7548,4.716,4.6891,4.6467,4.601,4.5583,4.5773,4.5804,4.5097,4.5047,4.5103,4.4941,4.4326,4.3892,4.391,4.3781,4.3681,4.3728,4.4045,4.4318,4.4487,4.454,4.4307,4.3649,4.4308,4.4764,4.4751,4.4777,4.4839,4.4876,4.4924,4.4984,4.5045,4.4368,4.4068,4.4178,4.3504,4.3665,4.4632,4.4709,4.5275,3.0527,3.0319,2.9851,2.8923,2.8726,2.8992,2.9782,2.9698,2.9982,3.1834,3.2202,3.239,3.2968,3.2896,3.3114,3.4377,3.4204,3.4274,3.5261,3.5665,3.5744,3.5258,3.6074,3.6756,3.6832,3.7491,3.7924,3.7916,3.8332,0.0,3.9704,3.9451,4.0086,4.1763,4.1341,4.1408,4.2005,4.116,4.0877,4.1063,3.9966,3.9148,3.8602,3.8317,3.7802,0.0,0.0,0.0,0.0,3.6929,3.6921,3.6373,3.8135,3.8809,3.8944,4.0237,4.0829,4.105,4.1483,4.1696,4.198,4.3032,4.3296,4.3429,4.456,4.531,4.5838,4.6033,4.5792,4.5792,4.6994,4.6278,4.5472,4.6473,4.6304,4.5919,4.5992,4.6252,4.6259,4.5441,4.5507,4.5382,4.4389,4.436,4.4378,4.4051,4.4048,4.4151,4.426,4.4471,4.4695,4.4957,4.5101,4.5126,4.4984,4.4931,4.4943,4.5091,4.5102,4.5159,4.5292,4.5283,4.5333,4.5389,4.4675,4.432,4.4388,4.3652,4.3782,4.4709,4.485,4.5362,3.0066,2.9332,2.8443,2.7761,2.7555,2.789,2.9351,2.9568,2.9995,3.1834,3.2215,3.2306,3.2593,3.268,3.2941,3.3709,3.3897,3.4286,3.5332,3.5878,3.5985,3.5557,3.5923,3.6611,3.754,3.768,3.7967,3.8579,3.8932,3.9339,3.9875,3.9829,4.0192,4.1156,4.0909,4.0981,4.1394,4.1298,4.0892,4.021,3.9686,3.9148,3.8602,3.8304,3.8076,0.0,0.0,0.0,0.0,3.6567,3.6567,3.5887,3.7347,3.8615,3.9713,4.0296,4.0586,4.0793,4.1343,4.1322,4.1127,4.1723,4.2146,4.2567,4.3314,4.4419,4.5446,4.5677,4.5708,4.5751,4.6145,4.6158,4.61,4.6428,4.6045,4.5664,4.584,4.5546,4.5223,4.5051,4.5142,4.5117,4.4745,4.4733,4.4745,4.4688,4.4624,4.4599,4.4701,4.4931,4.5129,4.5266,4.5431,4.545,4.5225,4.5148,4.5145,4.522,4.5241,4.5283,4.5371,4.5455,4.5526,4.5547,4.545,4.5409,4.5413,4.5339,4.5153,4.4895,4.4335,4.4491,2.9785,2.9541,2.9186,2.8618,2.8355,2.8474,2.9671,3.0074,3.0501,3.1408,3.1938,3.2201,3.2222,3.2324,3.2637,3.3227,3.3471,3.396,3.4882,3.5612,3.6021,3.6026,3.606,3.6514,3.7545,3.7744,3.8136,3.8892,3.9182,3.9526,3.9952,3.9821,3.9999,4.0548,4.0265,4.0296,4.077,4.0677,4.0441,3.9959,3.9607,3.9162,3.8711,3.8517,3.8245,0.0,0.0,0.0,0.0,3.6102,3.6171,3.5666,3.6699,3.802,3.9313,3.9169,3.9683,4.0455,4.0673,4.0878,4.1161,4.1573,4.2332,4.3197,4.3847,4.4599,4.5288,4.5556,4.558,4.5605,4.6004,4.5885,4.5767,4.6119,4.5738,4.5348,4.5438,4.5174,4.4953,4.5025,4.508,4.512,4.508,4.5099,4.5082,4.5109,4.5063,4.5074,4.5189,4.5344,4.5503,4.5641,4.5735,4.5723,4.5621,4.5464,4.5407,4.5445,4.549,4.5558,4.5623,4.5711,4.5606,4.5292,4.5423,4.5342,4.5038,4.5175,4.4995,4.4498,4.3923,4.3874,0.0,3.0556,3.1343,3.0802,3.0437,3.0294,3.0465,3.0944,0.0,3.0731,3.1442,3.2151,3.1911,3.1949,3.2225,3.2832,3.3081,3.3501,3.4189,3.4986,3.5734,3.6471,3.6341,3.6465,3.7019,3.7711,3.835,3.8904,3.9145,3.9526,3.9996,3.9601,3.9571,3.9996,3.9557,3.9608,4.0164,3.9621,3.9621,4.0119,3.9563,3.9158,3.8863,3.8854,3.836,0.0,0.0,0.0,0.0,3.57,3.5858,3.577,3.6253,3.7121,3.8011,3.727,3.8278,4.0006,3.9616,4.042,4.1713,4.2355,4.3499,4.4744,4.548,4.5517,4.5363,4.5626,4.5449,4.5382,4.6265,4.5528,4.4787,4.5644,4.5425,4.5011,4.4966,4.515,4.5333,4.5333,4.5352,4.537,4.5435,4.5444,4.5421,4.5371,4.5409,4.551,4.5698,4.5722,4.582,4.6073,4.6006,4.5982,4.6096,4.5864,4.5725,4.5713,4.5783,4.5832,4.5906,4.5855,4.5478,4.4724,4.4649,4.4288,4.3602,4.3547,4.355,4.3589,4.3467,4.3362,2.8479,0.0,2.9931,2.9394,2.9441,2.9617,0.0,3.0455,3.1087,3.0745,3.1556,3.2191,3.1556,3.1913,3.2239,3.2025,3.2909,3.3765,3.4214,3.476,3.5125,3.5235,3.5379,3.5831,3.6725,3.733,3.8096,3.9127,3.9411,3.9675,3.9996,4.0067,4.011,3.9996,3.9865,3.9889,4.0041,3.9903,3.9612,3.9213,3.927,3.9083,3.8666,3.8389,3.8188,0.0,0.0,0.0,3.5249,3.5848,3.6019,3.5907,3.6385,3.6842,3.7243,3.6997,3.7635,3.8647,3.9017,3.9854,4.0965,4.2003,4.3015,4.3775,4.3759,4.4524,4.5422,4.5634,4.5353,4.5041,4.5364,4.532,4.5227,4.5394,4.537,4.5332,4.5414,4.5477,4.5571,4.5728,4.5796,4.5828,4.579,4.5828,4.585,4.5842,4.5813,4.5819,4.5925,4.5968,4.6025,4.6082,4.615,4.6204,4.6176,4.5983,4.5867,4.5927,4.5323,4.5006,4.5089,4.4489,4.4075,4.3897,4.3278,4.3202,4.3672,4.2296,4.1948,4.2535,4.1807,4.175,2.7933,2.8612,2.9229,2.8778,2.8843,2.9,2.9106,2.9902,3.056,3.0372,3.0964,3.14,3.1109,3.1418,3.1787,3.1966,3.2876,3.3941,3.4954,3.5356,3.5561,3.5559,3.6166,3.6694,0.0,3.7848,3.8666,3.9557,3.9719,3.9895,4.0154,4.027,4.0314,4.0198,4.027,4.0213,3.9996,3.9996,3.9821,3.9411,3.9438,3.9258,3.8841,3.8515,3.8174,0.0,0.0,0.0,3.5727,3.5794,3.5972,3.6225,3.6086,3.6594,3.7313,3.6477,3.739,3.9031,3.9199,4.0073,4.1256,4.1702,4.235,4.2983,4.2927,4.3601,4.433,4.4241,4.4383,4.4565,4.4699,4.5122,4.5517,4.5492,4.556,4.565,4.5729,4.577,4.5834,4.6008,4.6041,4.6039,4.6037,4.6033,4.6056,4.6095,4.6053,4.6053,4.6123,4.613,4.6156,4.6184,4.6234,4.6097,4.5673,4.5523,4.5621,4.6054,4.5261,4.481,4.4841,4.4079,4.3468,4.3054,4.1434,4.1211,4.2453,4.1057,4.0756,4.15,4.0956,4.0913,2.7582,2.8191,2.866,2.8459,2.8469,2.8497,2.8682,2.938,2.9979,2.9919,3.0297,3.0689,3.0793,3.1099,3.1468,3.1968,3.2796,3.4023,3.5625,3.612,3.6305,3.6329,3.7451,0.0,3.7697,3.8652,3.9526,4.0009,4.0053,4.0184,4.0428,4.0289,4.0233,4.0303,4.049,4.0348,3.9863,3.9903,3.9901,3.9814,3.9711,3.9351,3.8832,3.8704,3.8218,3.7449,0.0,0.0,3.6428,3.5846,3.6042,3.6609,3.5886,3.6346,3.7257,3.5848,3.7049,3.9387,3.9445,4.0483,4.1756,4.1474,4.1895,4.2534,4.2734,4.2957,4.3098,4.2772,4.3412,4.4265,4.4508,4.5163,4.577,4.577,4.5867,4.5941,4.5947,4.5983,4.6064,4.6189,4.6153,4.6159,4.6212,4.6171,4.6144,4.6209,4.6221,4.6242,4.6286,4.625,4.625,4.6288,4.6249,4.5873,4.5055,4.4947,4.5178,4.5772,4.4989,4.439,4.4131,4.3462,4.2682,4.1816,3.9744,3.9352,4.0763,3.9968,3.9932,4.0655,4.061,4.0526,2.6885,2.7163,2.7514,2.7953,2.8212,2.8339,2.8366,2.919,2.9943,2.997,3.0949,3.1588,3.1066,3.209,3.2532,3.1086,3.2127,3.3527,3.4759,3.5951,3.6533,3.6056,0.0,3.8264,3.8336,3.8908,3.9571,4.0298,4.0356,4.0428,4.0616,4.0167,3.9873,3.9887,3.9929,3.9676,3.9074,3.9578,3.9521,3.8894,3.9279,3.8833,3.7665,3.8073,3.8007,3.7521,0.0,3.6579,3.7119,3.673,3.6805,3.7059,3.6648,3.5961,3.5204,3.5413,3.5748,3.6438,3.8658,4.0071,4.1012,4.1606,4.2354,4.303,4.3156,4.332,4.343,4.3422,4.4031,4.4874,4.5629,4.5959,4.6109,4.6042,4.6091,4.6154,4.6144,4.6159,4.6171,4.6206,4.6237,4.6262,4.6284,4.6286,4.6269,4.6289,4.6289,4.6289,4.6307,4.6289,4.6289,4.6307,4.6288,4.5916,4.4998,4.496,4.4705,4.4042,4.3238,4.2119,4.0642,4.0468,3.9993,3.9122,3.9325,3.9536,3.9723,3.9531,3.9786,4.0442,4.0441,4.0383,2.6529,2.6759,2.6913,2.7322,2.7603,2.7847,2.8205,2.8932,2.971,3.0453,3.1078,3.1585,3.1846,3.2057,3.2184,3.2247,3.3492,3.4737,3.5556,3.6236,3.6796,0.0,0.0,3.8358,3.8868,3.9287,3.9723,4.017,4.0121,4.0139,4.021,3.962,3.9324,3.9324,3.9421,3.928,3.8902,3.9049,3.9013,3.8797,3.9006,3.8684,3.7989,3.7894,3.7817,3.7685,0.0,3.6368,3.7016,3.6354,3.6136,3.6148,3.6077,3.5668,3.5289,3.6518,3.7245,3.7808,3.9283,4.0215,4.081,4.1132,4.1526,4.1879,4.2027,4.2139,4.2399,4.3331,4.4202,4.4957,4.5382,4.5816,4.6163,4.6195,4.6206,4.6193,4.6204,4.6198,4.6208,4.6191,4.6229,4.6247,4.6242,4.6258,4.6254,4.6241,4.6241,4.6243,4.6259,4.6257,4.6088,4.5636,4.5522,4.4955,4.3601,4.3486,4.3311,4.2918,4.2104,4.1069,3.9792,3.8837,3.8575,3.9084,3.8463,3.8772,4.0037,3.9573,3.9692,4.0349,4.0377,4.0351,2.6176,2.6394,2.6542,2.6824,2.7155,2.7562,2.8248,2.881,2.953,3.0823,3.1113,3.1455,3.2526,3.2167,3.2283,3.4043,3.4974,3.5735,3.6413,3.6688,3.7165,3.806,3.8346,3.8752,3.9448,3.9712,3.9872,3.9934,3.9787,3.9676,3.9564,3.8932,3.8596,3.8677,3.8813,3.8783,3.8506,3.8527,3.8558,3.8677,3.8649,3.8526,3.8246,3.7788,3.771,3.7814,3.6518,3.6359,3.7012,3.6077,3.5658,3.5593,3.558,3.5683,3.6036,3.7462,3.8506,3.9301,3.9825,4.0302,4.0673,4.0739,4.0781,4.0944,4.1469,4.1663,4.2049,4.375,4.4707,4.5214,4.5268,4.5717,4.6167,4.6254,4.6255,4.6222,4.6191,4.619,4.6205,4.6207,4.6202,4.6195,4.6197,4.6194,4.6187,4.6177,4.6174,4.6092,4.5894,4.5861,4.5566,4.474,4.4562,4.3875,4.2351,4.1919,4.1766,4.1866,4.113,4.0362,3.968,3.8358,3.8156,3.9223,3.8271,3.8562,4.0192,3.9765,3.9802,4.0289,4.0317,4.0308,2.5485,2.5859,2.6248,2.6777,2.7294,2.7837,2.8594,2.8951,2.9495,3.072,3.1127,3.1496,3.2581,3.3262,3.4182,3.5926,3.543,3.5227,3.6343,0.0,3.7813,3.8564,3.9185,3.976,4.0202,4.026,4.0108,3.9761,3.9536,3.9271,3.8876,3.8137,3.7761,3.7976,3.7976,3.7814,3.7406,3.8126,3.8331,3.7962,3.8175,3.8047,3.7643,3.7577,3.7636,3.7781,3.7219,3.7189,3.7496,3.6658,3.6397,3.6446,3.5957,3.6255,3.7024,3.7195,3.7749,3.8523,3.9415,3.9954,4.0307,4.0757,4.0923,4.1298,4.2998,4.3475,4.3808,4.5605,4.6104,4.6108,4.6112,4.6191,4.6269,4.6229,4.625,4.6283,4.6212,4.6193,4.6192,4.6195,4.62,4.6206,4.6203,4.6203,4.6176,4.6119,4.6115,4.5815,4.4997,4.4895,4.458,4.3696,4.3596,4.3171,4.2099,4.0991,4.0426,4.0614,4.0056,3.9649,3.952,3.9326,3.8914,3.8215,3.9616,3.9988,3.9292,3.998,4.0276,4.0205,4.0157,4.0157,2.5314,2.6069,2.6733,2.6562,2.756,2.8638,2.8861,2.951,3.0367,3.1525,3.1625,3.182,3.2823,3.4314,3.5546,3.5898,3.6429,3.6852,3.6976,3.8044,3.8807,3.8823,3.9053,3.9451,4.0097,3.967,3.947,3.969,3.9167,3.8793,3.8632,3.7865,3.7565,3.79,3.79,3.7653,3.7129,3.8171,3.8211,3.7358,3.7806,3.8016,3.7962,3.7647,3.7806,3.8312,3.7255,3.7044,3.7416,3.6554,3.6166,3.6033,3.586,3.6041,3.6485,3.7012,3.7638,3.8336,3.9065,3.9876,4.0625,4.0935,4.1044,4.1188,4.1871,4.207,4.2414,4.4135,4.463,4.4889,4.597,4.662,4.685,4.6316,4.6593,4.6838,4.6308,4.6128,4.6099,4.6177,4.6123,4.6085,4.6137,4.6095,4.5877,4.5303,4.522,4.486,4.3871,4.3737,4.3413,4.2548,4.1808,4.1176,4.0673,4.0024,3.9642,3.9629,3.9098,3.8843,3.8941,3.8246,3.7975,3.827,3.8783,3.9258,3.97,3.9957,4.0129,4.0205,4.0168,4.0186,2.5288,2.6021,2.6846,2.6677,2.7815,2.9047,2.934,3.0015,3.0894,3.1923,3.2463,3.3013,3.3764,3.548,3.6664,3.635,3.7334,3.796,3.7455,3.8446,3.9158,3.8923,3.8919,3.9179,3.9849,3.9353,3.9096,3.9319,3.8745,3.8336,0.0,3.7685,3.7558,3.7962,3.8075,3.7846,3.7361,3.8326,3.815,3.6932,3.7445,3.786,3.8128,3.746,3.759,3.8299,3.7195,3.6889,3.7141,3.6445,3.6066,3.591,3.5881,3.6114,3.6525,3.705,3.7755,3.856,3.9088,3.9956,4.0847,4.0968,4.0975,4.0991,4.1249,4.1471,4.1929,4.3334,4.3902,4.439,4.5585,4.6452,4.6872,4.6276,4.6546,4.6777,4.6204,4.5935,4.5838,4.5861,4.5834,4.5789,4.5783,4.5815,4.5557,4.4667,4.4498,4.4018,4.2818,4.2611,4.2205,4.1301,4.04,3.9804,3.9686,3.9342,3.9133,3.9132,3.8621,3.8484,3.8841,3.812,3.8064,3.8803,3.8677,3.9006,3.9851,3.9772,3.9808,3.9951,3.988,3.9857,2.5288,2.5641,2.6367,2.7115,2.8026,2.8994,3.0073,3.0474,3.0893,3.1811,3.3674,3.5186,3.556,3.6631,3.7536,3.7595,3.807,3.822,3.7666,3.8206,3.8685,3.8865,3.8904,3.9061,3.9453,3.9484,3.9213,3.8557,3.8303,3.8033,0.0,3.7625,3.7801,3.8202,3.8397,3.8348,3.8089,3.8567,3.8104,3.6687,3.7091,3.7572,3.8029,3.685,3.6816,3.7653,3.7156,3.6859,3.677,3.6367,3.6287,3.6377,3.6104,3.6611,3.747,3.7341,3.8054,3.9146,3.9468,4.0153,4.0886,4.0817,4.0716,4.0742,4.1535,4.2241,4.2938,4.3743,4.4457,4.4985,4.4985,4.5576,4.6144,4.6022,4.5958,4.5877,4.5816,4.5588,4.5339,4.5227,4.5247,4.5247,4.5111,4.5313,4.5182,4.4306,4.401,4.334,4.1876,4.149,4.1007,3.9993,3.9528,3.932,3.9396,3.8961,3.8845,3.9178,3.8691,3.8708,3.9356,3.9455,3.9555,3.9693,3.9693,3.9621,3.9493,3.9432,3.9377,3.9396,3.9186,3.908,2.5618,2.611,2.6743,2.7483,2.8323,2.9197,3.0112,3.0984,3.1984,3.3116,3.462,3.5798,3.6068,3.6658,0.0,3.773,3.8707,3.9064,3.8164,3.9396,3.9859,3.8576,3.8837,3.9068,3.8993,3.889,3.8822,3.89,3.8725,0.0,0.0,3.8464,3.8612,3.9031,3.8514,3.8094,3.7837,3.7948,3.7623,3.6824,3.7131,3.741,3.7713,3.7044,3.7142,3.7841,3.7671,3.7412,3.7079,3.6903,3.6693,3.6488,3.6747,3.662,3.6348,3.6632,3.7433,3.842,3.8621,3.9609,4.0756,4.0742,4.0577,4.0436,4.0665,4.0777,4.1016,4.1858,4.2555,4.3159,4.3733,4.4451,4.5073,4.5368,4.5823,4.6065,4.5665,4.5045,4.4646,4.492,4.4744,4.4493,4.4417,4.4073,4.3555,4.2767,4.2197,4.1453,4.0304,4.0057,3.9849,3.9452,3.9139,3.9128,3.9568,3.8745,3.8722,3.9903,3.8803,3.8328,3.8824,3.877,3.8774,3.8847,3.8763,3.8832,3.9072,3.8873,3.8864,3.9051,3.8795,3.8623,2.551,2.6102,2.6856,2.7728,2.8412,2.9346,3.0996,3.2029,3.3075,3.454,3.5678,3.6494,3.6872,3.7236,0.0,3.7953,3.8895,3.9237,3.8347,3.9358,3.9735,3.8376,3.8489,3.8697,3.8692,3.8585,3.8639,3.8967,3.8855,0.0,0.0,3.8707,3.879,3.9127,3.8467,3.7997,3.7715,3.7907,3.7689,3.703,3.7116,3.7209,3.7262,3.6815,3.6925,3.7529,3.7369,3.7209,3.7094,3.7139,3.701,3.6761,3.6922,3.6587,3.6054,3.6478,3.726,3.819,3.8609,3.9552,4.056,4.0493,4.0511,4.0487,4.0027,4.0234,4.0703,4.1263,4.1757,4.2272,4.2899,4.3559,4.4175,4.4745,4.5156,4.5318,4.4951,4.4455,4.413,4.4304,4.4253,4.4036,4.3624,4.3277,4.2682,4.1613,4.0815,4.0152,3.969,3.956,3.9486,3.9371,3.9056,3.9019,3.946,3.8827,3.8959,4.0256,3.9157,3.8591,3.8824,3.8532,3.8401,3.8462,3.8303,3.8316,3.8545,3.8307,3.8255,3.8339,3.815,3.7987,2.5216,2.5864,2.6892,2.8021,2.8612,2.9669,3.2477,3.3459,3.4246,3.5983,3.666,3.7144,3.7853,3.8066,3.8194,3.8289,3.8797,3.8986,3.8376,3.8659,3.8751,3.8237,3.8028,3.8081,3.8441,3.8516,3.8627,3.8819,0.0,0.0,0.0,3.8513,3.8437,3.8681,3.8287,3.7899,3.759,3.8003,3.7855,3.7084,3.7017,3.6954,3.6862,3.6316,3.6426,3.6982,3.6579,3.6593,3.6955,3.711,3.7085,3.6953,3.6746,3.6477,3.6274,3.6678,3.7365,3.8209,3.9088,3.976,4.0225,4.011,4.0409,4.0639,3.9662,4.023,4.1252,4.1442,4.1615,4.1863,4.2349,4.2757,4.3227,4.3962,4.4027,4.3922,4.3911,4.3788,4.3643,4.3428,4.3645,4.3565,4.2628,4.2559,4.2164,4.0705,3.9815,3.9417,3.9718,3.9687,3.9591,3.9436,3.9048,3.8905,3.9139,3.8996,3.9301,4.0311,3.9518,3.9067,3.9139,3.8573,3.8289,3.8334,3.8135,3.8,3.7932,3.7739,3.7577,3.7432,3.7357,3.7245,2.5983,2.6491,2.7087,2.8794,3.0425,3.2024,3.372,3.4945,3.5885,3.6608,3.7011,3.7443,3.8217,3.8028,3.7997,3.8861,3.9117,3.9146,3.9,3.9078,3.8904,3.8275,3.8165,3.824,3.8478,3.8775,3.8995,3.9017,0.0,0.0,3.8722,3.8176,3.8054,3.8524,3.7537,3.6901,3.6598,3.6369,3.6211,0.0,3.6166,3.6586,3.7307,3.6426,3.6446,3.7118,3.6497,3.6609,3.7173,3.6532,3.6187,3.6101,3.631,3.6089,3.5781,3.6703,3.7106,3.7384,3.8767,3.9123,3.908,3.9616,3.9657,3.9541,3.9781,3.9519,3.9373,4.0371,4.0236,4.0058,4.1214,4.1343,4.1338,4.1975,4.2411,4.2905,4.3708,4.2991,4.2229,4.2433,4.2281,4.1851,4.0908,4.0343,3.9917,3.9621,3.9451,3.9382,3.9414,3.9295,3.8938,3.8185,3.8026,3.8205,3.8831,3.8275,3.8544,3.9976,3.8631,3.8076,3.8701,3.8205,3.7879,3.7862,3.765,3.7487,3.7376,3.7223,3.7089,3.6954,3.6774,3.6588,2.562,2.6618,2.7787,2.9822,3.1668,3.3247,3.4224,3.5677,3.6891,3.7171,3.7581,3.8014,3.8538,3.824,3.813,3.8894,3.8839,3.8763,3.8839,3.8763,3.8594,3.8246,3.8015,3.7937,3.8157,3.824,3.8346,3.8417,0.0,3.8474,3.8474,3.7937,3.7787,3.8209,3.737,3.6786,3.6439,3.6615,3.6703,3.6681,3.6733,3.6829,3.6898,3.6322,3.5995,3.5864,3.6001,3.614,3.6305,3.6379,3.6252,3.5975,3.635,3.6102,3.5669,3.664,3.6923,3.7015,3.8507,3.8756,3.8516,3.9189,3.942,3.9471,3.9664,3.9564,3.9635,4.0673,4.0637,4.0455,4.1266,4.1232,4.0998,4.1053,4.1286,4.1711,4.2515,4.185,4.1198,4.1597,4.1306,4.0744,3.9787,3.9014,3.8509,3.8456,3.8473,3.8582,3.8833,3.8776,3.8484,3.7941,3.7887,3.8045,3.8431,3.8077,3.836,3.9585,3.8347,3.7811,3.8294,3.7535,3.7188,3.7411,3.7223,3.7052,3.6917,3.6794,3.667,3.6527,3.6419,3.6272,2.516,2.6801,2.8815,3.0761,3.2409,3.3796,3.4553,3.6036,3.7368,3.7718,3.8209,3.8612,3.8797,3.856,3.8456,3.8907,3.8611,3.8396,3.8624,3.85,3.8271,3.8094,3.785,3.7687,3.7733,3.7595,3.759,3.7775,0.0,3.7928,3.8109,3.7628,3.7497,3.7795,3.7386,3.689,3.6346,3.7173,3.7419,3.7064,3.7373,3.7094,3.6293,3.6082,3.5464,3.4657,3.5355,3.5521,3.531,3.6211,3.635,3.6013,3.6363,3.6126,3.5705,3.6551,3.6684,3.6632,3.8175,3.8401,3.8108,3.8848,3.9357,3.9672,3.9462,3.9785,4.0366,4.1088,4.112,4.1008,4.1378,4.1178,4.078,4.0419,4.0292,4.0438,4.1066,4.0687,4.0325,4.0613,4.0212,3.9607,3.8921,3.8294,3.7828,3.775,3.773,3.7869,3.8225,3.8194,3.8058,3.7816,3.7778,3.7778,3.7778,3.7778,3.8079,3.8748,3.8,3.7568,3.7669,3.6751,3.6447,3.6873,3.6771,3.6629,3.6509,3.6444,3.6314,3.6122,3.6122,3.6058,2.5893,2.7959,3.0066,3.1194,3.2485,3.3861,3.5217,3.6408,3.7464,3.8428,3.8686,3.8833,3.9017,3.887,3.8937,3.9563,3.9128,3.8877,3.9314,3.9128,3.8627,3.7704,3.802,3.8057,3.7495,3.7688,3.7928,3.8126,3.7889,3.7743,3.7775,3.7172,3.7001,3.7454,3.7104,3.6401,3.5317,3.6041,3.6018,3.5259,3.633,3.6644,3.6273,3.5683,3.542,3.5409,3.4959,3.4997,3.5367,3.535,3.5392,3.55,3.5616,3.5648,3.5698,3.6439,3.613,3.5619,3.7669,3.7837,3.7365,3.8613,3.9129,3.9309,3.9443,3.9436,3.9481,3.9978,3.9574,3.9158,3.9933,3.9446,3.8788,3.9139,3.9085,3.9228,4.0238,4.001,3.9489,3.9014,3.817,3.7643,3.7988,3.8046,3.8204,3.8646,3.8709,3.8478,3.7777,3.7654,3.7343,3.663,3.654,3.654,3.654,3.654,3.6575,3.67,3.6504,3.6427,3.6427,3.6178,3.6019,3.5975,3.6187,3.6208,3.6084,3.6062,3.5975,3.5839,3.5839,3.5778,2.7343,2.9021,3.0511,3.1571,3.2954,3.4271,3.5011,3.6422,3.7644,3.8039,3.867,3.9141,3.9265,3.9017,3.8959,3.9505,3.9136,3.8922,3.9232,3.8862,3.8379,3.7883,3.759,3.738,3.7116,3.7132,3.7194,3.745,3.7437,3.731,3.6995,3.6682,3.6499,3.6508,3.6362,3.5983,3.5395,3.6186,3.6359,3.5909,3.6288,3.6255,3.5812,3.491,3.4798,3.5242,3.4837,3.4705,3.4813,3.5085,3.5331,3.5516,3.5582,3.5586,3.5561,3.5786,3.5468,3.5173,3.6836,3.715,3.7057,3.8437,3.8931,3.9057,3.9472,3.926,3.9049,3.993,3.9685,3.9292,3.9902,3.9355,3.8743,3.9222,3.9014,3.8802,3.9203,3.9147,3.8765,3.7969,3.7447,3.7195,3.7327,3.7487,3.7655,3.7865,3.7895,3.7602,3.6801,3.6559,3.629,3.5966,3.5915,3.5915,3.5915,3.5915,3.5937,3.6019,3.591,3.5844,3.5844,3.5773,3.5656,3.5503,3.5817,3.5866,3.565,3.565,3.5622,3.5503,3.5503,3.5481,2.816,2.9416,3.0508,3.1658,3.3036,3.4221,3.4704,3.6193,3.7525,3.7608,3.8565,3.9364,3.9236,3.9058,3.9068,3.9337,3.9177,3.8994,3.8882,3.8615,3.8287,3.7819,3.7315,3.6997,3.6896,3.6769,3.6692,3.6762,3.6911,3.6841,3.6466,3.6276,3.6165,3.6121,3.6011,3.5845,3.5594,3.6191,3.6434,3.6271,3.6148,3.5853,3.5384,3.4444,3.4408,3.5058,3.4743,3.4556,3.4559,3.5119,3.5326,3.529,3.5574,3.5458,3.5123,3.5117,3.4937,3.4858,3.6005,3.654,3.6918,3.8187,3.8761,3.9001,3.9334,3.8974,3.8628,3.939,3.9187,3.881,3.9173,3.8743,3.8371,3.8813,3.856,3.8237,3.8288,3.8356,3.8048,3.6899,3.682,3.6979,3.6998,3.7154,3.7263,3.7211,3.7228,3.6911,3.5958,3.5661,3.5509,3.5509,3.5509,3.5509,3.5509,3.5509,3.5571,3.5661,3.5594,3.5526,3.5464,3.5412,3.5314,3.5152,3.5389,3.5464,3.5373,3.5373,3.5367,3.5291,3.5291,3.5268,2.7543,2.8775,3.0091,3.1231,3.2245,3.3291,3.4504,3.5753,3.6833,3.7469,3.8565,3.9266,3.8833,3.9097,3.9388,3.9388,3.9553,3.9292,3.8293,3.889,3.8779,3.6969,3.7457,3.7655,3.6969,3.7074,3.6957,3.6458,3.6456,3.6466,3.6575,3.5999,3.6075,3.6993,3.6594,3.6108,3.5611,3.5528,3.5351,3.509,3.5408,3.5405,3.51,3.4596,3.4725,3.5247,3.4604,3.4612,3.5086,3.538,3.5048,3.4458,3.5281,3.4986,3.4149,3.4704,3.4722,3.4528,3.5299,3.61,3.6926,3.7763,3.8643,3.9272,3.8803,3.8398,3.8024,3.7513,3.6894,3.6411,3.6624,3.6552,3.6548,3.7021,3.701,3.7062,3.7638,3.7807,3.7303,3.5562,3.583,3.6539,3.7161,3.7393,3.7466,3.7483,3.758,3.7107,3.5545,3.5314,3.5314,3.5314,3.5314,3.5314,3.5314,3.5314,3.5314,3.5314,3.5314,3.5268,3.5111,3.5111,3.4994,3.4756,3.4739,3.4947,3.5314,3.5314,3.5291,3.5291,3.5291,3.5222,2.7727,2.8962,3.0248,3.0732,3.1877,3.3006,3.3374,3.4744,3.6146,3.6825,3.7573,3.8252,3.8745,3.9002,3.8998,3.851,3.8504,3.8413,3.805,3.8114,3.8014,3.741,3.7421,3.7477,3.7435,3.7126,3.66,3.5701,3.6118,3.5801,3.4426,3.5059,3.5408,3.5318,3.5221,3.526,3.5478,3.535,3.5244,3.518,3.4568,3.4359,3.4513,3.4208,3.4336,3.4761,3.4254,3.4175,3.4419,3.4635,3.4276,3.3725,3.5069,3.4912,3.4004,3.4519,3.4599,3.4551,3.5119,3.5993,3.6988,3.7665,3.8326,3.882,3.8499,3.7685,3.6941,3.7247,3.6326,3.5392,3.6053,3.6145,3.6143,3.6464,3.7036,3.7329,3.6639,3.7075,3.7254,3.6037,3.6481,3.6976,3.6659,3.7228,3.7765,3.7765,3.7893,3.7428,3.5818,3.5563,3.5316,3.4853,3.5217,3.5267,3.4716,3.5087,3.5177,3.4676,3.4667,3.4659,3.4594,3.4594,3.4497,3.4325,3.4226,3.4374,3.4804,3.4804,3.4804,3.4804,3.4804,3.4804,2.7451,2.8543,2.9827,3.0133,3.1001,3.1886,3.2293,3.3738,3.5194,3.5824,3.6783,3.7684,3.8235,3.8498,3.8552,3.8111,3.8095,3.8004,3.7776,3.7801,3.767,3.7219,3.7145,3.7165,3.7173,3.6866,3.6316,3.5416,0.0,0.0,3.3658,3.4623,3.5071,3.4818,3.489,3.5178,3.57,3.5473,3.5238,3.5062,3.4253,3.3944,3.4075,3.4094,3.4166,3.4243,3.3745,3.3915,3.4532,3.4387,3.3863,3.3329,3.4899,3.4625,3.3448,3.412,3.4242,3.4173,3.4587,3.544,3.6473,3.7088,3.7787,3.8334,3.8163,3.705,3.6017,3.6755,3.5501,3.4145,3.5165,3.5367,3.5356,3.5599,3.6266,3.6584,3.5621,3.6593,3.7247,3.5943,3.6529,3.7004,3.6265,3.6923,3.7573,3.775,3.7847,3.7446,3.6153,3.5964,3.5691,3.5049,3.5279,3.5196,3.4489,3.4868,3.4975,3.4464,3.4658,3.4649,3.4397,3.4381,3.4191,3.3822,3.3745,3.3822,3.4101,3.4201,3.4356,3.4542,3.4339,3.4349,0.0,0.0,0.0,2.9462,2.9602,2.9929,3.133,3.2782,3.3973,3.4572,3.6246,3.7521,3.7231,3.7605,3.8028,3.8263,3.84,3.82,3.7477,3.7982,3.7862,3.6283,3.6612,3.6775,3.6276,3.6328,3.6176,3.5611,3.5554,3.5226,3.4464,3.464,3.5071,3.5715,3.5759,3.5912,3.6232,3.5774,3.522,3.4582,3.4424,3.4182,3.3815,3.4262,3.4224,3.377,3.3063,3.382,3.5452,3.4655,3.3809,3.3164,3.4635,3.4014,3.242,3.3449,3.3611,3.3345,3.3685,3.4427,3.5371,3.6052,3.6981,3.7807,3.7685,3.6501,3.5335,3.5873,3.4301,3.2672,3.3803,3.4096,3.4151,3.4363,3.4563,3.474,3.4725,3.6366,3.7221,3.5133,3.5863,3.665,3.6109,3.6465,3.6974,3.7421,3.741,3.708,3.6474,3.6502,3.6391,3.5932,3.5491,3.5062,3.4729,3.4718,3.4718,3.4702,3.5313,3.5338,3.4546,3.4487,3.4116,3.3314,3.3314,3.3314,3.3314,3.3571,3.402,3.4622,3.3988,3.3899,2.7594,0.0,0.0,0.0,0.0,0.0,3.0534,3.118,3.2131,3.4262,3.513,3.5742,3.6504,3.6737,3.6719,3.6301,3.6906,3.7219,3.6682,3.6916,3.689,3.6245,3.6422,3.6592,3.6617,3.6455,3.5877,0.0,3.4681,3.4183,3.305,3.3534,3.3998,3.4269,3.4561,3.4785,3.4925,3.4459,3.4217,3.4228,3.3942,3.3917,3.4086,3.3915,3.3911,3.3936,3.2634,3.2722,3.3734,3.2927,3.2054,3.1349,3.2635,3.2676,3.2067,3.2507,3.2869,3.3178,3.3319,3.3771,3.4429,3.5299,3.5883,3.6261,3.6319,3.58,3.5157,3.5058,3.3962,3.2967,3.3525,3.3736,3.3952,3.4501,3.514,3.5507,3.5019,3.5753,3.626,3.5433,3.6328,3.6954,3.6085,3.6658,3.7279,3.7425,3.7514,3.7288,3.6501,3.6434,3.6154,3.5335,3.56,3.5572,3.4842,3.5266,3.5287,3.4672,3.4784,3.4815,3.4571,3.4485,3.4203,3.3728,3.3519,3.3448,3.3587,3.3466,3.3441,3.3466,3.3367,3.3351,0.0,0.0,0.0,2.8955,0.0,0.0,2.9848,3.0397,3.1141,3.2791,3.3493,3.397,3.4543,3.4707,3.466,3.4337,3.4851,3.5475,3.6017,3.633,3.635,3.5882,3.5836,3.5909,3.6067,3.5688,3.5125,3.4369,3.4354,3.4026,3.3195,3.324,3.3579,3.4181,3.4134,3.432,3.4782,3.3963,3.3783,3.4312,3.4032,3.3858,3.3825,3.3815,3.3541,3.3058,3.2218,3.1884,3.1928,3.1378,3.0982,3.0851,3.1743,3.1829,3.1501,3.1689,3.2125,3.2648,3.2719,3.3248,3.4022,3.474,3.5318,3.5725,3.5428,3.4968,3.4499,3.4309,3.3572,3.2881,3.3231,3.3183,3.329,3.4279,3.4898,3.5142,3.4751,3.5299,3.5776,3.5431,3.6259,3.6764,3.5959,3.65,3.7058,3.7163,3.7194,3.7038,3.6571,3.6568,3.6336,3.556,3.5697,3.5574,3.495,3.5274,3.5306,3.4802,3.5047,3.5078,3.4786,3.4696,3.4312,3.3532,3.3387,3.3249,3.3069,3.2916,3.2742,3.259,3.2672,3.2711,0.0,0.0,0.0,0.0,2.8068,0.0,2.9321,2.997,3.0451,3.0807,3.1634,3.2254,3.2064,3.2278,3.2435,3.2346,3.2507,3.3318,3.532,3.5798,3.5769,3.5237,3.4889,3.4752,3.4901,3.4448,3.4153,3.4185,3.432,3.4264,3.3967,3.3337,3.349,3.4624,3.4055,3.4155,3.5072,3.3911,3.3694,3.4378,3.4234,3.3829,3.3201,3.362,3.3045,3.1712,3.1745,3.1222,3.0348,3.0116,3.0368,3.0956,3.1295,3.1194,3.083,3.088,3.1307,3.1873,3.1998,3.2727,3.3721,3.4159,3.491,3.552,3.4724,3.406,3.3581,3.3584,3.305,3.255,3.2835,3.2562,3.2536,3.3866,3.4191,3.4224,3.4256,3.4944,3.549,3.5214,3.5891,3.6353,3.5827,3.6153,3.6569,3.6753,3.6616,3.6492,3.66,3.6708,3.6631,3.6196,3.5722,3.5324,3.5109,3.5093,3.5093,3.5093,3.5639,3.57,3.5092,3.5062,3.444,3.312,3.3083,3.2787,3.215,3.215,3.2094,3.1968,3.1996,3.2122,0.0,0.0,0.0,0.0,0.0,0.0,2.8792,2.8435,2.8182,2.9798,3.0578,3.099,3.1054,3.1678,3.1701,3.0283,3.0528,3.1683,3.3951,3.3681,3.3516,3.4176,3.3419,3.3055,3.3657,3.3757,3.3898,3.4099,3.3852,3.3308,3.2397,3.265,3.2919,3.3131,3.3263,3.3402,3.3612,3.352,3.3294,3.2993,3.3167,3.2997,3.2472,3.2152,3.1945,3.1812,3.1092,3.0508,3.0044,2.9633,2.961,2.9782,2.9315,2.9676,3.0342,2.9728,3.0144,3.1083,3.1482,3.181,3.2159,3.2767,3.3259,3.3524,3.3252,3.328,3.322,3.2598,3.2086,3.1779,3.2118,3.219,3.2535,3.3806,3.4259,3.4393,3.4574,3.4776,3.4905,3.4937,3.5883,3.6523,3.6011,3.6244,3.6429,3.6211,3.6116,3.61,3.6132,3.6148,3.6085,3.5816,3.5695,3.5619,3.557,3.557,3.557,3.557,3.5691,3.5657,3.5407,3.5407,3.4888,3.3743,3.2854,3.2216,3.187,3.187,3.187,3.1841,3.194,3.1968,0.0,0.0,0.0,2.9073,0.0,0.0,0.0,2.8211,2.7866,2.8517,2.88,2.8752,2.8291,2.8475,2.8471,2.771,2.7999,2.8943,3.0696,3.1501,3.2257,3.3249,3.2309,3.21,3.338,3.2853,3.2744,3.3453,3.3101,3.2687,3.2266,3.2312,3.2578,3.3037,3.2112,3.2032,3.2897,3.2241,3.2021,3.2248,3.2513,3.2391,3.1903,3.1762,3.1304,3.0605,3.0468,2.9935,2.9193,2.9101,2.9127,2.9168,2.8321,2.8703,2.9603,2.8874,2.9418,3.0572,3.0824,3.1368,3.1988,3.2227,3.2797,3.3319,3.2808,3.266,3.2474,3.1407,3.1448,3.1826,3.1711,3.2197,3.29,3.3674,3.4005,3.4191,3.4293,3.4293,3.4327,3.4467,3.5219,3.5753,3.5621,3.5829,3.594,3.578,3.5733,3.5733,3.5733,3.5733,3.5701,3.5604,3.5589,3.5589,3.5589,3.5524,3.5492,3.5589,3.5145,3.4986,3.5344,3.4981,3.4422,3.3698,3.2578,3.1968,3.1898,3.1841,3.1799,3.1799,3.2187,3.2143,0.0,0.0,0.0,0.0,0.0,2.8039,0.0,0.0,0.0,2.7277,2.7028,2.6624,2.5785,2.5544,2.5484,2.5462,2.5689,0.0,0.0,2.8748,0.0,3.1874,3.0896,3.0707,3.234,3.124,3.088,3.1991,3.1795,3.1718,3.1948,3.1987,3.2325,3.2966,3.1364,3.1111,3.2388,3.1182,3.095,3.1664,3.1902,3.176,3.1284,3.1499,3.0837,2.9542,3.0021,2.9576,2.8525,2.8607,2.872,2.8737,2.7906,2.8216,2.9073,2.8537,2.9123,3.0245,3.0366,3.1197,3.2095,3.1811,3.2436,3.3198,3.2431,3.2114,3.1786,3.0641,3.1117,3.1902,3.1547,3.2192,3.3034,3.3401,3.3591,3.3744,3.3827,3.3827,3.3882,3.404,3.4419,3.4773,3.5049,3.5311,3.5457,3.5392,3.5359,3.5359,3.5359,3.5359,3.5359,3.5359,3.5359,3.5359,3.5359,3.5261,3.5213,3.5359,3.4611,3.4469,3.5067,3.4445,3.389,3.3514,3.2568,3.2048,3.1996,3.1912,3.193,3.2066,3.258,3.2579,0.0,0.0,0.0,0.0,2.9243,0.0,0.0,0.0,2.6428,2.6356,0.0,2.5756,2.5693,0.0,0.0,0.0,2.4495,2.4549,2.4155,2.453,2.6047,2.9301,2.815,2.7471,2.8449,2.7947,2.7976,2.9017,2.9376,2.9577,2.9668,3.1423,3.2155,3.1566,3.2041,3.2082,3.1624,3.157,3.131,3.0843,3.0987,3.0852,3.0438,3.0475,3.0411,3.0258,3.0046,2.9559,2.8878,2.8328,2.8135,2.8183,2.7946,2.8447,2.9274,2.9199,2.9489,3.0037,3.0635,3.1177,3.1498,3.0941,3.1132,3.1523,3.1248,3.1422,3.1657,3.1195,3.1085,3.1233,3.1644,3.1854,3.2166,3.2884,3.3108,3.3213,3.357,3.364,3.3675,3.3882,3.3985,3.4157,3.4664,3.5118,3.5317,3.5001,3.4968,3.4968,3.4968,3.4968,3.4968,3.4968,3.4968,3.4968,3.4968,3.4935,3.4935,3.4968,3.4861,3.4795,3.4765,3.451,3.411,3.3499,3.3212,3.2688,3.1996,3.2094,3.244,3.3035,3.3096,3.3198,0.0,0.0,0.0,0.0,0.0,0.0,2.7606,0.0,2.6232,0.0,0.0,0.0,0.0,0.0,0.0,0.0,2.3172,2.3254,2.3051,0.0,2.4356,2.6918,0.0,0.0,2.6438,2.697,2.748,2.7935,2.837,2.8852,2.939,3.0054,3.0685,3.1271,3.087,3.0731,3.0923,3.0586,3.0363,3.0245,3.0408,3.0196,2.9663,2.9702,2.9369,2.8775,2.8874,2.8566,2.8017,2.8127,2.8261,2.8363,2.8185,2.8368,2.8721,2.8691,2.8881,2.9241,2.9993,3.0428,3.0687,3.1119,3.1324,3.135,3.094,3.1279,3.1573,3.0485,3.1007,3.181,3.1286,3.1809,3.2492,3.2519,3.2668,3.2881,3.3037,3.3072,3.3143,3.3333,3.3486,3.3675,3.402,3.4501,3.4787,3.4635,3.4769,3.4902,3.4902,3.4902,3.4902,3.4902,3.4902,3.4868,3.4783,3.4683,3.465,3.4783,3.4668,3.434,3.3662,3.3947,3.3957,3.3613,3.3141,3.2926,3.2988,3.2389,3.2713,3.3882,3.3839,3.364,3.2466,0.0,0.0,0.0,0.0,0.0,0.0,0.0,0.0,0.0,0.0,0.0,0.0,0.0,0.0,0.0,0.0,2.23,0.0,2.2171,2.2797,2.4565,0.0,0.0,0.0,2.5232,2.5828,2.5973,2.6344,2.6964,2.7887,2.8361,2.913,3.0326,2.9819,2.9743,3.0185,2.9762,2.9672,2.994,3.0131,2.9868,2.9214,2.9448,2.8907,2.7847,2.8183,2.8088,2.7673,2.7776,2.8096,2.853,2.8014,2.8034,2.8381,2.8569,2.8772,2.9083,2.9781,3.0075,3.0322,3.1229,3.1451,3.1277,3.0807,3.1202,3.1527,3.0149,3.1059,3.2158,3.1321,3.1923,3.2717,3.2408,3.2538,3.2704,3.2704,3.2704,3.2739,3.2881,3.3072,3.3276,3.3417,3.3902,3.4244,3.4244,3.4481,3.4635,3.4635,3.4635,3.4635,3.4635,3.4702,3.4702,3.4631,3.4481,3.4414,3.4462,3.4346,3.3941,3.3197,3.3802,3.4041,3.3768,3.3484,3.3502,3.3834,3.2998,3.3232,3.4429,3.4127,3.3746,0.0,0.0,0.0,3.1639,0.0,0.0,0.0,0.0,2.5977,0.0,0.0,0.0,0.0,0.0,0.0,0.0,0.0,0.0,0.0,2.0527,2.0607,2.2213,2.227,0.0,0.0,2.1674,2.1818,2.2148,2.2305,2.2868,2.3927,2.6432,2.7879,2.8011,2.954,3.0069,2.944,2.9617,2.9796,3.0007,3.0208,2.9901,2.9216,2.9863,2.9515,2.84,2.859,2.8641,2.8439,2.7112,2.7342,2.8356,2.7067,2.7354,2.8588,2.9369,2.9769,2.9999,3.0425,3.0569,3.0643,3.1014,3.1058,3.097,3.0687,3.1018,3.1423,3.0901,3.1268,3.1881,3.2114,3.2205,3.2314,3.2596,3.2704,3.2704,3.2704,3.2704,3.2704,3.2704,3.2881,3.3023,3.3023,3.3521,3.3931,3.3931,3.3931,3.3931,3.3931,3.3931,3.3931,3.3931,3.421,3.4414,3.4414,3.4414,3.4244,3.3965,3.3931,3.3882,3.3868,3.4505,3.4578,3.3912,3.4553,3.4699,3.4163,3.4163,3.4267,3.4489,3.3752,3.353,0.0,0.0,3.2812,3.2097,0.0,0.0,0.0,0.0,0.0,0.0,0.0,0.0,0.0,0.0,0.0,0.0,0.0,0.0,0.0,1.9827,1.9399,1.998,2.0317,2.0551,0.0,0.0,2.1045,2.1268,2.148,2.1998,2.2893,2.3937,2.5031,2.6203,2.6876,2.7435,2.7866,2.8554,2.8755,2.8485,2.9217,2.8853,2.7577,2.8198,2.8005,2.7223,2.7464,2.7788,2.8064,2.7189,2.7385,2.816,2.7232,2.7699,2.8843,2.9037,2.9242,2.9477,2.9915,3.0357,3.0762,3.0851,3.0732,3.0535,3.0647,3.0871,3.1001,3.0632,3.1182,3.1852,3.1809,3.1986,3.2218,3.2169,3.2322,3.2489,3.2489,3.2431,3.248,3.2846,3.2739,3.2668,3.2775,3.2966,3.3227,3.364,3.3827,3.3862,3.3709,3.3827,3.3882,3.3833,3.4059,3.4196,3.4196,3.4108,3.402,3.3896,3.3896,3.3896,3.3896,3.4462,3.4714,3.4578,3.4713,3.4938,3.5198,3.4501,3.4104,3.3955,3.3476,3.3299,3.4928,3.4275,0.0,3.2548,3.1953,0.0,2.9745,0.0,0.0,0.0,0.0,0.0,0.0,0.0,0.0,0.0,0.0,0.0,0.0,1.9382,1.8898,1.8805,1.928,1.9638,1.9658,2.012,2.0319,2.0079,2.0265,2.0751,0.0,0.0,2.3453,2.4896,2.568,2.6562,2.7526,2.7943,2.8148,2.8169,2.8584,2.8207,2.7187,2.7699,2.7579,2.6962,2.7139,2.739,2.7634,2.6977,2.7148,2.7778,2.7296,2.7824,2.8861,2.8777,2.9074,2.9585,2.9956,3.0403,3.0777,3.0673,3.0608,3.0606,3.0535,3.0895,3.1206,3.0726,3.1202,3.1877,3.1813,3.19,3.2059,3.2228,3.2359,3.2417,3.2489,3.2503,3.2552,3.2739,3.2704,3.2596,3.2596,3.2668,3.2846,3.3227,3.3368,3.3417,3.3312,3.3368,3.3472,3.3409,3.377,3.4059,3.4196,3.4108,3.402,3.3896,3.3896,3.3896,3.3896,3.4428,3.475,3.4902,3.4944,3.5249,3.5831,3.5078,3.441,3.3804,3.3589,3.3191]}]]